| time (UTC) | temp F | wind direction | speed MPH | gust MPH | rain 1hr in | rain 24hr in | rain mn in | humidity % | barometer mb |
| 20260906235614 | 83 | 236 | 4.0 | 13.0 | 0.00 | 0.00 | 0.00 | 27 | 1011.1 |
| 20260906235513 | 83 | 236 | 4.0 | 13.0 | 0.00 | 0.00 | 0.00 | 27 | 1011.1 |
| 20260906235413 | 83 | 201 | 4.0 | 13.0 | 0.00 | 0.00 | 0.00 | 26 | 1011.1 |
| 20260906235314 | 83 | 256 | 4.0 | 13.0 | 0.00 | 0.00 | 0.00 | 26 | 1011.2 |
| 20260906235228 | 83 | 186 | 4.0 | 13.0 | 0.00 | 0.00 | 0.00 | 26 | 1011.2 |
| 20260906235211 | 83 | 195 | 4.0 | 13.0 | 0.00 | 0.00 | 0.00 | 26 | 1011.2 |
| 20260906235109 | 83 | 296 | 4.0 | 13.0 | 0.00 | 0.00 | 0.00 | 26 | 1011.2 |
| 20260906235008 | 83 | 253 | 3.0 | 13.0 | 0.00 | 0.00 | 0.00 | 26 | 1011.2 |
| 20260906234910 | 83 | 217 | 3.0 | 13.0 | 0.00 | 0.00 | 0.00 | 26 | 1011.2 |
| 20260906234810 | 83 | 215 | 3.0 | 13.0 | 0.00 | 0.00 | 0.00 | 25 | 1011.2 |
| 20260906234728 | 83 | 233 | 3.0 | 13.0 | 0.00 | 0.00 | 0.00 | 25 | 1011.2 |
| 20260906234709 | 83 | 263 | 2.0 | 13.0 | 0.00 | 0.00 | 0.00 | 25 | 1011.2 |
| 20260906234609 | 83 | 256 | 3.0 | 8.0 | 0.00 | 0.00 | 0.00 | 26 | 1011.1 |
| 20260906234509 | 83 | 264 | 3.0 | 8.0 | 0.00 | 0.00 | 0.00 | 26 | 1011.2 |
| 20260906234409 | 83 | 231 | 3.0 | 8.0 | 0.00 | 0.00 | 0.00 | 25 | 1011.2 |
| 20260906234309 | 83 | 294 | 3.0 | 8.0 | 0.00 | 0.00 | 0.00 | 26 | 1011.2 |
| 20260906234228 | 83 | 205 | 3.0 | 8.0 | 0.00 | 0.00 | 0.00 | 25 | 1011.2 |
| 20260906234210 | 83 | 139 | 3.0 | 8.0 | 0.00 | 0.00 | 0.00 | 24 | 1011.2 |
| 20260906234109 | 83 | 177 | 3.0 | 8.0 | 0.00 | 0.00 | 0.00 | 25 | 1011.2 |
| 20260906234009 | 83 | 277 | 4.0 | 8.0 | 0.00 | 0.00 | 0.00 | 25 | 1011.2 |
| 20260906233909 | 83 | 197 | 4.0 | 10.0 | 0.00 | 0.00 | 0.00 | 24 | 1011.3 |
| 20260906233809 | 83 | 225 | 4.0 | 10.0 | 0.00 | 0.00 | 0.00 | 24 | 1011.3 |
| 20260906233729 | 83 | 253 | 4.0 | 10.0 | 0.00 | 0.00 | 0.00 | 25 | 1011.3 |
| 20260906233709 | 83 | 217 | 4.0 | 10.0 | 0.00 | 0.00 | 0.00 | 25 | 1011.4 |
| 20260906233607 | 84 | 236 | 4.0 | 10.0 | 0.00 | 0.00 | 0.00 | 25 | 1011.3 |
| 20260906233507 | 84 | 200 | 4.0 | 10.0 | 0.00 | 0.00 | 0.00 | 25 | 1011.3 |
| 20260906233446 | 84 | 222 | 3.0 | 10.0 | 0.00 | 0.00 | 0.00 | 25 | 1011.3 |
| 20260906233407 | 84 | 239 | 4.0 | 10.0 | 0.00 | 0.00 | 0.00 | 25 | 1011.4 |
| 20260906233339 | 84 | 257 | 3.0 | 10.0 | 0.00 | 0.00 | 0.00 | 25 | 1011.3 |
| 20260906233205 | 84 | 185 | 3.0 | 10.0 | 0.00 | 0.00 | 0.00 | 25 | 1011.4 |
| 20260906233105 | 84 | 211 | 3.0 | 10.0 | 0.00 | 0.00 | 0.00 | 25 | 1011.4 |
| 20260906233005 | 84 | 274 | 2.0 | 10.0 | 0.00 | 0.00 | 0.00 | 24 | 1011.4 |
| 20260906232901 | 84 | 217 | 3.0 | 10.0 | 0.00 | 0.00 | 0.00 | 24 | 1011.4 |
| 20260906232802 | 84 | 250 | 3.0 | 10.0 | 0.00 | 0.00 | 0.00 | 24 | 1011.3 |
| 20260906232728 | 84 | 211 | 3.0 | 10.0 | 0.00 | 0.00 | 0.00 | 24 | 1011.3 |
| 20260906232659 | 84 | 204 | 3.0 | 10.0 | 0.00 | 0.00 | 0.00 | 24 | 1011.4 |
| 20260906232559 | 84 | 249 | 2.0 | 10.0 | 0.00 | 0.00 | 0.00 | 26 | 1011.4 |
| 20260906232459 | 84 | 250 | 2.0 | 8.0 | 0.00 | 0.00 | 0.00 | 25 | 1011.3 |
| 20260906232359 | 84 | 229 | 3.0 | 8.0 | 0.00 | 0.00 | 0.00 | 26 | 1011.4 |
| 20260906232300 | 84 | 286 | 3.0 | 8.0 | 0.00 | 0.00 | 0.00 | 25 | 1011.4 |
| 20260906232228 | 84 | 280 | 3.0 | 8.0 | 0.00 | 0.00 | 0.00 | 25 | 1011.4 |
| 20260906232159 | 84 | 238 | 3.0 | 8.0 | 0.00 | 0.00 | 0.00 | 25 | 1011.4 |
| 20260906232059 | 84 | 238 | 3.0 | 8.0 | 0.00 | 0.00 | 0.00 | 25 | 1011.4 |
| 20260906231959 | 84 | 256 | 3.0 | 8.0 | 0.00 | 0.00 | 0.00 | 25 | 1011.4 |
| 20260906231859 | 84 | 238 | 3.0 | 8.0 | 0.00 | 0.00 | 0.00 | 25 | 1011.5 |
| 20260906231800 | 84 | 255 | 2.0 | 8.0 | 0.00 | 0.00 | 0.00 | 25 | 1011.4 |
| 20260906231726 | 84 | 205 | 2.0 | 8.0 | 0.00 | 0.00 | 0.00 | 25 | 1011.4 |
| 20260906231655 | 84 | 228 | 3.0 | 8.0 | 0.00 | 0.00 | 0.00 | 26 | 1011.5 |
| 20260906231555 | 84 | 245 | 3.0 | 8.0 | 0.00 | 0.00 | 0.00 | 25 | 1011.4 |
| 20260906231456 | 84 | 245 | 3.0 | 9.0 | 0.00 | 0.00 | 0.00 | 25 | 1011.5 |
| 20260906231355 | 84 | 239 | 4.0 | 9.0 | 0.00 | 0.00 | 0.00 | 25 | 1011.5 |
| 20260906231256 | 83 | 248 | 4.0 | 9.0 | 0.00 | 0.00 | 0.00 | 25 | 1011.5 |
| 20260906231226 | 83 | 270 | 4.0 | 9.0 | 0.00 | 0.00 | 0.00 | 25 | 1011.5 |
| 20260906231155 | 83 | 281 | 4.0 | 12.0 | 0.00 | 0.00 | 0.00 | 25 | 1011.5 |
| 20260906231055 | 83 | 281 | 5.0 | 12.0 | 0.00 | 0.00 | 0.00 | 25 | 1011.5 |
| 20260906230955 | 83 | 301 | 4.0 | 12.0 | 0.00 | 0.00 | 0.00 | 24 | 1011.5 |
| 20260906230855 | 83 | 232 | 4.0 | 12.0 | 0.00 | 0.00 | 0.00 | 24 | 1011.6 |
| 20260906230754 | 83 | 260 | 5.0 | 12.0 | 0.00 | 0.00 | 0.00 | 24 | 1011.6 |
| 20260906230726 | 83 | 235 | 5.0 | 12.0 | 0.00 | 0.00 | 0.00 | 24 | 1011.6 |
| 20260906230653 | 83 | 181 | 4.0 | 12.0 | 0.00 | 0.00 | 0.00 | 24 | 1011.6 |
| 20260906230553 | 83 | 143 | 4.0 | 12.0 | 0.00 | 0.00 | 0.00 | 24 | 1011.6 |
| 20260906230449 | 83 | 262 | 4.0 | 12.0 | 0.00 | 0.00 | 0.00 | 24 | 1011.6 |
| 20260906230349 | 83 | 232 | 4.0 | 12.0 | 0.00 | 0.00 | 0.00 | 24 | 1011.6 |
| 20260906230250 | 83 | 260 | 4.0 | 12.0 | 0.00 | 0.00 | 0.00 | 23 | 1011.6 |
| 20260906230226 | 83 | 207 | 4.0 | 12.0 | 0.00 | 0.00 | 0.00 | 23 | 1011.6 |
| 20260906230149 | 83 | 270 | 4.0 | 11.0 | 0.00 | 0.00 | 0.00 | 26 | 1011.6 |
| 20260906230049 | 83 | 224 | 4.0 | 10.0 | 0.00 | 0.00 | 0.00 | 26 | 1011.6 |
| 20260906225949 | 83 | 233 | 5.0 | 12.0 | 0.00 | 0.00 | 0.00 | 27 | 1011.7 |
| 20260906225849 | 83 | 235 | 5.0 | 12.0 | 0.00 | 0.00 | 0.00 | 26 | 1011.7 |
| 20260906225750 | 83 | 217 | 5.0 | 12.0 | 0.00 | 0.00 | 0.00 | 26 | 1011.7 |
| 20260906225727 | 83 | 199 | 5.0 | 12.0 | 0.00 | 0.00 | 0.00 | 26 | 1011.7 |
| 20260906225649 | 83 | 242 | 4.0 | 12.0 | 0.00 | 0.00 | 0.00 | 25 | 1011.7 |
| 20260906225549 | 83 | 243 | 4.0 | 15.0 | 0.00 | 0.00 | 0.00 | 26 | 1011.7 |
| 20260906225450 | 83 | 160 | 4.0 | 15.0 | 0.00 | 0.00 | 0.00 | 26 | 1011.7 |
| 20260906225350 | 83 | 184 | 4.0 | 15.0 | 0.00 | 0.00 | 0.00 | 26 | 1011.7 |
| 20260906225250 | 83 | 226 | 4.0 | 15.0 | 0.00 | 0.00 | 0.00 | 25 | 1011.8 |
| 20260906225226 | 83 | 269 | 4.0 | 15.0 | 0.00 | 0.00 | 0.00 | 25 | 1011.8 |
| 20260906225149 | 83 | 232 | 4.0 | 15.0 | 0.00 | 0.00 | 0.00 | 25 | 1011.8 |
| 20260906225102 | 83 | 210 | 4.0 | 15.0 | 0.00 | 0.00 | 0.00 | 27 | 1011.8 |
| 20260906225058 | 83 | 224 | 3.0 | 15.0 | 0.00 | 0.00 | 0.00 | 26 | 1011.8 |
| 20260906224849 | 83 | 225 | 4.0 | 15.0 | 0.00 | 0.00 | 0.00 | 27 | 1011.7 |
| 20260906224750 | 83 | 215 | 5.0 | 15.0 | 0.00 | 0.00 | 0.00 | 27 | 1011.7 |
| 20260906224726 | 83 | 170 | 5.0 | 15.0 | 0.00 | 0.00 | 0.00 | 26 | 1011.7 |
| 20260906224649 | 83 | 153 | 5.0 | 15.0 | 0.00 | 0.00 | 0.00 | 26 | 1011.8 |
| 20260906224546 | 83 | 235 | 5.0 | 15.0 | 0.00 | 0.00 | 0.00 | 27 | 1011.8 |
| 20260906224445 | 83 | 260 | 5.0 | 15.0 | 0.00 | 0.00 | 0.00 | 26 | 1011.8 |
| 20260906224343 | 83 | 205 | 5.0 | 15.0 | 0.00 | 0.00 | 0.00 | 26 | 1011.8 |
| 20260906224244 | 83 | 229 | 5.0 | 15.0 | 0.00 | 0.00 | 0.00 | 27 | 1011.8 |
| 20260906224226 | 83 | 183 | 5.0 | 15.0 | 0.00 | 0.00 | 0.00 | 26 | 1011.8 |
| 20260906224143 | 83 | 177 | 5.0 | 15.0 | 0.00 | 0.00 | 0.00 | 26 | 1011.8 |
| 20260906224043 | 83 | 233 | 5.0 | 15.0 | 0.00 | 0.00 | 0.00 | 26 | 1011.8 |
| 20260906223943 | 83 | 233 | 5.0 | 15.0 | 0.00 | 0.00 | 0.00 | 26 | 1011.9 |
| 20260906223846 | 83 | 248 | 5.0 | 15.0 | 0.00 | 0.00 | 0.00 | 26 | 1011.8 |
| 20260906223744 | 83 | 221 | 5.0 | 15.0 | 0.00 | 0.00 | 0.00 | 26 | 1011.9 |
| 20260906223725 | 83 | 211 | 5.0 | 15.0 | 0.00 | 0.00 | 0.00 | 26 | 1011.9 |
| 20260906223643 | 83 | 250 | 4.0 | 15.0 | 0.00 | 0.00 | 0.00 | 26 | 1011.9 |
| 20260906223543 | 83 | 225 | 4.0 | 12.0 | 0.00 | 0.00 | 0.00 | 27 | 1011.9 |
| 20260906223444 | 83 | 229 | 3.0 | 12.0 | 0.00 | 0.00 | 0.00 | 28 | 1011.9 |
| 20260906223339 | 83 | 226 | 4.0 | 12.0 | 0.00 | 0.00 | 0.00 | 27 | 1011.8 |
| 20260906223238 | 83 | 297 | 4.0 | 12.0 | 0.00 | 0.00 | 0.00 | 27 | 1011.8 |
| 20260906223139 | 83 | 286 | 4.0 | 12.0 | 0.00 | 0.00 | 0.00 | 27 | 1011.9 |
| 20260906223039 | 83 | 185 | 4.0 | 12.0 | 0.00 | 0.00 | 0.00 | 28 | 1011.9 |
| 20260906222939 | 83 | 250 | 4.0 | 12.0 | 0.00 | 0.00 | 0.00 | 27 | 1011.9 |
| 20260906222839 | 83 | 233 | 4.0 | 11.0 | 0.00 | 0.00 | 0.00 | 28 | 1012.0 |
| 20260906222743 | 83 | 134 | 3.0 | 11.0 | 0.00 | 0.00 | 0.00 | 29 | 1012.0 |
| 20260906222724 | 83 | 219 | 3.0 | 11.0 | 0.00 | 0.00 | 0.00 | 29 | 1012.0 |
| 20260906222639 | 83 | 224 | 3.0 | 11.0 | 0.00 | 0.00 | 0.00 | 28 | 1011.9 |
| 20260906222539 | 83 | 226 | 3.0 | 11.0 | 0.00 | 0.00 | 0.00 | 28 | 1012.0 |
| 20260906222439 | 83 | 226 | 3.0 | 11.0 | 0.00 | 0.00 | 0.00 | 27 | 1012.0 |
| 20260906222339 | 83 | 256 | 3.0 | 11.0 | 0.00 | 0.00 | 0.00 | 29 | 1012.0 |
| 20260906222240 | 83 | 203 | 3.0 | 11.0 | 0.00 | 0.00 | 0.00 | 28 | 1012.1 |
| 20260906222224 | 83 | 215 | 3.0 | 11.0 | 0.00 | 0.00 | 0.00 | 28 | 1012.1 |
| 20260906222137 | 83 | 246 | 3.0 | 10.0 | 0.00 | 0.00 | 0.00 | 28 | 1012.1 |
| 20260906222037 | 83 | 271 | 3.0 | 10.0 | 0.00 | 0.00 | 0.00 | 28 | 1012.1 |
| 20260906221937 | 83 | 301 | 4.0 | 12.0 | 0.00 | 0.00 | 0.00 | 29 | 1012.1 |
| 20260906221836 | 83 | 246 | 4.0 | 12.0 | 0.00 | 0.00 | 0.00 | 29 | 1012.1 |
| 20260906221738 | 83 | 211 | 5.0 | 12.0 | 0.00 | 0.00 | 0.00 | 30 | 1012.1 |
| 20260906221725 | 83 | 273 | 5.0 | 12.0 | 0.00 | 0.00 | 0.00 | 30 | 1012.1 |
| 20260906221635 | 82 | 319 | 5.0 | 12.0 | 0.00 | 0.00 | 0.00 | 30 | 1012.1 |
| 20260906221536 | 82 | 310 | 5.0 | 12.0 | 0.00 | 0.00 | 0.00 | 29 | 1012.1 |
| 20260906221435 | 82 | 236 | 5.0 | 12.0 | 0.00 | 0.00 | 0.00 | 29 | 1012.2 |
| 20260906221335 | 82 | 231 | 5.0 | 12.0 | 0.00 | 0.00 | 0.00 | 29 | 1012.2 |
| 20260906221237 | 82 | 112 | 5.0 | 12.0 | 0.00 | 0.00 | 0.00 | 29 | 1012.2 |
| 20260906221225 | 82 | 165 | 5.0 | 12.0 | 0.00 | 0.00 | 0.00 | 29 | 1012.2 |
| 20260906221136 | 82 | 224 | 4.0 | 12.0 | 0.00 | 0.00 | 0.00 | 29 | 1012.2 |
| 20260906221035 | 82 | 233 | 4.0 | 12.0 | 0.00 | 0.00 | 0.00 | 28 | 1012.2 |
| 20260906220935 | 83 | 235 | 3.0 | 12.0 | 0.00 | 0.00 | 0.00 | 28 | 1012.2 |
| 20260906220835 | 83 | 253 | 3.0 | 12.0 | 0.00 | 0.00 | 0.00 | 29 | 1012.2 |
| 20260906220740 | 83 | 215 | 3.0 | 12.0 | 0.00 | 0.00 | 0.00 | 29 | 1012.2 |
| 20260906220724 | 83 | 229 | 3.0 | 12.0 | 0.00 | 0.00 | 0.00 | 29 | 1012.2 |
| 20260906220636 | 83 | 205 | 3.0 | 12.0 | 0.00 | 0.00 | 0.00 | 28 | 1012.2 |
| 20260906220535 | 83 | 239 | 3.0 | 12.0 | 0.00 | 0.00 | 0.00 | 29 | 1012.3 |
| 20260906220435 | 83 | 304 | 4.0 | 12.0 | 0.00 | 0.00 | 0.00 | 28 | 1012.2 |
| 20260906220335 | 83 | 239 | 4.0 | 12.0 | 0.00 | 0.00 | 0.00 | 28 | 1012.2 |
| 20260906220238 | 83 | 245 | 4.0 | 12.0 | 0.00 | 0.00 | 0.00 | 28 | 1012.3 |
| 20260906220225 | 83 | 253 | 4.0 | 12.0 | 0.00 | 0.00 | 0.00 | 28 | 1012.3 |
| 20260906220135 | 83 | 282 | 4.0 | 12.0 | 0.00 | 0.00 | 0.00 | 28 | 1012.3 |
| 20260906220036 | 83 | 283 | 5.0 | 12.0 | 0.00 | 0.00 | 0.00 | 28 | 1012.3 |
| 20260906215933 | 82 | 249 | 5.0 | 12.0 | 0.00 | 0.00 | 0.00 | 28 | 1012.3 |
| 20260906215833 | 83 | 304 | 4.0 | 12.0 | 0.00 | 0.00 | 0.00 | 28 | 1012.3 |
| 20260906215740 | 83 | 229 | 4.0 | 12.0 | 0.00 | 0.00 | 0.00 | 28 | 1012.3 |
| 20260906215725 | 83 | 233 | 4.0 | 12.0 | 0.00 | 0.00 | 0.00 | 28 | 1012.3 |
| 20260906215633 | 83 | 221 | 4.0 | 12.0 | 0.00 | 0.00 | 0.00 | 28 | 1012.3 |
| 20260906215534 | 83 | 231 | 5.0 | 12.0 | 0.00 | 0.00 | 0.00 | 28 | 1012.4 |
| 20260906215433 | 83 | 150 | 5.0 | 12.0 | 0.00 | 0.00 | 0.00 | 27 | 1012.3 |
| 20260906215333 | 83 | 210 | 5.0 | 12.0 | 0.00 | 0.00 | 0.00 | 27 | 1012.4 |
| 20260906215240 | 83 | 194 | 4.0 | 12.0 | 0.00 | 0.00 | 0.00 | 28 | 1012.4 |
| 20260906215224 | 83 | 209 | 4.0 | 12.0 | 0.00 | 0.00 | 0.00 | 28 | 1012.4 |
| 20260906215133 | 83 | 214 | 4.0 | 12.0 | 0.00 | 0.00 | 0.00 | 28 | 1012.4 |
| 20260906215034 | 83 | 346 | 3.0 | 11.0 | 0.00 | 0.00 | 0.00 | 27 | 1012.4 |
| 20260906214933 | 83 | 269 | 3.0 | 11.0 | 0.00 | 0.00 | 0.00 | 28 | 1012.4 |
| 20260906214833 | 83 | 269 | 4.0 | 11.0 | 0.00 | 0.00 | 0.00 | 27 | 1012.4 |
| 20260906214738 | 83 | 174 | 4.0 | 11.0 | 0.00 | 0.00 | 0.00 | 27 | 1012.4 |
| 20260906214724 | 83 | 143 | 4.0 | 11.0 | 0.00 | 0.00 | 0.00 | 27 | 1012.4 |
| 20260906214633 | 83 | 243 | 4.0 | 11.0 | 0.00 | 0.00 | 0.00 | 27 | 1012.4 |
| 20260906214533 | 83 | 245 | 4.0 | 10.0 | 0.00 | 0.00 | 0.00 | 28 | 1012.5 |
| 20260906214433 | 83 | 172 | 3.0 | 10.0 | 0.00 | 0.00 | 0.00 | 28 | 1012.5 |
| 20260906214333 | 82 | 212 | 4.0 | 10.0 | 0.00 | 0.00 | 0.00 | 29 | 1012.5 |
| 20260906214239 | 82 | 240 | 4.0 | 11.0 | 0.00 | 0.00 | 0.00 | 29 | 1012.5 |
| 20260906214224 | 82 | 238 | 4.0 | 11.0 | 0.00 | 0.00 | 0.00 | 29 | 1012.5 |
| 20260906214133 | 82 | 222 | 5.0 | 13.0 | 0.00 | 0.00 | 0.00 | 29 | 1012.5 |
| 20260906214034 | 82 | 211 | 5.0 | 13.0 | 0.00 | 0.00 | 0.00 | 28 | 1012.5 |
| 20260906213933 | 82 | 191 | 5.0 | 13.0 | 0.00 | 0.00 | 0.00 | 27 | 1012.5 |
| 20260906213833 | 82 | 232 | 5.0 | 13.0 | 0.00 | 0.00 | 0.00 | 28 | 1012.5 |
| 20260906213739 | 82 | 264 | 5.0 | 13.0 | 0.00 | 0.00 | 0.00 | 28 | 1012.5 |
| 20260906213725 | 82 | 262 | 5.0 | 13.0 | 0.00 | 0.00 | 0.00 | 28 | 1012.5 |
| 20260906213632 | 82 | 232 | 5.0 | 13.0 | 0.00 | 0.00 | 0.00 | 28 | 1012.5 |
| 20260906213531 | 82 | 269 | 4.0 | 13.0 | 0.00 | 0.00 | 0.00 | 29 | 1012.5 |
| 20260906213431 | 81 | 249 | 4.0 | 13.0 | 0.00 | 0.00 | 0.00 | 28 | 1012.5 |
| 20260906213331 | 82 | 221 | 4.0 | 13.0 | 0.00 | 0.00 | 0.00 | 28 | 1012.5 |
| 20260906213239 | 82 | 245 | 3.0 | 13.0 | 0.00 | 0.00 | 0.00 | 28 | 1012.5 |
| 20260906213224 | 82 | 217 | 3.0 | 13.0 | 0.00 | 0.00 | 0.00 | 28 | 1012.5 |
| 20260906213131 | 82 | 269 | 3.0 | 13.0 | 0.00 | 0.00 | 0.00 | 29 | 1012.5 |
| 20260906213031 | 82 | 248 | 4.0 | 13.0 | 0.00 | 0.00 | 0.00 | 29 | 1012.5 |
| 20260906212929 | 82 | 229 | 4.0 | 13.0 | 0.00 | 0.00 | 0.00 | 30 | 1012.5 |
| 20260906212830 | 82 | 188 | 4.0 | 13.0 | 0.00 | 0.00 | 0.00 | 30 | 1012.5 |
| 20260906212735 | 82 | 248 | 4.0 | 13.0 | 0.00 | 0.00 | 0.00 | 31 | 1012.5 |
| 20260906212718 | 82 | 247 | 4.0 | 13.0 | 0.00 | 0.00 | 0.00 | 31 | 1012.5 |
| 20260906212627 | 81 | 246 | 4.0 | 13.0 | 0.00 | 0.00 | 0.00 | 31 | 1012.5 |
| 20260906212527 | 81 | 226 | 5.0 | 13.0 | 0.00 | 0.00 | 0.00 | 31 | 1012.5 |
| 20260906212428 | 81 | 250 | 5.0 | 13.0 | 0.00 | 0.00 | 0.00 | 31 | 1012.5 |
| 20260906212328 | 81 | 257 | 5.0 | 13.0 | 0.00 | 0.00 | 0.00 | 31 | 1012.6 |
| 20260906212227 | 81 | 279 | 5.0 | 13.0 | 0.00 | 0.00 | 0.00 | 30 | 1012.5 |
| 20260906212216 | 81 | 288 | 5.0 | 13.0 | 0.00 | 0.00 | 0.00 | 30 | 1012.5 |
| 20260906212127 | 81 | 260 | 4.0 | 13.0 | 0.00 | 0.00 | 0.00 | 29 | 1012.6 |
| 20260906212028 | 82 | 252 | 3.0 | 13.0 | 0.00 | 0.00 | 0.00 | 29 | 1012.5 |
| 20260906211942 | 81 | 226 | 4.0 | 10.0 | 0.00 | 0.00 | 0.00 | 31 | 1012.6 |
| 20260906211927 | 82 | 253 | 3.0 | 12.0 | 0.00 | 0.00 | 0.00 | 30 | 1012.6 |
| 20260906211835 | 82 | 278 | 3.0 | 9.0 | 0.00 | 0.00 | 0.00 | 31 | 1012.5 |
| 20260906211827 | 81 | 240 | 4.0 | 9.0 | 0.00 | 0.00 | 0.00 | 31 | 1012.6 |
| 20260906211627 | 81 | 246 | 4.0 | 12.0 | 0.00 | 0.00 | 0.00 | 31 | 1012.6 |
| 20260906211527 | 81 | 256 | 4.0 | 12.0 | 0.00 | 0.00 | 0.00 | 31 | 1012.6 |
| 20260906211428 | 81 | 264 | 4.0 | 12.0 | 0.00 | 0.00 | 0.00 | 31 | 1012.6 |
| 20260906211327 | 81 | 225 | 4.0 | 12.0 | 0.00 | 0.00 | 0.00 | 31 | 1012.6 |
| 20260906211240 | 81 | 221 | 5.0 | 12.0 | 0.00 | 0.00 | 0.00 | 32 | 1012.6 |
| 20260906211227 | 81 | 263 | 5.0 | 12.0 | 0.00 | 0.00 | 0.00 | 32 | 1012.6 |
| 20260906211127 | 80 | 250 | 5.0 | 12.0 | 0.00 | 0.00 | 0.00 | 32 | 1012.6 |
| 20260906211027 | 80 | 217 | 5.0 | 12.0 | 0.00 | 0.00 | 0.00 | 31 | 1012.6 |
| 20260906210925 | 80 | 222 | 5.0 | 12.0 | 0.00 | 0.00 | 0.00 | 31 | 1012.7 |
| 20260906210826 | 80 | 245 | 5.0 | 12.0 | 0.00 | 0.00 | 0.00 | 31 | 1012.7 |
| 20260906210725 | 80 | 236 | 5.0 | 12.0 | 0.00 | 0.00 | 0.00 | 33 | 1012.7 |
| 20260906210714 | 80 | 233 | 5.0 | 12.0 | 0.00 | 0.00 | 0.00 | 33 | 1012.7 |
| 20260906210623 | 80 | 214 | 5.0 | 12.0 | 0.00 | 0.00 | 0.00 | 33 | 1012.7 |
| 20260906210523 | 80 | 252 | 6.0 | 12.0 | 0.00 | 0.00 | 0.00 | 33 | 1012.6 |
| 20260906210423 | 80 | 228 | 6.0 | 12.0 | 0.00 | 0.00 | 0.00 | 33 | 1012.6 |
| 20260906210324 | 80 | 262 | 5.0 | 12.0 | 0.00 | 0.00 | 0.00 | 33 | 1012.6 |
| 20260906210223 | 80 | 243 | 5.0 | 12.0 | 0.00 | 0.00 | 0.00 | 33 | 1012.7 |
| 20260906210212 | 80 | 233 | 5.0 | 12.0 | 0.00 | 0.00 | 0.00 | 33 | 1012.7 |
| 20260906210123 | 80 | 230 | 5.0 | 12.0 | 0.00 | 0.00 | 0.00 | 34 | 1012.7 |
| 20260906210019 | 80 | 225 | 5.0 | 12.0 | 0.00 | 0.00 | 0.00 | 33 | 1012.7 |
| 20260906205919 | 80 | 266 | 5.0 | 12.0 | 0.00 | 0.00 | 0.00 | 33 | 1012.7 |
| 20260906205820 | 81 | 218 | 5.0 | 12.0 | 0.00 | 0.00 | 0.00 | 32 | 1012.7 |
| 20260906205722 | 81 | 242 | 5.0 | 12.0 | 0.00 | 0.00 | 0.00 | 31 | 1012.7 |
| 20260906205712 | 81 | 226 | 5.0 | 12.0 | 0.00 | 0.00 | 0.00 | 31 | 1012.7 |
| 20260906205617 | 81 | 257 | 5.0 | 12.0 | 0.00 | 0.00 | 0.00 | 32 | 1012.7 |
| 20260906205518 | 81 | 188 | 4.0 | 11.0 | 0.00 | 0.00 | 0.00 | 34 | 1012.7 |
| 20260906205417 | 81 | 118 | 4.0 | 11.0 | 0.00 | 0.00 | 0.00 | 34 | 1012.6 |
| 20260906205318 | 81 | 170 | 4.0 | 11.0 | 0.00 | 0.00 | 0.00 | 34 | 1012.6 |
| 20260906205220 | 81 | 229 | 4.0 | 11.0 | 0.00 | 0.00 | 0.00 | 34 | 1012.7 |
| 20260906205210 | 81 | 225 | 4.0 | 11.0 | 0.00 | 0.00 | 0.00 | 34 | 1012.7 |
| 20260906205117 | 81 | 248 | 4.0 | 11.0 | 0.00 | 0.00 | 0.00 | 34 | 1012.7 |
| 20260906205017 | 80 | 201 | 4.0 | 11.0 | 0.00 | 0.00 | 0.00 | 33 | 1012.7 |
| 20260906204917 | 81 | 239 | 5.0 | 11.0 | 0.00 | 0.00 | 0.00 | 33 | 1012.7 |
| 20260906204818 | 81 | 217 | 5.0 | 14.0 | 0.00 | 0.00 | 0.00 | 33 | 1012.7 |
| 20260906204721 | 81 | 245 | 5.0 | 14.0 | 0.00 | 0.00 | 0.00 | 34 | 1012.7 |
| 20260906204711 | 81 | 163 | 5.0 | 14.0 | 0.00 | 0.00 | 0.00 | 34 | 1012.7 |
| 20260906204617 | 80 | 236 | 5.0 | 14.0 | 0.00 | 0.00 | 0.00 | 35 | 1012.7 |
| 20260906204515 | 80 | 230 | 5.0 | 14.0 | 0.00 | 0.00 | 0.00 | 35 | 1012.7 |
| 20260906204436 | 80 | 135 | 5.0 | 14.0 | 0.00 | 0.00 | 0.00 | 35 | 1012.7 |
| 20260906204415 | 80 | 203 | 5.0 | 14.0 | 0.00 | 0.00 | 0.00 | 35 | 1012.7 |
| 20260906204330 | 80 | 246 | 5.0 | 14.0 | 0.00 | 0.00 | 0.00 | 35 | 1012.7 |
| 20260906204322 | 80 | 149 | 5.0 | 14.0 | 0.00 | 0.00 | 0.00 | 35 | 1012.7 |
| 20260906204115 | 80 | 163 | 5.0 | 14.0 | 0.00 | 0.00 | 0.00 | 34 | 1012.7 |
| 20260906204015 | 80 | 236 | 5.0 | 14.0 | 0.00 | 0.00 | 0.00 | 34 | 1012.8 |
| 20260906203915 | 80 | 243 | 5.0 | 14.0 | 0.00 | 0.00 | 0.00 | 34 | 1012.8 |
| 20260906203816 | 80 | 201 | 5.0 | 13.0 | 0.00 | 0.00 | 0.00 | 35 | 1012.8 |
| 20260906203721 | 80 | 222 | 5.0 | 13.0 | 0.00 | 0.00 | 0.00 | 35 | 1012.7 |
| 20260906203711 | 80 | 231 | 5.0 | 13.0 | 0.00 | 0.00 | 0.00 | 35 | 1012.7 |
| 20260906203615 | 80 | 207 | 5.0 | 12.0 | 0.00 | 0.00 | 0.00 | 35 | 1012.7 |
| 20260906203516 | 80 | 247 | 5.0 | 12.0 | 0.00 | 0.00 | 0.00 | 36 | 1012.7 |
| 20260906203415 | 80 | 249 | 5.0 | 12.0 | 0.00 | 0.00 | 0.00 | 36 | 1012.8 |
| 20260906203316 | 80 | 219 | 5.0 | 12.0 | 0.00 | 0.00 | 0.00 | 37 | 1012.8 |
| 20260906203217 | 80 | 235 | 5.0 | 12.0 | 0.00 | 0.00 | 0.00 | 37 | 1012.8 |
| 20260906203206 | 80 | 246 | 5.0 | 12.0 | 0.00 | 0.00 | 0.00 | 37 | 1012.8 |
| 20260906203113 | 80 | 219 | 5.0 | 12.0 | 0.00 | 0.00 | 0.00 | 37 | 1012.8 |
| 20260906203013 | 80 | 224 | 5.0 | 12.0 | 0.00 | 0.00 | 0.00 | 36 | 1012.8 |
| 20260906202928 | 80 | 180 | 5.0 | 11.0 | 0.00 | 0.00 | 0.00 | 36 | 1012.8 |
| 20260906202913 | 80 | 224 | 5.0 | 12.0 | 0.00 | 0.00 | 0.00 | 36 | 1012.8 |
| 20260906202825 | 80 | 201 | 5.0 | 12.0 | 0.00 | 0.00 | 0.00 | 36 | 1012.8 |
| 20260906202817 | 80 | 160 | 5.0 | 11.0 | 0.00 | 0.00 | 0.00 | 36 | 1012.8 |
| 20260906202613 | 80 | 222 | 5.0 | 11.0 | 0.00 | 0.00 | 0.00 | 35 | 1012.8 |
| 20260906202513 | 80 | 245 | 5.0 | 11.0 | 0.00 | 0.00 | 0.00 | 36 | 1012.8 |
| 20260906202413 | 80 | 217 | 5.0 | 11.0 | 0.00 | 0.00 | 0.00 | 35 | 1012.7 |
| 20260906202313 | 80 | 121 | 5.0 | 11.0 | 0.00 | 0.00 | 0.00 | 35 | 1012.8 |
| 20260906202217 | 80 | 135 | 5.0 | 11.0 | 0.00 | 0.00 | 0.00 | 35 | 1012.9 |
| 20260906202207 | 80 | 208 | 5.0 | 11.0 | 0.00 | 0.00 | 0.00 | 35 | 1012.9 |
| 20260906202113 | 80 | 161 | 5.0 | 11.0 | 0.00 | 0.00 | 0.00 | 36 | 1012.9 |
| 20260906202013 | 80 | 98 | 5.0 | 12.0 | 0.00 | 0.00 | 0.00 | 35 | 1012.8 |
| 20260906201913 | 80 | 47 | 5.0 | 12.0 | 0.00 | 0.00 | 0.00 | 37 | 1012.9 |
| 20260906201814 | 80 | 142 | 5.0 | 12.0 | 0.00 | 0.00 | 0.00 | 37 | 1012.9 |
| 20260906201717 | 80 | 228 | 5.0 | 12.0 | 0.00 | 0.00 | 0.00 | 37 | 1012.9 |
| 20260906201707 | 80 | 245 | 5.0 | 12.0 | 0.00 | 0.00 | 0.00 | 37 | 1012.9 |
| 20260906201611 | 79 | 250 | 5.0 | 12.0 | 0.00 | 0.00 | 0.00 | 37 | 1012.9 |
| 20260906201511 | 79 | 105 | 4.0 | 12.0 | 0.00 | 0.00 | 0.00 | 38 | 1012.9 |
| 20260906201433 | 79 | 235 | 4.0 | 12.0 | 0.00 | 0.00 | 0.00 | 37 | 1012.9 |
| 20260906201411 | 79 | 143 | 4.0 | 12.0 | 0.00 | 0.00 | 0.00 | 39 | 1012.9 |
| 20260906201326 | 79 | 250 | 5.0 | 12.0 | 0.00 | 0.00 | 0.00 | 38 | 1012.9 |
| 20260906201317 | 79 | 238 | 4.0 | 12.0 | 0.00 | 0.00 | 0.00 | 37 | 1012.9 |
| 20260906201110 | 80 | 242 | 4.0 | 12.0 | 0.00 | 0.00 | 0.00 | 37 | 1012.9 |
| 20260906201011 | 80 | 162 | 4.0 | 9.0 | 0.00 | 0.00 | 0.00 | 36 | 1012.9 |
| 20260906200911 | 80 | 204 | 3.0 | 9.0 | 0.00 | 0.00 | 0.00 | 36 | 1012.9 |
| 20260906200812 | 80 | 119 | 3.0 | 9.0 | 0.00 | 0.00 | 0.00 | 37 | 1012.9 |
| 20260906200716 | 80 | 72 | 3.0 | 9.0 | 0.00 | 0.00 | 0.00 | 36 | 1013.0 |
| 20260906200706 | 80 | 128 | 3.0 | 9.0 | 0.00 | 0.00 | 0.00 | 36 | 1013.0 |
| 20260906200611 | 80 | 218 | 3.0 | 8.0 | 0.00 | 0.00 | 0.00 | 37 | 1013.0 |
| 20260906200511 | 79 | 146 | 3.0 | 8.0 | 0.00 | 0.00 | 0.00 | 38 | 1013.0 |
| 20260906200411 | 79 | 160 | 3.0 | 8.0 | 0.00 | 0.00 | 0.00 | 38 | 1013.0 |
| 20260906200311 | 79 | 231 | 3.0 | 8.0 | 0.00 | 0.00 | 0.00 | 38 | 1013.0 |
| 20260906200206 | 79 | 197 | 3.0 | 7.0 | 0.00 | 0.00 | 0.00 | 40 | 1013.0 |
| 20260906200111 | 79 | 98 | 3.0 | 9.0 | 0.00 | 0.00 | 0.00 | 39 | 1013.1 |
| 20260906200011 | 79 | 214 | 4.0 | 12.0 | 0.00 | 0.00 | 0.00 | 40 | 1013.1 |
| 20260906195911 | 78 | 208 | 4.0 | 12.0 | 0.00 | 0.00 | 0.00 | 39 | 1013.1 |
| 20260906195813 | 78 | 204 | 4.0 | 12.0 | 0.00 | 0.00 | 0.00 | 39 | 1013.1 |
| 20260906195714 | 78 | 233 | 4.0 | 12.0 | 0.00 | 0.00 | 0.00 | 39 | 1013.1 |
| 20260906195704 | 78 | 211 | 4.0 | 12.0 | 0.00 | 0.00 | 0.00 | 39 | 1013.1 |
| 20260906195609 | 78 | 232 | 4.0 | 12.0 | 0.00 | 0.00 | 0.00 | 39 | 1013.1 |
| 20260906195509 | 78 | 304 | 4.0 | 12.0 | 0.00 | 0.00 | 0.00 | 39 | 1013.2 |
| 20260906195409 | 77 | 208 | 5.0 | 12.0 | 0.00 | 0.00 | 0.00 | 37 | 1013.2 |
| 20260906195310 | 77 | 181 | 5.0 | 12.0 | 0.00 | 0.00 | 0.00 | 37 | 1013.2 |
| 20260906195214 | 78 | 248 | 5.0 | 12.0 | 0.00 | 0.00 | 0.00 | 36 | 1013.2 |
| 20260906195204 | 78 | 256 | 5.0 | 12.0 | 0.00 | 0.00 | 0.00 | 36 | 1013.2 |
| 20260906195110 | 78 | 300 | 5.0 | 12.0 | 0.00 | 0.00 | 0.00 | 36 | 1013.2 |
| 20260906195010 | 78 | 243 | 5.0 | 11.0 | 0.00 | 0.00 | 0.00 | 36 | 1013.2 |
| 20260906194909 | 78 | 128 | 4.0 | 11.0 | 0.00 | 0.00 | 0.00 | 38 | 1013.2 |
| 20260906194810 | 78 | 153 | 5.0 | 11.0 | 0.00 | 0.00 | 0.00 | 39 | 1013.1 |
| 20260906194708 | 77 | 160 | 5.0 | 11.0 | 0.00 | 0.00 | 0.00 | 39 | 1013.2 |
| 20260906194605 | 77 | 203 | 4.0 | 11.0 | 0.00 | 0.00 | 0.00 | 39 | 1013.2 |
| 20260906194505 | 77 | 188 | 4.0 | 11.0 | 0.00 | 0.00 | 0.00 | 40 | 1013.2 |
| 20260906194405 | 78 | 246 | 4.0 | 11.0 | 0.00 | 0.00 | 0.00 | 39 | 1013.2 |
| 20260906194306 | 78 | 238 | 4.0 | 11.0 | 0.00 | 0.00 | 0.00 | 38 | 1013.2 |
| 20260906194206 | 78 | 132 | 4.0 | 11.0 | 0.00 | 0.00 | 0.00 | 39 | 1013.3 |
| 20260906194101 | 78 | 236 | 4.0 | 9.0 | 0.00 | 0.00 | 0.00 | 38 | 1013.3 |
| 20260906194001 | 78 | 304 | 3.0 | 9.0 | 0.00 | 0.00 | 0.00 | 41 | 1013.3 |
| 20260906193901 | 78 | 330 | 3.0 | 9.0 | 0.00 | 0.00 | 0.00 | 43 | 1013.3 |
| 20260906193802 | 78 | 208 | 3.0 | 8.0 | 0.00 | 0.00 | 0.00 | 42 | 1013.3 |
| 20260906193707 | 78 | 228 | 3.0 | 8.0 | 0.00 | 0.00 | 0.00 | 43 | 1013.3 |
| 20260906193701 | 78 | 217 | 3.0 | 8.0 | 0.00 | 0.00 | 0.00 | 43 | 1013.3 |
| 20260906193602 | 78 | 216 | 2.0 | 7.0 | 0.00 | 0.00 | 0.00 | 43 | 1013.4 |
| 20260906193459 | 78 | 237 | 2.0 | 6.0 | 0.00 | 0.00 | 0.00 | 43 | 1013.4 |
| 20260906193359 | 78 | 144 | 2.0 | 6.0 | 0.00 | 0.00 | 0.00 | 43 | 1013.4 |
| 20260906193301 | 78 | 146 | 2.0 | 6.0 | 0.00 | 0.00 | 0.00 | 43 | 1013.4 |
| 20260906193204 | 78 | 225 | 3.0 | 6.0 | 0.00 | 0.00 | 0.00 | 43 | 1013.4 |
| 20260906193159 | 78 | 218 | 3.0 | 6.0 | 0.00 | 0.00 | 0.00 | 43 | 1013.4 |
| 20260906193059 | 78 | 219 | 3.0 | 7.0 | 0.00 | 0.00 | 0.00 | 44 | 1013.4 |
| 20260906192959 | 78 | 257 | 4.0 | 11.0 | 0.00 | 0.00 | 0.00 | 44 | 1013.4 |
| 20260906192853 | 78 | 238 | 4.0 | 11.0 | 0.00 | 0.00 | 0.00 | 44 | 1013.5 |
| 20260906192754 | 77 | 226 | 4.0 | 11.0 | 0.00 | 0.00 | 0.00 | 44 | 1013.4 |
| 20260906192702 | 77 | 214 | 4.0 | 11.0 | 0.00 | 0.00 | 0.00 | 43 | 1013.5 |
| 20260906192657 | 77 | 262 | 4.0 | 11.0 | 0.00 | 0.00 | 0.00 | 43 | 1013.5 |
| 20260906192648 | 77 | 231 | 4.0 | 11.0 | 0.00 | 0.00 | 0.00 | 45 | 1013.5 |
| 20260906192553 | 77 | 122 | 4.0 | 11.0 | 0.00 | 0.00 | 0.00 | 44 | 1013.5 |
| 20260906192534 | 77 | 200 | 4.0 | 11.0 | 0.00 | 0.00 | 0.00 | 44 | 1013.4 |
| 20260906192353 | 77 | 218 | 4.0 | 11.0 | 0.00 | 0.00 | 0.00 | 45 | 1013.4 |
| 20260906192313 | 77 | 135 | 4.0 | 11.0 | 0.00 | 0.00 | 0.00 | 45 | 1013.5 |
| 20260906192153 | 77 | 233 | 4.0 | 11.0 | 0.00 | 0.00 | 0.00 | 45 | 1013.5 |
| 20260906192053 | 77 | 191 | 3.0 | 11.0 | 0.00 | 0.00 | 0.00 | 43 | 1013.5 |
| 20260906191953 | 77 | 257 | 3.0 | 11.0 | 0.00 | 0.00 | 0.00 | 43 | 1013.5 |
| 20260906191853 | 77 | 126 | 3.0 | 11.0 | 0.00 | 0.00 | 0.00 | 42 | 1013.4 |
| 20260906191755 | 77 | 139 | 3.0 | 11.0 | 0.00 | 0.00 | 0.00 | 44 | 1013.5 |
| 20260906191702 | 77 | 131 | 3.0 | 11.0 | 0.00 | 0.00 | 0.00 | 47 | 1013.5 |
| 20260906191649 | 77 | 165 | 3.0 | 11.0 | 0.00 | 0.00 | 0.00 | 47 | 1013.5 |
| 20260906191550 | 76 | 232 | 3.0 | 11.0 | 0.00 | 0.00 | 0.00 | 47 | 1013.5 |
| 20260906191449 | 76 | 278 | 3.0 | 11.0 | 0.00 | 0.00 | 0.00 | 47 | 1013.5 |
| 20260906191349 | 76 | 273 | 4.0 | 11.0 | 0.00 | 0.00 | 0.00 | 47 | 1013.5 |
| 20260906191249 | 76 | 194 | 4.0 | 9.0 | 0.00 | 0.00 | 0.00 | 46 | 1013.5 |
| 20260906191202 | 75 | 124 | 4.0 | 9.0 | 0.00 | 0.00 | 0.00 | 46 | 1013.5 |
| 20260906191133 | 75 | 131 | 4.0 | 9.0 | 0.00 | 0.00 | 0.00 | 46 | 1013.5 |
| 20260906191033 | 75 | 233 | 4.0 | 9.0 | 0.00 | 0.00 | 0.00 | 46 | 1013.6 |
| 20260906190933 | 75 | 233 | 5.0 | 9.0 | 0.00 | 0.00 | 0.00 | 44 | 1013.6 |
| 20260906190834 | 75 | 212 | 5.0 | 9.0 | 0.00 | 0.00 | 0.00 | 44 | 1013.6 |
| 20260906190736 | 75 | 215 | 5.0 | 9.0 | 0.00 | 0.00 | 0.00 | 45 | 1013.6 |
| 20260906190702 | 75 | 263 | 4.0 | 9.0 | 0.00 | 0.00 | 0.00 | 45 | 1013.6 |
| 20260906190633 | 75 | 221 | 4.0 | 9.0 | 0.00 | 0.00 | 0.00 | 45 | 1013.6 |
| 20260906190533 | 75 | 240 | 4.0 | 9.0 | 0.00 | 0.00 | 0.00 | 45 | 1013.6 |
| 20260906190433 | 75 | 228 | 4.0 | 9.0 | 0.00 | 0.00 | 0.00 | 43 | 1013.6 |
| 20260906190333 | 75 | 229 | 4.0 | 9.0 | 0.00 | 0.00 | 0.00 | 43 | 1013.6 |
| 20260906190237 | 75 | 193 | 4.0 | 10.0 | 0.00 | 0.00 | 0.00 | 42 | 1013.6 |
| 20260906190214 | 75 | 240 | 3.0 | 10.0 | 0.00 | 0.00 | 0.00 | 43 | 1013.6 |
| 20260906190133 | 76 | 240 | 3.0 | 10.0 | 0.00 | 0.00 | 0.00 | 43 | 1013.6 |
| 20260906190033 | 76 | 250 | 3.0 | 10.0 | 0.00 | 0.00 | 0.00 | 43 | 1013.6 |
| 20260906185933 | 76 | 243 | 3.0 | 10.0 | 0.00 | 0.00 | 0.00 | 45 | 1013.6 |
| 20260906185832 | 76 | 221 | 3.0 | 10.0 | 0.00 | 0.00 | 0.00 | 47 | 1013.6 |
| 20260906185736 | 76 | 233 | 3.0 | 10.0 | 0.00 | 0.00 | 0.00 | 49 | 1013.6 |
| 20260906185702 | 76 | 139 | 3.0 | 10.0 | 0.00 | 0.00 | 0.00 | 49 | 1013.6 |
| 20260906185633 | 75 | 140 | 3.0 | 10.0 | 0.00 | 0.00 | 0.00 | 51 | 1013.6 |
| 20260906185533 | 75 | 168 | 3.0 | 10.0 | 0.00 | 0.00 | 0.00 | 49 | 1013.6 |
| 20260906185433 | 75 | 228 | 3.0 | 10.0 | 0.00 | 0.00 | 0.00 | 48 | 1013.6 |
| 20260906185331 | 75 | 238 | 3.0 | 10.0 | 0.00 | 0.00 | 0.00 | 48 | 1013.5 |
| 20260906185236 | 75 | 231 | 3.0 | 8.0 | 0.00 | 0.00 | 0.00 | 48 | 1013.5 |
| 20260906185157 | 75 | 246 | 2.0 | 8.0 | 0.00 | 0.00 | 0.00 | 48 | 1013.5 |
| 20260906185131 | 75 | 210 | 2.0 | 7.0 | 0.00 | 0.00 | 0.00 | 48 | 1013.5 |
| 20260906185029 | 75 | 235 | 3.0 | 8.0 | 0.00 | 0.00 | 0.00 | 49 | 1013.6 |
| 20260906184929 | 75 | 260 | 3.0 | 8.0 | 0.00 | 0.00 | 0.00 | 48 | 1013.6 |
| 20260906184829 | 75 | 185 | 3.0 | 8.0 | 0.00 | 0.00 | 0.00 | 48 | 1013.6 |
| 20260906184725 | 75 | 204 | 3.0 | 8.0 | 0.00 | 0.00 | 0.00 | 48 | 1013.6 |
| 20260906184656 | 75 | 242 | 3.0 | 8.0 | 0.00 | 0.00 | 0.00 | 48 | 1013.6 |
| 20260906184624 | 75 | 248 | 3.0 | 8.0 | 0.00 | 0.00 | 0.00 | 47 | 1013.6 |
| 20260906184523 | 75 | 271 | 3.0 | 8.0 | 0.00 | 0.00 | 0.00 | 49 | 1013.6 |
| 20260906184423 | 74 | 260 | 3.0 | 8.0 | 0.00 | 0.00 | 0.00 | 49 | 1013.7 |
| 20260906184324 | 74 | 253 | 3.0 | 8.0 | 0.00 | 0.00 | 0.00 | 49 | 1013.6 |
| 20260906184223 | 74 | 218 | 3.0 | 8.0 | 0.00 | 0.00 | 0.00 | 47 | 1013.7 |
| 20260906184157 | 74 | 229 | 3.0 | 8.0 | 0.00 | 0.00 | 0.00 | 47 | 1013.7 |
| 20260906184123 | 74 | 246 | 3.0 | 8.0 | 0.00 | 0.00 | 0.00 | 47 | 1013.7 |
| 20260906184023 | 74 | 221 | 3.0 | 8.0 | 0.00 | 0.00 | 0.00 | 48 | 1013.7 |
| 20260906183923 | 75 | 194 | 3.0 | 8.0 | 0.00 | 0.00 | 0.00 | 49 | 1013.8 |
| 20260906183823 | 74 | 156 | 3.0 | 8.0 | 0.00 | 0.00 | 0.00 | 49 | 1013.7 |
| 20260906183723 | 74 | 216 | 3.0 | 9.0 | 0.00 | 0.00 | 0.00 | 50 | 1013.7 |
| 20260906183656 | 74 | 235 | 3.0 | 9.0 | 0.00 | 0.00 | 0.00 | 50 | 1013.7 |
| 20260906183623 | 74 | 231 | 3.0 | 9.0 | 0.00 | 0.00 | 0.00 | 52 | 1013.7 |
| 20260906183519 | 74 | 223 | 3.0 | 9.0 | 0.00 | 0.00 | 0.00 | 53 | 1013.7 |
| 20260906183419 | 74 | 249 | 4.0 | 9.0 | 0.00 | 0.00 | 0.00 | 52 | 1013.7 |
| 20260906183321 | 73 | 210 | 4.0 | 9.0 | 0.00 | 0.00 | 0.00 | 52 | 1013.7 |
| 20260906183219 | 73 | 266 | 4.0 | 9.0 | 0.00 | 0.00 | 0.00 | 52 | 1013.7 |
| 20260906183157 | 73 | 217 | 4.0 | 9.0 | 0.00 | 0.00 | 0.00 | 52 | 1013.8 |
| 20260906183120 | 73 | 245 | 4.0 | 9.0 | 0.00 | 0.00 | 0.00 | 52 | 1013.8 |
| 20260906183019 | 73 | 219 | 5.0 | 10.0 | 0.00 | 0.00 | 0.00 | 53 | 1013.8 |
| 20260906182919 | 73 | 264 | 4.0 | 10.0 | 0.00 | 0.00 | 0.00 | 53 | 1013.8 |
| 20260906182819 | 73 | 129 | 4.0 | 10.0 | 0.00 | 0.00 | 0.00 | 53 | 1013.8 |
| 20260906182719 | 73 | 243 | 4.0 | 10.0 | 0.00 | 0.00 | 0.00 | 53 | 1013.8 |
| 20260906182656 | 73 | 224 | 4.0 | 10.0 | 0.00 | 0.00 | 0.00 | 53 | 1013.8 |
| 20260906182619 | 73 | 243 | 4.0 | 10.0 | 0.00 | 0.00 | 0.00 | 53 | 1013.8 |
| 20260906182520 | 73 | 232 | 4.0 | 10.0 | 0.00 | 0.00 | 0.00 | 53 | 1013.8 |
| 20260906182419 | 73 | 248 | 4.0 | 10.0 | 0.00 | 0.00 | 0.00 | 52 | 1013.8 |
| 20260906182319 | 73 | 233 | 4.0 | 10.0 | 0.00 | 0.00 | 0.00 | 53 | 1013.8 |
| 20260906182219 | 73 | 218 | 4.0 | 10.0 | 0.00 | 0.00 | 0.00 | 53 | 1013.8 |
| 20260906182157 | 73 | 240 | 4.0 | 10.0 | 0.00 | 0.00 | 0.00 | 53 | 1013.8 |
| 20260906182119 | 73 | 246 | 4.0 | 10.0 | 0.00 | 0.00 | 0.00 | 52 | 1013.8 |
| 20260906182019 | 73 | 277 | 4.0 | 8.0 | 0.00 | 0.00 | 0.00 | 54 | 1013.8 |
| 20260906181919 | 73 | 216 | 4.0 | 8.0 | 0.00 | 0.00 | 0.00 | 53 | 1013.9 |
| 20260906181818 | 73 | 201 | 4.0 | 8.0 | 0.00 | 0.00 | 0.00 | 54 | 1013.8 |
| 20260906181719 | 73 | 238 | 4.0 | 8.0 | 0.00 | 0.00 | 0.00 | 53 | 1013.8 |
| 20260906181656 | 72 | 239 | 4.0 | 8.0 | 0.00 | 0.00 | 0.00 | 53 | 1013.8 |
| 20260906181618 | 72 | 221 | 4.0 | 8.0 | 0.00 | 0.00 | 0.00 | 53 | 1013.8 |
| 20260906181517 | 73 | 219 | 5.0 | 8.0 | 0.00 | 0.00 | 0.00 | 54 | 1013.8 |
| 20260906181417 | 73 | 207 | 4.0 | 8.0 | 0.00 | 0.00 | 0.00 | 54 | 1013.8 |
| 20260906181318 | 73 | 227 | 4.0 | 8.0 | 0.00 | 0.00 | 0.00 | 54 | 1013.9 |
| 20260906181217 | 73 | 200 | 3.0 | 8.0 | 0.00 | 0.00 | 0.00 | 55 | 1013.9 |
| 20260906181156 | 73 | 193 | 3.0 | 8.0 | 0.00 | 0.00 | 0.00 | 55 | 1013.9 |
| 20260906181117 | 73 | 220 | 3.0 | 8.0 | 0.00 | 0.00 | 0.00 | 56 | 1013.9 |
| 20260906181017 | 72 | 271 | 3.0 | 8.0 | 0.00 | 0.00 | 0.00 | 56 | 1013.9 |
| 20260906180915 | 73 | 215 | 3.0 | 8.0 | 0.00 | 0.00 | 0.00 | 55 | 1013.9 |
| 20260906180815 | 73 | 246 | 3.0 | 8.0 | 0.00 | 0.00 | 0.00 | 55 | 1013.9 |
| 20260906180715 | 73 | 195 | 2.0 | 7.0 | 0.00 | 0.00 | 0.00 | 54 | 1014.0 |
| 20260906180656 | 73 | 215 | 2.0 | 7.0 | 0.00 | 0.00 | 0.00 | 54 | 1014.0 |
| 20260906180615 | 73 | 257 | 2.0 | 7.0 | 0.00 | 0.00 | 0.00 | 56 | 1013.9 |
| 20260906180515 | 73 | 214 | 2.0 | 7.0 | 0.00 | 0.00 | 0.00 | 56 | 1014.0 |
| 20260906180413 | 73 | 240 | 2.0 | 9.0 | 0.00 | 0.00 | 0.00 | 57 | 1014.0 |
| 20260906180313 | 73 | 240 | 2.0 | 9.0 | 0.00 | 0.00 | 0.00 | 57 | 1014.0 |
| 20260906180213 | 73 | 240 | 2.0 | 9.0 | 0.00 | 0.00 | 0.00 | 56 | 1014.0 |
| 20260906180150 | 73 | 257 | 2.0 | 9.0 | 0.00 | 0.00 | 0.00 | 56 | 1014.0 |
| 20260906180113 | 72 | 219 | 2.0 | 9.0 | 0.00 | 0.00 | 0.00 | 56 | 1014.0 |
| 20260906180014 | 72 | 242 | 2.0 | 9.0 | 0.00 | 0.00 | 0.00 | 56 | 1014.0 |
| 20260906175915 | 72 | 197 | 2.0 | 9.0 | 0.00 | 0.00 | 0.00 | 56 | 1013.9 |
| 20260906175906 | 72 | 235 | 3.0 | 9.0 | 0.00 | 0.00 | 0.00 | 57 | 1013.9 |
| 20260906175813 | 72 | 270 | 2.0 | 9.0 | 0.00 | 0.00 | 0.00 | 56 | 1014.0 |
| 20260906175758 | 72 | 263 | 3.0 | 9.0 | 0.00 | 0.00 | 0.00 | 57 | 1013.9 |
| 20260906175614 | 72 | 256 | 3.0 | 9.0 | 0.00 | 0.00 | 0.00 | 57 | 1013.9 |
| 20260906175513 | 71 | 245 | 3.0 | 9.0 | 0.00 | 0.00 | 0.00 | 58 | 1013.9 |
| 20260906175413 | 71 | 298 | 3.0 | 8.0 | 0.00 | 0.00 | 0.00 | 59 | 1013.9 |
| 20260906175314 | 71 | 138 | 3.0 | 8.0 | 0.00 | 0.00 | 0.00 | 58 | 1014.0 |
| 20260906175209 | 71 | 139 | 3.0 | 8.0 | 0.00 | 0.00 | 0.00 | 59 | 1014.0 |
| 20260906175146 | 71 | 139 | 3.0 | 8.0 | 0.00 | 0.00 | 0.00 | 58 | 1014.0 |
| 20260906175109 | 71 | 248 | 3.0 | 8.0 | 0.00 | 0.00 | 0.00 | 58 | 1014.0 |
| 20260906175009 | 71 | 230 | 3.0 | 8.0 | 0.00 | 0.00 | 0.00 | 58 | 1014.0 |
| 20260906174909 | 71 | 222 | 4.0 | 8.0 | 0.00 | 0.00 | 0.00 | 59 | 1014.0 |
| 20260906174809 | 71 | 108 | 4.0 | 10.0 | 0.00 | 0.00 | 0.00 | 58 | 1014.1 |
| 20260906174709 | 71 | 218 | 4.0 | 10.0 | 0.00 | 0.00 | 0.00 | 58 | 1014.1 |
| 20260906174646 | 71 | 217 | 4.0 | 10.0 | 0.00 | 0.00 | 0.00 | 57 | 1014.1 |
| 20260906174607 | 71 | 216 | 4.0 | 10.0 | 0.00 | 0.00 | 0.00 | 57 | 1014.1 |
| 20260906174507 | 71 | 186 | 4.0 | 10.0 | 0.00 | 0.00 | 0.00 | 59 | 1014.0 |
| 20260906174407 | 71 | 219 | 4.0 | 10.0 | 0.00 | 0.00 | 0.00 | 60 | 1014.1 |
| 20260906174307 | 70 | 186 | 3.0 | 10.0 | 0.00 | 0.00 | 0.00 | 61 | 1014.0 |
| 20260906174207 | 70 | 214 | 3.0 | 10.0 | 0.00 | 0.00 | 0.00 | 61 | 1014.0 |
| 20260906174147 | 70 | 238 | 3.0 | 10.0 | 0.00 | 0.00 | 0.00 | 61 | 1014.0 |
| 20260906174107 | 70 | 188 | 3.0 | 10.0 | 0.00 | 0.00 | 0.00 | 61 | 1014.0 |
| 20260906174001 | 70 | 259 | 3.0 | 10.0 | 0.00 | 0.00 | 0.00 | 60 | 1014.1 |
| 20260906173901 | 70 | 257 | 3.0 | 10.0 | 0.00 | 0.00 | 0.00 | 60 | 1014.0 |
| 20260906173800 | 70 | 236 | 3.0 | 10.0 | 0.00 | 0.00 | 0.00 | 60 | 1014.1 |
| 20260906173702 | 70 | 231 | 3.0 | 8.0 | 0.00 | 0.00 | 0.00 | 60 | 1014.1 |
| 20260906173646 | 70 | 245 | 3.0 | 8.0 | 0.00 | 0.00 | 0.00 | 60 | 1014.1 |
| 20260906173602 | 70 | 224 | 2.0 | 9.0 | 0.00 | 0.00 | 0.00 | 60 | 1014.1 |
| 20260906173501 | 70 | 222 | 2.0 | 9.0 | 0.00 | 0.00 | 0.00 | 61 | 1014.0 |
| 20260906173401 | 70 | 246 | 2.0 | 9.0 | 0.00 | 0.00 | 0.00 | 61 | 1014.1 |
| 20260906173302 | 70 | 216 | 2.0 | 9.0 | 0.00 | 0.00 | 0.00 | 62 | 1014.1 |
| 20260906173201 | 70 | 250 | 2.0 | 9.0 | 0.00 | 0.00 | 0.00 | 62 | 1014.1 |
| 20260906173144 | 69 | 250 | 2.0 | 9.0 | 0.00 | 0.00 | 0.00 | 62 | 1014.1 |
| 20260906173101 | 69 | 226 | 3.0 | 9.0 | 0.00 | 0.00 | 0.00 | 62 | 1014.1 |
| 20260906173002 | 69 | 226 | 3.0 | 9.0 | 0.00 | 0.00 | 0.00 | 62 | 1014.1 |
| 20260906172901 | 69 | 222 | 3.0 | 9.0 | 0.00 | 0.00 | 0.00 | 61 | 1014.1 |
| 20260906172801 | 69 | 208 | 3.0 | 9.0 | 0.00 | 0.00 | 0.00 | 61 | 1014.1 |
| 20260906172701 | 69 | 237 | 2.0 | 9.0 | 0.00 | 0.00 | 0.00 | 61 | 1014.2 |
| 20260906172644 | 69 | 242 | 2.0 | 9.0 | 0.00 | 0.00 | 0.00 | 61 | 1014.2 |
| 20260906172601 | 69 | 214 | 2.0 | 8.0 | 0.00 | 0.00 | 0.00 | 62 | 1014.1 |
| 20260906172501 | 69 | 235 | 2.0 | 8.0 | 0.00 | 0.00 | 0.00 | 62 | 1014.1 |
| 20260906172401 | 69 | 194 | 3.0 | 8.0 | 0.00 | 0.00 | 0.00 | 63 | 1014.1 |
| 20260906172305 | 69 | 236 | 3.0 | 8.0 | 0.00 | 0.00 | 0.00 | 63 | 1014.1 |
| 20260906172201 | 69 | 236 | 3.0 | 8.0 | 0.00 | 0.00 | 0.00 | 63 | 1014.1 |
| 20260906172145 | 69 | 240 | 3.0 | 8.0 | 0.00 | 0.00 | 0.00 | 63 | 1014.1 |
| 20260906172102 | 69 | 241 | 4.0 | 10.0 | 0.00 | 0.00 | 0.00 | 63 | 1014.1 |
| 20260906172002 | 68 | 239 | 4.0 | 10.0 | 0.00 | 0.00 | 0.00 | 64 | 1014.1 |
| 20260906171901 | 68 | 203 | 4.0 | 10.0 | 0.00 | 0.00 | 0.00 | 64 | 1014.1 |
| 20260906171801 | 68 | 207 | 4.0 | 10.0 | 0.00 | 0.00 | 0.00 | 64 | 1014.2 |
| 20260906171701 | 68 | 180 | 4.0 | 10.0 | 0.00 | 0.00 | 0.00 | 64 | 1014.2 |
| 20260906171645 | 68 | 179 | 4.0 | 10.0 | 0.00 | 0.00 | 0.00 | 64 | 1014.2 |
| 20260906171601 | 68 | 197 | 4.0 | 10.0 | 0.00 | 0.00 | 0.00 | 64 | 1014.2 |
| 20260906171501 | 68 | 135 | 3.0 | 10.0 | 0.00 | 0.00 | 0.00 | 64 | 1014.1 |
| 20260906171402 | 68 | 240 | 3.0 | 10.0 | 0.00 | 0.00 | 0.00 | 64 | 1014.1 |
| 20260906171302 | 68 | 237 | 3.0 | 10.0 | 0.00 | 0.00 | 0.00 | 64 | 1014.1 |
| 20260906171202 | 68 | 233 | 3.0 | 10.0 | 0.00 | 0.00 | 0.00 | 64 | 1014.1 |
| 20260906171144 | 68 | 219 | 3.0 | 10.0 | 0.00 | 0.00 | 0.00 | 64 | 1014.1 |
| 20260906171102 | 68 | 280 | 3.0 | 9.0 | 0.00 | 0.00 | 0.00 | 64 | 1014.1 |
| 20260906171001 | 68 | 214 | 2.0 | 9.0 | 0.00 | 0.00 | 0.00 | 65 | 1014.1 |
| 20260906170857 | 68 | 214 | 2.0 | 8.0 | 0.00 | 0.00 | 0.00 | 66 | 1014.0 |
| 20260906170757 | 68 | 136 | 2.0 | 8.0 | 0.00 | 0.00 | 0.00 | 66 | 1014.0 |
| 20260906170657 | 68 | 246 | 2.0 | 8.0 | 0.00 | 0.00 | 0.00 | 67 | 1014.0 |
| 20260906170644 | 68 | 215 | 2.0 | 8.0 | 0.00 | 0.00 | 0.00 | 67 | 1014.0 |
| 20260906170557 | 67 | 217 | 2.0 | 8.0 | 0.00 | 0.00 | 0.00 | 67 | 1014.1 |
| 20260906170457 | 67 | 217 | 3.0 | 8.0 | 0.00 | 0.00 | 0.00 | 67 | 1014.1 |
| 20260906170409 | 67 | 207 | 2.0 | 8.0 | 0.00 | 0.00 | 0.00 | 67 | 1014.1 |
| 20260906170357 | 67 | 160 | 3.0 | 8.0 | 0.00 | 0.00 | 0.00 | 66 | 1014.1 |
| 20260906170304 | 67 | 239 | 2.0 | 8.0 | 0.00 | 0.00 | 0.00 | 66 | 1014.1 |
| 20260906170256 | 67 | 162 | 2.0 | 8.0 | 0.00 | 0.00 | 0.00 | 67 | 1014.1 |
| 20260906170057 | 67 | 207 | 2.0 | 8.0 | 0.00 | 0.00 | 0.00 | 68 | 1014.1 |
| 20260906165957 | 67 | 136 | 3.0 | 8.0 | 0.00 | 0.00 | 0.00 | 68 | 1014.1 |
| 20260906165857 | 67 | 210 | 3.0 | 8.0 | 0.00 | 0.00 | 0.00 | 67 | 1014.1 |
| 20260906165757 | 67 | 214 | 3.0 | 8.0 | 0.00 | 0.00 | 0.00 | 68 | 1014.1 |
| 20260906165657 | 67 | 208 | 3.0 | 8.0 | 0.00 | 0.00 | 0.00 | 67 | 1014.2 |
| 20260906165645 | 67 | 224 | 3.0 | 8.0 | 0.00 | 0.00 | 0.00 | 67 | 1014.2 |
| 20260906165558 | 67 | 231 | 3.0 | 8.0 | 0.00 | 0.00 | 0.00 | 67 | 1014.1 |
| 20260906165458 | 67 | 237 | 3.0 | 8.0 | 0.00 | 0.00 | 0.00 | 67 | 1014.2 |
| 20260906165357 | 67 | 233 | 3.0 | 7.0 | 0.00 | 0.00 | 0.00 | 68 | 1014.2 |
| 20260906165257 | 67 | 158 | 3.0 | 9.0 | 0.00 | 0.00 | 0.00 | 68 | 1014.1 |
| 20260906165157 | 67 | 240 | 3.0 | 9.0 | 0.00 | 0.00 | 0.00 | 68 | 1014.2 |
| 20260906165145 | 67 | 232 | 3.0 | 9.0 | 0.00 | 0.00 | 0.00 | 68 | 1014.2 |
| 20260906165057 | 67 | 181 | 3.0 | 9.0 | 0.00 | 0.00 | 0.00 | 68 | 1014.1 |
| 20260906164955 | 66 | 307 | 3.0 | 9.0 | 0.00 | 0.00 | 0.00 | 68 | 1014.1 |
| 20260906164855 | 66 | 197 | 3.0 | 9.0 | 0.00 | 0.00 | 0.00 | 69 | 1014.1 |
| 20260906164756 | 66 | 150 | 3.0 | 9.0 | 0.00 | 0.00 | 0.00 | 69 | 1014.1 |
| 20260906164655 | 66 | 266 | 3.0 | 9.0 | 0.00 | 0.00 | 0.00 | 69 | 1014.1 |
| 20260906164645 | 66 | 238 | 3.0 | 9.0 | 0.00 | 0.00 | 0.00 | 69 | 1014.1 |
| 20260906164555 | 66 | 193 | 3.0 | 9.0 | 0.00 | 0.00 | 0.00 | 69 | 1014.1 |
| 20260906164455 | 66 | 217 | 3.0 | 9.0 | 0.00 | 0.00 | 0.00 | 69 | 1014.2 |
| 20260906164355 | 66 | 229 | 3.0 | 9.0 | 0.00 | 0.00 | 0.00 | 70 | 1014.2 |
| 20260906164256 | 66 | 143 | 3.0 | 7.0 | 0.00 | 0.00 | 0.00 | 70 | 1014.1 |
| 20260906164154 | 66 | 229 | 3.0 | 7.0 | 0.00 | 0.00 | 0.00 | 70 | 1014.2 |
| 20260906164144 | 66 | 212 | 3.0 | 7.0 | 0.00 | 0.00 | 0.00 | 70 | 1014.2 |
| 20260906164055 | 66 | 207 | 3.0 | 7.0 | 0.00 | 0.00 | 0.00 | 71 | 1014.1 |
| 20260906163855 | 65 | 145 | 3.0 | 7.0 | 0.00 | 0.00 | 0.00 | 71 | 1014.2 |
| 20260906163755 | 65 | 153 | 3.0 | 7.0 | 0.00 | 0.00 | 0.00 | 71 | 1014.2 |
| 20260906163655 | 65 | 214 | 3.0 | 7.0 | 0.00 | 0.00 | 0.00 | 70 | 1014.2 |
| 20260906163645 | 65 | 236 | 3.0 | 7.0 | 0.00 | 0.00 | 0.00 | 70 | 1014.2 |
| 20260906163555 | 65 | 242 | 3.0 | 7.0 | 0.00 | 0.00 | 0.00 | 70 | 1014.2 |
| 20260906163455 | 65 | 253 | 3.0 | 7.0 | 0.00 | 0.00 | 0.00 | 70 | 1014.2 |
| 20260906163356 | 65 | 205 | 3.0 | 7.0 | 0.00 | 0.00 | 0.00 | 71 | 1014.2 |
| 20260906163256 | 65 | 146 | 3.0 | 7.0 | 0.00 | 0.00 | 0.00 | 71 | 1014.2 |
| 20260906163145 | 65 | 190 | 3.0 | 7.0 | 0.00 | 0.00 | 0.00 | 71 | 1014.2 |
| 20260906163051 | 65 | 239 | 3.0 | 7.0 | 0.00 | 0.00 | 0.00 | 70 | 1014.2 |
| 20260906162951 | 65 | 243 | 3.0 | 7.0 | 0.00 | 0.00 | 0.00 | 70 | 1014.2 |
| 20260906162910 | 65 | 195 | 2.0 | 7.0 | 0.00 | 0.00 | 0.00 | 71 | 1014.3 |
| 20260906162851 | 65 | 233 | 3.0 | 7.0 | 0.00 | 0.00 | 0.00 | 71 | 1014.2 |
| 20260906162803 | 65 | 186 | 3.0 | 7.0 | 0.00 | 0.00 | 0.00 | 70 | 1014.2 |
| 20260906162755 | 65 | 235 | 2.0 | 7.0 | 0.00 | 0.00 | 0.00 | 71 | 1014.3 |
| 20260906162551 | 65 | 225 | 2.0 | 7.0 | 0.00 | 0.00 | 0.00 | 71 | 1014.3 |
| 20260906162451 | 65 | 162 | 3.0 | 8.0 | 0.00 | 0.00 | 0.00 | 71 | 1014.3 |
| 20260906162351 | 65 | 202 | 2.0 | 8.0 | 0.00 | 0.00 | 0.00 | 71 | 1014.3 |
| 20260906162252 | 65 | 201 | 2.0 | 8.0 | 0.00 | 0.00 | 0.00 | 71 | 1014.3 |
| 20260906162155 | 65 | 236 | 2.0 | 8.0 | 0.00 | 0.00 | 0.00 | 72 | 1014.3 |
| 20260906162145 | 65 | 246 | 2.0 | 8.0 | 0.00 | 0.00 | 0.00 | 72 | 1014.3 |
| 20260906162049 | 65 | 203 | 2.0 | 8.0 | 0.00 | 0.00 | 0.00 | 72 | 1014.3 |
| 20260906161949 | 64 | 225 | 2.0 | 8.0 | 0.00 | 0.00 | 0.00 | 73 | 1014.3 |
| 20260906161849 | 64 | 163 | 2.0 | 8.0 | 0.00 | 0.00 | 0.00 | 72 | 1014.3 |
| 20260906161749 | 64 | 200 | 2.0 | 8.0 | 0.00 | 0.00 | 0.00 | 72 | 1014.3 |
| 20260906161643 | 64 | 228 | 2.0 | 8.0 | 0.00 | 0.00 | 0.00 | 71 | 1014.3 |
| 20260906161547 | 65 | 231 | 2.0 | 8.0 | 0.00 | 0.00 | 0.00 | 71 | 1014.3 |
| 20260906161447 | 65 | 243 | 2.0 | 7.0 | 0.00 | 0.00 | 0.00 | 72 | 1014.2 |
| 20260906161347 | 65 | 225 | 2.0 | 7.0 | 0.00 | 0.00 | 0.00 | 72 | 1014.3 |
| 20260906161248 | 64 | 238 | 2.0 | 7.0 | 0.00 | 0.00 | 0.00 | 72 | 1014.2 |
| 20260906161140 | 64 | 203 | 2.0 | 7.0 | 0.00 | 0.00 | 0.00 | 72 | 1014.3 |
| 20260906161047 | 64 | 226 | 2.0 | 5.0 | 0.00 | 0.00 | 0.00 | 73 | 1014.3 |
| 20260906160948 | 64 | 129 | 2.0 | 7.0 | 0.00 | 0.00 | 0.00 | 72 | 1014.3 |
| 20260906160847 | 64 | 226 | 2.0 | 7.0 | 0.00 | 0.00 | 0.00 | 72 | 1014.2 |
| 20260906160748 | 64 | 243 | 2.0 | 7.0 | 0.00 | 0.00 | 0.00 | 72 | 1014.3 |
| 20260906160650 | 64 | 233 | 1.0 | 7.0 | 0.00 | 0.00 | 0.00 | 73 | 1014.3 |
| 20260906160640 | 64 | 229 | 1.0 | 7.0 | 0.00 | 0.00 | 0.00 | 73 | 1014.3 |
| 20260906160621 | 65 | 225 | 1.0 | 7.0 | 0.00 | 0.00 | 0.00 | 72 | 1014.3 |
| 20260906160547 | 64 | 232 | 1.0 | 7.0 | 0.00 | 0.00 | 0.00 | 73 | 1014.3 |
| 20260906160511 | 64 | 233 | 1.0 | 7.0 | 0.00 | 0.00 | 0.00 | 72 | 1014.3 |
| 20260906160347 | 64 | 233 | 1.0 | 7.0 | 0.00 | 0.00 | 0.00 | 72 | 1014.3 |
| 20260906160300 | 64 | 225 | 1.0 | 7.0 | 0.00 | 0.00 | 0.00 | 71 | 1014.3 |
| 20260906160252 | 65 | 218 | 1.0 | 7.0 | 0.00 | 0.00 | 0.00 | 72 | 1014.3 |
| 20260906160047 | 65 | 242 | 1.0 | 6.0 | 0.00 | 0.00 | 0.00 | 73 | 1014.3 |
| 20260906155943 | 64 | 145 | 1.0 | 5.0 | 0.00 | 0.00 | 0.00 | 73 | 1014.2 |
| 20260906155843 | 64 | 117 | 1.0 | 5.0 | 0.00 | 0.00 | 0.00 | 73 | 1014.2 |
| 20260906155744 | 64 | 125 | 1.0 | 5.0 | 0.00 | 0.00 | 0.00 | 74 | 1014.2 |
| 20260906155645 | 64 | 130 | 1.0 | 5.0 | 0.00 | 0.00 | 0.00 | 74 | 1014.2 |
| 20260906155543 | 64 | 129 | 2.0 | 5.0 | 0.00 | 0.00 | 0.00 | 74 | 1014.2 |
| 20260906155444 | 64 | 221 | 2.0 | 5.0 | 0.00 | 0.00 | 0.00 | 74 | 1014.2 |
| 20260906155343 | 63 | 216 | 2.0 | 5.0 | 0.00 | 0.00 | 0.00 | 75 | 1014.2 |
| 20260906155244 | 63 | 253 | 2.0 | 6.0 | 0.00 | 0.00 | 0.00 | 74 | 1014.1 |
| 20260906155145 | 63 | 238 | 2.0 | 6.0 | 0.00 | 0.00 | 0.00 | 74 | 1014.1 |
| 20260906155043 | 63 | 224 | 2.0 | 6.0 | 0.00 | 0.00 | 0.00 | 74 | 1014.1 |
| 20260906154943 | 63 | 215 | 2.0 | 6.0 | 0.00 | 0.00 | 0.00 | 74 | 1014.2 |
| 20260906154843 | 63 | 253 | 2.0 | 6.0 | 0.00 | 0.00 | 0.00 | 74 | 1014.2 |
| 20260906154744 | 63 | 235 | 2.0 | 6.0 | 0.00 | 0.00 | 0.00 | 74 | 1014.2 |
| 20260906154644 | 63 | 221 | 2.0 | 6.0 | 0.00 | 0.00 | 0.00 | 74 | 1014.2 |
| 20260906154543 | 63 | 137 | 2.0 | 6.0 | 0.00 | 0.00 | 0.00 | 74 | 1014.2 |
| 20260906154443 | 63 | 141 | 2.0 | 6.0 | 0.00 | 0.00 | 0.00 | 74 | 1014.2 |
| 20260906154343 | 63 | 165 | 1.0 | 6.0 | 0.00 | 0.00 | 0.00 | 75 | 1014.2 |
| 20260906154244 | 63 | 160 | 1.0 | 6.0 | 0.00 | 0.00 | 0.00 | 74 | 1014.2 |
| 20260906154145 | 63 | 215 | 2.0 | 6.0 | 0.00 | 0.00 | 0.00 | 74 | 1014.2 |
| 20260906154039 | 63 | 130 | 2.0 | 6.0 | 0.00 | 0.00 | 0.00 | 74 | 1014.2 |
| 20260906153939 | 63 | 219 | 1.0 | 6.0 | 0.00 | 0.00 | 0.00 | 76 | 1014.3 |
| 20260906153839 | 63 | 124 | 1.0 | 6.0 | 0.00 | 0.00 | 0.00 | 76 | 1014.2 |
| 20260906153740 | 63 | 186 | 1.0 | 6.0 | 0.00 | 0.00 | 0.00 | 76 | 1014.2 |
| 20260906153639 | 63 | 200 | 1.0 | 6.0 | 0.00 | 0.00 | 0.00 | 76 | 1014.2 |
| 20260906153539 | 62 | 200 | 2.0 | 6.0 | 0.00 | 0.00 | 0.00 | 76 | 1014.1 |
| 20260906153439 | 62 | 121 | 2.0 | 6.0 | 0.00 | 0.00 | 0.00 | 76 | 1014.2 |
| 20260906153340 | 62 | 224 | 2.0 | 6.0 | 0.00 | 0.00 | 0.00 | 75 | 1014.2 |
| 20260906153240 | 62 | 238 | 2.0 | 6.0 | 0.00 | 0.00 | 0.00 | 75 | 1014.2 |
| 20260906153144 | 62 | 243 | 2.0 | 5.0 | 0.00 | 0.00 | 0.00 | 76 | 1014.2 |
| 20260906153139 | 62 | 245 | 2.0 | 5.0 | 0.00 | 0.00 | 0.00 | 76 | 1014.2 |
| 20260906153040 | 62 | 235 | 2.0 | 5.0 | 0.00 | 0.00 | 0.00 | 76 | 1014.2 |
| 20260906152939 | 62 | 116 | 2.0 | 5.0 | 0.00 | 0.00 | 0.00 | 77 | 1014.2 |
| 20260906152839 | 62 | 132 | 2.0 | 5.0 | 0.00 | 0.00 | 0.00 | 77 | 1014.2 |
| 20260906152740 | 62 | 211 | 2.0 | 5.0 | 0.00 | 0.00 | 0.00 | 76 | 1014.2 |
| 20260906152645 | 62 | 232 | 2.0 | 5.0 | 0.00 | 0.00 | 0.00 | 76 | 1014.2 |
| 20260906152639 | 62 | 231 | 2.0 | 5.0 | 0.00 | 0.00 | 0.00 | 76 | 1014.2 |
| 20260906152539 | 62 | 232 | 2.0 | 5.0 | 0.00 | 0.00 | 0.00 | 77 | 1014.3 |
| 20260906152439 | 62 | 229 | 2.0 | 5.0 | 0.00 | 0.00 | 0.00 | 77 | 1014.3 |
| 20260906152339 | 62 | 146 | 2.0 | 5.0 | 0.00 | 0.00 | 0.00 | 77 | 1014.2 |
| 20260906152241 | 62 | 146 | 2.0 | 5.0 | 0.00 | 0.00 | 0.00 | 77 | 1014.3 |
| 20260906152139 | 62 | 204 | 2.0 | 5.0 | 0.00 | 0.00 | 0.00 | 77 | 1014.3 |
| 20260906152038 | 62 | 226 | 2.0 | 5.0 | 0.00 | 0.00 | 0.00 | 77 | 1014.3 |
| 20260906151939 | 62 | 210 | 1.0 | 5.0 | 0.00 | 0.00 | 0.00 | 77 | 1014.3 |
| 20260906151839 | 62 | 210 | 2.0 | 5.0 | 0.00 | 0.00 | 0.00 | 76 | 1014.3 |
| 20260906151738 | 62 | 228 | 1.0 | 5.0 | 0.00 | 0.00 | 0.00 | 77 | 1014.3 |
| 20260906151643 | 62 | 150 | 1.0 | 5.0 | 0.00 | 0.00 | 0.00 | 76 | 1014.3 |
| 20260906151637 | 62 | 173 | 1.0 | 5.0 | 0.00 | 0.00 | 0.00 | 76 | 1014.3 |
| 20260906151537 | 62 | 212 | 1.0 | 4.0 | 0.00 | 0.00 | 0.00 | 77 | 1014.3 |
| 20260906151437 | 62 | 161 | 1.0 | 4.0 | 0.00 | 0.00 | 0.00 | 77 | 1014.3 |
| 20260906151337 | 62 | 129 | 1.0 | 4.0 | 0.00 | 0.00 | 0.00 | 77 | 1014.3 |
| 20260906151239 | 62 | 138 | 1.0 | 4.0 | 0.00 | 0.00 | 0.00 | 77 | 1014.3 |
| 20260906151137 | 62 | 229 | 1.0 | 4.0 | 0.00 | 0.00 | 0.00 | 76 | 1014.3 |
| 20260906151037 | 62 | 190 | 1.0 | 3.0 | 0.00 | 0.00 | 0.00 | 77 | 1014.3 |
| 20260906150937 | 62 | 186 | 1.0 | 3.0 | 0.00 | 0.00 | 0.00 | 77 | 1014.3 |
| 20260906150837 | 61 | 132 | 1.0 | 3.0 | 0.00 | 0.00 | 0.00 | 77 | 1014.3 |
| 20260906150738 | 61 | 243 | 1.0 | 3.0 | 0.00 | 0.00 | 0.00 | 77 | 1014.3 |
| 20260906150637 | 61 | 243 | 1.0 | 3.0 | 0.00 | 0.00 | 0.00 | 78 | 1014.3 |
| 20260906150537 | 61 | 137 | 1.0 | 3.0 | 0.00 | 0.00 | 0.00 | 78 | 1014.3 |
| 20260906150437 | 61 | 137 | 1.0 | 3.0 | 0.00 | 0.00 | 0.00 | 78 | 1014.3 |
| 20260906150337 | 61 | 136 | 1.0 | 3.0 | 0.00 | 0.00 | 0.00 | 78 | 1014.3 |
| 20260906150234 | 61 | 142 | 1.0 | 3.0 | 0.00 | 0.00 | 0.00 | 78 | 1014.3 |
| 20260906150139 | 61 | 138 | 1.0 | 3.0 | 0.00 | 0.00 | 0.00 | 78 | 1014.3 |
| 20260906150133 | 61 | 145 | 1.0 | 3.0 | 0.00 | 0.00 | 0.00 | 78 | 1014.3 |
| 20260906150034 | 61 | 118 | 1.0 | 3.0 | 0.00 | 0.00 | 0.00 | 78 | 1014.3 |
| 20260906145933 | 61 | 155 | 1.0 | 3.0 | 0.00 | 0.00 | 0.00 | 78 | 1014.3 |
| 20260906145833 | 61 | 137 | 1.0 | 3.0 | 0.00 | 0.00 | 0.00 | 79 | 1014.3 |
| 20260906145732 | 61 | 148 | 1.0 | 3.0 | 0.00 | 0.00 | 0.00 | 79 | 1014.3 |
| 20260906145639 | 60 | 163 | 1.0 | 3.0 | 0.00 | 0.00 | 0.00 | 79 | 1014.3 |
| 20260906145629 | 60 | 121 | 1.0 | 3.0 | 0.00 | 0.00 | 0.00 | 79 | 1014.3 |
| 20260906145529 | 60 | 103 | 1.0 | 3.0 | 0.00 | 0.00 | 0.00 | 79 | 1014.3 |
| 20260906145429 | 60 | 101 | 1.0 | 3.0 | 0.00 | 0.00 | 0.00 | 79 | 1014.3 |
| 20260906145355 | 60 | 136 | 1.0 | 2.0 | 0.00 | 0.00 | 0.00 | 80 | 1014.2 |
| 20260906145330 | 60 | 107 | 1.0 | 3.0 | 0.00 | 0.00 | 0.00 | 79 | 1014.2 |
| 20260906145246 | 60 | 96 | 1.0 | 3.0 | 0.00 | 0.00 | 0.00 | 80 | 1014.2 |
| 20260906145129 | 60 | 144 | 1.0 | 2.0 | 0.00 | 0.00 | 0.00 | 80 | 1014.2 |
| 20260906145025 | 60 | 171 | 1.0 | 2.0 | 0.00 | 0.00 | 0.00 | 80 | 1014.2 |
| 20260906144925 | 60 | 136 | 1.0 | 2.0 | 0.00 | 0.00 | 0.00 | 80 | 1014.2 |
| 20260906144825 | 60 | 139 | 1.0 | 2.0 | 0.00 | 0.00 | 0.00 | 80 | 1014.2 |
| 20260906144729 | 60 | 138 | 1.0 | 2.0 | 0.00 | 0.00 | 0.00 | 80 | 1014.2 |
| 20260906144634 | 60 | 123 | 1.0 | 2.0 | 0.00 | 0.00 | 0.00 | 80 | 1014.2 |
| 20260906144625 | 60 | 120 | 1.0 | 2.0 | 0.00 | 0.00 | 0.00 | 80 | 1014.2 |
| 20260906144525 | 60 | 148 | 1.0 | 2.0 | 0.00 | 0.00 | 0.00 | 80 | 1014.1 |
| 20260906144425 | 60 | 134 | 1.0 | 2.0 | 0.00 | 0.00 | 0.00 | 80 | 1014.1 |
| 20260906144325 | 60 | 149 | 0.0 | 2.0 | 0.00 | 0.00 | 0.00 | 81 | 1014.1 |
| 20260906144231 | 59 | 128 | 0.0 | 2.0 | 0.00 | 0.00 | 0.00 | 81 | 1014.0 |
| 20260906144125 | 59 | 143 | 1.0 | 2.0 | 0.00 | 0.00 | 0.00 | 81 | 1014.0 |
| 20260906144025 | 59 | 143 | 1.0 | 2.0 | 0.00 | 0.00 | 0.00 | 81 | 1014.0 |
| 20260906143925 | 59 | 142 | 0.0 | 2.0 | 0.00 | 0.00 | 0.00 | 81 | 1014.0 |
| 20260906143825 | 59 | 143 | 1.0 | 2.0 | 0.00 | 0.00 | 0.00 | 81 | 1014.0 |
| 20260906143729 | 59 | 132 | 1.0 | 2.0 | 0.00 | 0.00 | 0.00 | 82 | 1013.9 |
| 20260906143634 | 59 | 120 | 0.0 | 2.0 | 0.00 | 0.00 | 0.00 | 82 | 1013.9 |
| 20260906143625 | 59 | 122 | 0.0 | 2.0 | 0.00 | 0.00 | 0.00 | 82 | 1013.9 |
| 20260906143526 | 59 | 146 | 0.0 | 2.0 | 0.00 | 0.00 | 0.00 | 82 | 1013.9 |
| 20260906143425 | 58 | 110 | 0.0 | 2.0 | 0.00 | 0.00 | 0.00 | 82 | 1013.8 |
| 20260906143326 | 58 | 186 | 0.0 | 2.0 | 0.00 | 0.00 | 0.00 | 83 | 1013.9 |
| 20260906143230 | 58 | 103 | 1.0 | 2.0 | 0.00 | 0.00 | 0.00 | 83 | 1013.9 |
| 20260906143123 | 58 | 134 | 1.0 | 2.0 | 0.00 | 0.00 | 0.00 | 83 | 1013.9 |
| 20260906143021 | 58 | 134 | 1.0 | 2.0 | 0.00 | 0.00 | 0.00 | 84 | 1013.8 |
| 20260906142921 | 58 | 120 | 1.0 | 2.0 | 0.00 | 0.00 | 0.00 | 84 | 1013.9 |
| 20260906142855 | 57 | 131 | 1.0 | 2.0 | 0.00 | 0.00 | 0.00 | 85 | 1013.8 |
| 20260906142821 | 58 | 150 | 1.0 | 2.0 | 0.00 | 0.00 | 0.00 | 84 | 1013.8 |
| 20260906142746 | 57 | 131 | 1.0 | 2.0 | 0.00 | 0.00 | 0.00 | 85 | 1013.8 |
| 20260906142622 | 57 | 131 | 1.0 | 2.0 | 0.00 | 0.00 | 0.00 | 85 | 1013.8 |
| 20260906142521 | 57 | 131 | 1.0 | 2.0 | 0.00 | 0.00 | 0.00 | 85 | 1013.8 |
| 20260906142422 | 57 | 131 | 1.0 | 2.0 | 0.00 | 0.00 | 0.00 | 85 | 1013.8 |
| 20260906142322 | 57 | 105 | 1.0 | 2.0 | 0.00 | 0.00 | 0.00 | 85 | 1013.8 |
| 20260906142221 | 57 | 101 | 1.0 | 2.0 | 0.00 | 0.00 | 0.00 | 85 | 1013.8 |
| 20260906142135 | 57 | 105 | 1.0 | 2.0 | 0.00 | 0.00 | 0.00 | 86 | 1013.8 |
| 20260906142125 | 57 | 104 | 1.0 | 2.0 | 0.00 | 0.00 | 0.00 | 86 | 1013.8 |
| 20260906142021 | 57 | 111 | 1.0 | 2.0 | 0.00 | 0.00 | 0.00 | 86 | 1013.8 |
| 20260906141921 | 57 | 115 | 1.0 | 2.0 | 0.00 | 0.00 | 0.00 | 86 | 1013.8 |
| 20260906141822 | 57 | 101 | 1.0 | 2.0 | 0.00 | 0.00 | 0.00 | 86 | 1013.8 |
| 20260906141721 | 57 | 100 | 1.0 | 2.0 | 0.00 | 0.00 | 0.00 | 86 | 1013.8 |
| 20260906141621 | 56 | 150 | 1.0 | 2.0 | 0.00 | 0.00 | 0.00 | 86 | 1013.8 |
| 20260906141521 | 56 | 138 | 1.0 | 2.0 | 0.00 | 0.00 | 0.00 | 86 | 1013.8 |
| 20260906141421 | 56 | 139 | 1.0 | 2.0 | 0.00 | 0.00 | 0.00 | 86 | 1013.8 |
| 20260906141322 | 56 | 136 | 1.0 | 3.0 | 0.00 | 0.00 | 0.00 | 86 | 1013.8 |
| 20260906141217 | 56 | 136 | 0.0 | 3.0 | 0.00 | 0.00 | 0.00 | 86 | 1013.7 |
| 20260906141134 | 56 | 135 | 1.0 | 3.0 | 0.00 | 0.00 | 0.00 | 86 | 1013.7 |
| 20260906141123 | 56 | 136 | 1.0 | 3.0 | 0.00 | 0.00 | 0.00 | 86 | 1013.7 |
| 20260906141017 | 56 | 135 | 1.0 | 3.0 | 0.00 | 0.00 | 0.00 | 86 | 1013.7 |
| 20260906140918 | 56 | 134 | 1.0 | 3.0 | 0.00 | 0.00 | 0.00 | 86 | 1013.7 |
| 20260906140818 | 56 | 134 | 1.0 | 4.0 | 0.00 | 0.00 | 0.00 | 86 | 1013.7 |
| 20260906140717 | 56 | 134 | 1.0 | 4.0 | 0.00 | 0.00 | 0.00 | 87 | 1013.7 |
| 20260906140617 | 56 | 134 | 1.0 | 4.0 | 0.00 | 0.00 | 0.00 | 87 | 1013.7 |
| 20260906140517 | 56 | 134 | 2.0 | 4.0 | 0.00 | 0.00 | 0.00 | 87 | 1013.6 |
| 20260906140417 | 56 | 113 | 2.0 | 4.0 | 0.00 | 0.00 | 0.00 | 87 | 1013.7 |
| 20260906140318 | 56 | 136 | 2.0 | 4.0 | 0.00 | 0.00 | 0.00 | 87 | 1013.6 |
| 20260906140217 | 56 | 136 | 2.0 | 4.0 | 0.00 | 0.00 | 0.00 | 87 | 1013.6 |
| 20260906140134 | 56 | 138 | 2.0 | 4.0 | 0.00 | 0.00 | 0.00 | 87 | 1013.6 |
| 20260906140119 | 56 | 141 | 2.0 | 4.0 | 0.00 | 0.00 | 0.00 | 87 | 1013.6 |
| 20260906140017 | 56 | 127 | 2.0 | 4.0 | 0.00 | 0.00 | 0.00 | 87 | 1013.6 |
| 20260906135918 | 56 | 137 | 2.0 | 4.0 | 0.00 | 0.00 | 0.00 | 87 | 1013.5 |
| 20260906135818 | 56 | 136 | 1.0 | 4.0 | 0.00 | 0.00 | 0.00 | 88 | 1013.5 |
| 20260906135717 | 56 | 117 | 1.0 | 4.0 | 0.00 | 0.00 | 0.00 | 88 | 1013.5 |
| 20260906135634 | 56 | 129 | 1.0 | 4.0 | 0.00 | 0.00 | 0.00 | 88 | 1013.5 |
| 20260906135618 | 56 | 130 | 1.0 | 4.0 | 0.00 | 0.00 | 0.00 | 88 | 1013.5 |
| 20260906135517 | 56 | 121 | 1.0 | 4.0 | 0.00 | 0.00 | 0.00 | 88 | 1013.5 |
| 20260906135417 | 56 | 126 | 1.0 | 3.0 | 0.00 | 0.00 | 0.00 | 88 | 1013.5 |
| 20260906135314 | 56 | 136 | 1.0 | 3.0 | 0.00 | 0.00 | 0.00 | 88 | 1013.5 |
| 20260906135213 | 56 | 141 | 1.0 | 3.0 | 0.00 | 0.00 | 0.00 | 88 | 1013.5 |
| 20260906135134 | 56 | 129 | 1.0 | 3.0 | 0.00 | 0.00 | 0.00 | 88 | 1013.5 |
| 20260906135111 | 56 | 135 | 1.0 | 3.0 | 0.00 | 0.00 | 0.00 | 88 | 1013.5 |
| 20260906135011 | 56 | 135 | 1.0 | 3.0 | 0.00 | 0.00 | 0.00 | 88 | 1013.5 |
| 20260906134911 | 56 | 141 | 1.0 | 3.0 | 0.00 | 0.00 | 0.00 | 88 | 1013.5 |
| 20260906134812 | 56 | 143 | 1.0 | 3.0 | 0.00 | 0.00 | 0.00 | 88 | 1013.5 |
| 20260906134711 | 56 | 138 | 1.0 | 3.0 | 0.00 | 0.00 | 0.00 | 88 | 1013.4 |
| 20260906134611 | 56 | 131 | 1.0 | 3.0 | 0.00 | 0.00 | 0.00 | 88 | 1013.4 |
| 20260906134511 | 56 | 135 | 1.0 | 2.0 | 0.00 | 0.00 | 0.00 | 88 | 1013.4 |
| 20260906134411 | 56 | 148 | 1.0 | 2.0 | 0.00 | 0.00 | 0.00 | 88 | 1013.4 |
| 20260906134312 | 56 | 148 | 1.0 | 2.0 | 0.00 | 0.00 | 0.00 | 88 | 1013.4 |
| 20260906134211 | 56 | 146 | 0.0 | 2.0 | 0.00 | 0.00 | 0.00 | 88 | 1013.3 |
| 20260906134132 | 56 | 143 | 0.0 | 2.0 | 0.00 | 0.00 | 0.00 | 88 | 1013.3 |
| 20260906134107 | 56 | 123 | 1.0 | 2.0 | 0.00 | 0.00 | 0.00 | 88 | 1013.4 |
| 20260906134007 | 56 | 143 | 1.0 | 2.0 | 0.00 | 0.00 | 0.00 | 88 | 1013.4 |
| 20260906133907 | 56 | 143 | 1.0 | 2.0 | 0.00 | 0.00 | 0.00 | 88 | 1013.4 |
| 20260906133808 | 56 | 144 | 1.0 | 2.0 | 0.00 | 0.00 | 0.00 | 88 | 1013.3 |
| 20260906133707 | 56 | 144 | 1.0 | 2.0 | 0.00 | 0.00 | 0.00 | 88 | 1013.3 |
| 20260906133632 | 56 | 143 | 1.0 | 2.0 | 0.00 | 0.00 | 0.00 | 88 | 1013.3 |
| 20260906133607 | 56 | 145 | 1.0 | 2.0 | 0.00 | 0.00 | 0.00 | 88 | 1013.3 |
| 20260906133507 | 56 | 142 | 1.0 | 2.0 | 0.00 | 0.00 | 0.00 | 88 | 1013.3 |
| 20260906133409 | 56 | 117 | 1.0 | 2.0 | 0.00 | 0.00 | 0.00 | 88 | 1013.3 |
| 20260906133308 | 56 | 137 | 1.0 | 2.0 | 0.00 | 0.00 | 0.00 | 88 | 1013.3 |
| 20260906133207 | 56 | 139 | 1.0 | 2.0 | 0.00 | 0.00 | 0.00 | 88 | 1013.3 |
| 20260906133132 | 56 | 140 | 1.0 | 2.0 | 0.00 | 0.00 | 0.00 | 88 | 1013.3 |
| 20260906133107 | 56 | 139 | 1.0 | 2.0 | 0.00 | 0.00 | 0.00 | 88 | 1013.3 |
| 20260906133007 | 56 | 129 | 0.0 | 2.0 | 0.00 | 0.00 | 0.00 | 88 | 1013.3 |
| 20260906132907 | 56 | 150 | 0.0 | 2.0 | 0.00 | 0.00 | 0.00 | 88 | 1013.2 |
| 20260906132808 | 56 | 164 | 0.0 | 2.0 | 0.00 | 0.00 | 0.00 | 88 | 1013.2 |
| 20260906132707 | 56 | 141 | 1.0 | 2.0 | 0.00 | 0.00 | 0.00 | 88 | 1013.3 |
| 20260906132633 | 56 | 141 | 1.0 | 2.0 | 0.00 | 0.00 | 0.00 | 88 | 1013.3 |
| 20260906132611 | 57 | 136 | 1.0 | 2.0 | 0.00 | 0.00 | 0.00 | 88 | 1013.2 |
| 20260906132607 | 56 | 139 | 1.0 | 2.0 | 0.00 | 0.00 | 0.00 | 88 | 1013.3 |
| 20260906132508 | 56 | 117 | 1.0 | 2.0 | 0.00 | 0.00 | 0.00 | 88 | 1013.3 |
| 20260906132459 | 56 | 122 | 1.0 | 2.0 | 0.00 | 0.00 | 0.00 | 88 | 1013.3 |
| 20260906132308 | 56 | 136 | 1.0 | 2.0 | 0.00 | 0.00 | 0.00 | 88 | 1013.3 |
| 20260906132203 | 57 | 135 | 1.0 | 2.0 | 0.00 | 0.00 | 0.00 | 88 | 1013.2 |
| 20260906132103 | 57 | 136 | 1.0 | 2.0 | 0.00 | 0.00 | 0.00 | 88 | 1013.3 |
| 20260906132005 | 57 | 136 | 1.0 | 2.0 | 0.00 | 0.00 | 0.00 | 88 | 1013.3 |
| 20260906131903 | 57 | 136 | 1.0 | 3.0 | 0.00 | 0.00 | 0.00 | 88 | 1013.3 |
| 20260906131805 | 57 | 132 | 1.0 | 3.0 | 0.00 | 0.00 | 0.00 | 88 | 1013.3 |
| 20260906131703 | 57 | 133 | 0.0 | 3.0 | 0.00 | 0.00 | 0.00 | 88 | 1013.2 |
| 20260906131641 | 57 | 150 | 0.0 | 3.0 | 0.00 | 0.00 | 0.00 | 88 | 1013.2 |
| 20260906131603 | 57 | 151 | 0.0 | 3.0 | 0.00 | 0.00 | 0.00 | 88 | 1013.3 |
| 20260906131503 | 57 | 150 | 0.0 | 3.0 | 0.00 | 0.00 | 0.00 | 88 | 1013.3 |
| 20260906131402 | 57 | 200 | 0.0 | 3.0 | 0.00 | 0.00 | 0.00 | 88 | 1013.3 |
| 20260906131304 | 57 | 200 | 0.0 | 3.0 | 0.00 | 0.00 | 0.00 | 88 | 1013.2 |
| 20260906131203 | 57 | 198 | 0.0 | 3.0 | 0.00 | 0.00 | 0.00 | 88 | 1013.2 |
| 20260906131128 | 57 | 198 | 0.0 | 3.0 | 0.00 | 0.00 | 0.00 | 88 | 1013.2 |
| 20260906131103 | 57 | 198 | 1.0 | 3.0 | 0.00 | 0.00 | 0.00 | 88 | 1013.2 |
| 20260906131004 | 57 | 200 | 0.0 | 3.0 | 0.00 | 0.00 | 0.00 | 88 | 1013.2 |
| 20260906130903 | 57 | 162 | 0.0 | 2.0 | 0.00 | 0.00 | 0.00 | 88 | 1013.2 |
| 20260906130803 | 57 | 150 | 0.0 | 2.0 | 0.00 | 0.00 | 0.00 | 88 | 1013.2 |
| 20260906130639 | 57 | 150 | 0.0 | 2.0 | 0.00 | 0.00 | 0.00 | 88 | 1013.2 |
| 20260906130601 | 57 | 150 | 0.0 | 2.0 | 0.00 | 0.00 | 0.00 | 88 | 1013.2 |
| 20260906130501 | 57 | 128 | 0.0 | 2.0 | 0.00 | 0.00 | 0.00 | 88 | 1013.2 |
| 20260906130400 | 57 | 129 | 0.0 | 2.0 | 0.00 | 0.00 | 0.00 | 88 | 1013.1 |
| 20260906130301 | 57 | 136 | 0.0 | 2.0 | 0.00 | 0.00 | 0.00 | 88 | 1013.1 |
| 20260906130159 | 57 | 146 | 0.0 | 2.0 | 0.00 | 0.00 | 0.00 | 88 | 1013.1 |
| 20260906130124 | 57 | 145 | 0.0 | 2.0 | 0.00 | 0.00 | 0.00 | 88 | 1013.1 |
| 20260906130059 | 57 | 155 | 0.0 | 2.0 | 0.00 | 0.00 | 0.00 | 88 | 1013.1 |
| 20260906125959 | 57 | 137 | 0.0 | 2.0 | 0.00 | 0.00 | 0.00 | 88 | 1013.1 |
| 20260906125859 | 57 | 216 | 0.0 | 2.0 | 0.00 | 0.00 | 0.00 | 88 | 1013.1 |
| 20260906125759 | 57 | 210 | 0.0 | 2.0 | 0.00 | 0.00 | 0.00 | 88 | 1013.1 |
| 20260906125659 | 57 | 210 | 0.0 | 2.0 | 0.00 | 0.00 | 0.00 | 88 | 1013.1 |
| 20260906125624 | 57 | 210 | 0.0 | 2.0 | 0.00 | 0.00 | 0.00 | 88 | 1013.1 |
| 20260906125559 | 57 | 210 | 1.0 | 3.0 | 0.00 | 0.00 | 0.00 | 88 | 1013.2 |
| 20260906125459 | 57 | 210 | 1.0 | 3.0 | 0.00 | 0.00 | 0.00 | 88 | 1013.2 |
| 20260906125359 | 57 | 155 | 1.0 | 3.0 | 0.00 | 0.00 | 0.00 | 87 | 1013.1 |
| 20260906125301 | 57 | 156 | 1.0 | 3.0 | 0.00 | 0.00 | 0.00 | 87 | 1013.1 |
| 20260906125200 | 57 | 156 | 1.0 | 3.0 | 0.00 | 0.00 | 0.00 | 87 | 1013.1 |
| 20260906125125 | 57 | 156 | 1.0 | 3.0 | 0.00 | 0.00 | 0.00 | 87 | 1013.1 |
| 20260906125055 | 57 | 156 | 1.0 | 3.0 | 0.00 | 0.00 | 0.00 | 87 | 1013.2 |
| 20260906124955 | 57 | 158 | 1.0 | 3.0 | 0.00 | 0.00 | 0.00 | 87 | 1013.1 |
| 20260906124855 | 57 | 143 | 1.0 | 3.0 | 0.00 | 0.00 | 0.00 | 87 | 1013.1 |
| 20260906124846 | 57 | 139 | 1.0 | 3.0 | 0.00 | 0.00 | 0.00 | 87 | 1013.1 |
| 20260906124754 | 57 | 143 | 1.0 | 3.0 | 0.00 | 0.00 | 0.00 | 87 | 1013.1 |
| 20260906124735 | 57 | 144 | 1.0 | 3.0 | 0.00 | 0.00 | 0.00 | 87 | 1013.1 |
| 20260906124555 | 57 | 120 | 1.0 | 3.0 | 0.00 | 0.00 | 0.00 | 87 | 1013.0 |
| 20260906124458 | 57 | 141 | 1.0 | 3.0 | 0.00 | 0.00 | 0.00 | 86 | 1013.1 |
| 20260906124355 | 57 | 140 | 1.0 | 3.0 | 0.00 | 0.00 | 0.00 | 86 | 1013.0 |
| 20260906124256 | 57 | 203 | 1.0 | 3.0 | 0.00 | 0.00 | 0.00 | 87 | 1013.0 |
| 20260906124155 | 57 | 208 | 1.0 | 3.0 | 0.00 | 0.00 | 0.00 | 87 | 1013.0 |
| 20260906124124 | 57 | 210 | 1.0 | 3.0 | 0.00 | 0.00 | 0.00 | 87 | 1013.0 |
| 20260906124055 | 57 | 210 | 1.0 | 4.0 | 0.00 | 0.00 | 0.00 | 86 | 1013.0 |
| 20260906123955 | 57 | 158 | 1.0 | 4.0 | 0.00 | 0.00 | 0.00 | 86 | 1013.0 |
| 20260906123855 | 58 | 215 | 1.0 | 5.0 | 0.00 | 0.00 | 0.00 | 86 | 1013.0 |
| 20260906123756 | 58 | 215 | 1.0 | 5.0 | 0.00 | 0.00 | 0.00 | 86 | 1013.0 |
| 20260906123655 | 58 | 194 | 1.0 | 5.0 | 0.00 | 0.00 | 0.00 | 86 | 1013.0 |
| 20260906123625 | 58 | 208 | 1.0 | 5.0 | 0.00 | 0.00 | 0.00 | 86 | 1013.0 |
| 20260906123555 | 58 | 208 | 1.0 | 5.0 | 0.00 | 0.00 | 0.00 | 86 | 1013.0 |
| 20260906123455 | 58 | 208 | 1.0 | 5.0 | 0.00 | 0.00 | 0.00 | 86 | 1013.0 |
| 20260906123355 | 58 | 188 | 1.0 | 5.0 | 0.00 | 0.00 | 0.00 | 86 | 1013.0 |
| 20260906123256 | 58 | 200 | 1.0 | 5.0 | 0.00 | 0.00 | 0.00 | 86 | 1013.0 |
| 20260906123151 | 58 | 146 | 1.0 | 5.0 | 0.00 | 0.00 | 0.00 | 86 | 1013.0 |
| 20260906123125 | 58 | 191 | 1.0 | 5.0 | 0.00 | 0.00 | 0.00 | 86 | 1013.0 |
| 20260906123051 | 58 | 187 | 1.0 | 5.0 | 0.00 | 0.00 | 0.00 | 86 | 1013.0 |
| 20260906122949 | 58 | 210 | 1.0 | 5.0 | 0.00 | 0.00 | 0.00 | 85 | 1013.0 |
| 20260906122850 | 58 | 217 | 1.0 | 4.0 | 0.00 | 0.00 | 0.00 | 85 | 1013.0 |
| 20260906122750 | 58 | 210 | 1.0 | 4.0 | 0.00 | 0.00 | 0.00 | 85 | 1013.0 |
| 20260906122624 | 58 | 205 | 1.0 | 4.0 | 0.00 | 0.00 | 0.00 | 85 | 1013.0 |
| 20260906122549 | 58 | 214 | 2.0 | 4.0 | 0.00 | 0.00 | 0.00 | 85 | 1013.0 |
| 20260906122448 | 58 | 225 | 1.0 | 4.0 | 0.00 | 0.00 | 0.00 | 85 | 1013.0 |
| 20260906122349 | 58 | 204 | 1.0 | 4.0 | 0.00 | 0.00 | 0.00 | 85 | 1013.0 |
| 20260906122250 | 58 | 233 | 2.0 | 4.0 | 0.00 | 0.00 | 0.00 | 85 | 1013.0 |
| 20260906122122 | 58 | 233 | 2.0 | 4.0 | 0.00 | 0.00 | 0.00 | 85 | 1012.9 |
| 20260906122050 | 58 | 233 | 2.0 | 4.0 | 0.00 | 0.00 | 0.00 | 85 | 1013.0 |
| 20260906121945 | 58 | 210 | 2.0 | 4.0 | 0.00 | 0.00 | 0.00 | 85 | 1013.0 |
| 20260906121845 | 58 | 214 | 2.0 | 4.0 | 0.00 | 0.00 | 0.00 | 85 | 1012.9 |
| 20260906121746 | 58 | 226 | 2.0 | 4.0 | 0.00 | 0.00 | 0.00 | 85 | 1013.0 |
| 20260906121645 | 58 | 225 | 2.0 | 5.0 | 0.00 | 0.00 | 0.00 | 85 | 1013.0 |
| 20260906121623 | 58 | 205 | 2.0 | 5.0 | 0.00 | 0.00 | 0.00 | 85 | 1013.0 |
| 20260906121545 | 58 | 226 | 2.0 | 5.0 | 0.00 | 0.00 | 0.00 | 85 | 1013.0 |
| 20260906121445 | 58 | 200 | 2.0 | 5.0 | 0.00 | 0.00 | 0.00 | 85 | 1013.0 |
| 20260906121345 | 58 | 205 | 2.0 | 5.0 | 0.00 | 0.00 | 0.00 | 85 | 1013.0 |
| 20260906121245 | 58 | 218 | 2.0 | 5.0 | 0.00 | 0.00 | 0.00 | 85 | 1013.0 |
| 20260906121145 | 58 | 224 | 2.0 | 5.0 | 0.00 | 0.00 | 0.00 | 85 | 1013.0 |
| 20260906121122 | 58 | 212 | 2.0 | 5.0 | 0.00 | 0.00 | 0.00 | 85 | 1013.0 |
| 20260906121045 | 58 | 212 | 1.0 | 5.0 | 0.00 | 0.00 | 0.00 | 85 | 1013.0 |
| 20260906120944 | 58 | 233 | 1.0 | 5.0 | 0.00 | 0.00 | 0.00 | 85 | 1013.0 |
| 20260906120845 | 58 | 226 | 1.0 | 5.0 | 0.00 | 0.00 | 0.00 | 85 | 1013.0 |
| 20260906120745 | 58 | 207 | 1.0 | 5.0 | 0.00 | 0.00 | 0.00 | 85 | 1013.0 |
| 20260906120644 | 58 | 194 | 1.0 | 3.0 | 0.00 | 0.00 | 0.00 | 85 | 1013.0 |
| 20260906120622 | 58 | 221 | 1.0 | 3.0 | 0.00 | 0.00 | 0.00 | 85 | 1013.0 |
| 20260906120545 | 58 | 210 | 1.0 | 3.0 | 0.00 | 0.00 | 0.00 | 84 | 1013.0 |
| 20260906120445 | 58 | 238 | 1.0 | 3.0 | 0.00 | 0.00 | 0.00 | 84 | 1013.0 |
| 20260906120345 | 58 | 236 | 1.0 | 4.0 | 0.00 | 0.00 | 0.00 | 84 | 1013.0 |
| 20260906120246 | 58 | 226 | 1.0 | 4.0 | 0.00 | 0.00 | 0.00 | 84 | 1013.1 |
| 20260906120145 | 58 | 207 | 1.0 | 4.0 | 0.00 | 0.00 | 0.00 | 84 | 1013.0 |
| 20260906120122 | 58 | 233 | 1.0 | 4.0 | 0.00 | 0.00 | 0.00 | 84 | 1013.0 |
| 20260906120045 | 58 | 198 | 1.0 | 4.0 | 0.00 | 0.00 | 0.00 | 84 | 1013.0 |
| 20260906115945 | 58 | 198 | 1.0 | 4.0 | 0.00 | 0.00 | 0.00 | 84 | 1013.0 |
| 20260906115845 | 58 | 197 | 1.0 | 4.0 | 0.00 | 0.00 | 0.00 | 84 | 1013.0 |
| 20260906115744 | 58 | 198 | 1.0 | 4.0 | 0.00 | 0.00 | 0.00 | 84 | 1013.0 |
| 20260906115644 | 58 | 214 | 1.0 | 4.0 | 0.00 | 0.00 | 0.00 | 84 | 1013.0 |
| 20260906115620 | 58 | 203 | 1.0 | 4.0 | 0.00 | 0.00 | 0.00 | 84 | 1013.0 |
| 20260906115543 | 58 | 203 | 1.0 | 4.0 | 0.00 | 0.00 | 0.00 | 84 | 1013.0 |
| 20260906115443 | 58 | 201 | 1.0 | 4.0 | 0.00 | 0.00 | 0.00 | 84 | 1013.0 |
| 20260906115343 | 58 | 235 | 1.0 | 4.0 | 0.00 | 0.00 | 0.00 | 84 | 1013.0 |
| 20260906115244 | 58 | 234 | 1.0 | 4.0 | 0.00 | 0.00 | 0.00 | 84 | 1013.0 |
| 20260906115143 | 58 | 235 | 1.0 | 4.0 | 0.00 | 0.00 | 0.00 | 84 | 1013.0 |
| 20260906115120 | 58 | 233 | 1.0 | 4.0 | 0.00 | 0.00 | 0.00 | 83 | 1013.0 |
| 20260906115043 | 58 | 226 | 1.0 | 4.0 | 0.00 | 0.00 | 0.00 | 83 | 1013.0 |
| 20260906114943 | 58 | 216 | 1.0 | 3.0 | 0.00 | 0.00 | 0.00 | 83 | 1013.0 |
| 20260906114843 | 58 | 212 | 1.0 | 3.0 | 0.00 | 0.00 | 0.00 | 83 | 1013.0 |
| 20260906114744 | 58 | 228 | 1.0 | 3.0 | 0.00 | 0.00 | 0.00 | 83 | 1013.0 |
| 20260906114620 | 58 | 245 | 1.0 | 3.0 | 0.00 | 0.00 | 0.00 | 83 | 1013.0 |
| 20260906114543 | 58 | 245 | 1.0 | 3.0 | 0.00 | 0.00 | 0.00 | 83 | 1013.0 |
| 20260906114443 | 58 | 217 | 1.0 | 3.0 | 0.00 | 0.00 | 0.00 | 83 | 1013.0 |
| 20260906114343 | 58 | 239 | 1.0 | 3.0 | 0.00 | 0.00 | 0.00 | 83 | 1013.0 |
| 20260906114244 | 57 | 225 | 1.0 | 2.0 | 0.00 | 0.00 | 0.00 | 83 | 1013.0 |
| 20260906114143 | 57 | 218 | 1.0 | 2.0 | 0.00 | 0.00 | 0.00 | 83 | 1013.0 |
| 20260906114118 | 57 | 223 | 1.0 | 2.0 | 0.00 | 0.00 | 0.00 | 83 | 1013.0 |
| 20260906114043 | 57 | 235 | 0.0 | 2.0 | 0.00 | 0.00 | 0.00 | 83 | 1013.0 |
| 20260906113942 | 57 | 235 | 0.0 | 2.0 | 0.00 | 0.00 | 0.00 | 83 | 1013.0 |
| 20260906113841 | 57 | 245 | 0.0 | 2.0 | 0.00 | 0.00 | 0.00 | 83 | 1013.0 |
| 20260906113742 | 57 | 149 | 0.0 | 2.0 | 0.00 | 0.00 | 0.00 | 83 | 1013.0 |
| 20260906113641 | 57 | 139 | 0.0 | 2.0 | 0.00 | 0.00 | 0.00 | 83 | 1013.0 |
| 20260906113618 | 57 | 140 | 0.0 | 2.0 | 0.00 | 0.00 | 0.00 | 83 | 1013.0 |
| 20260906113541 | 57 | 139 | 0.0 | 2.0 | 0.00 | 0.00 | 0.00 | 83 | 1013.0 |
| 20260906113441 | 57 | 139 | 0.0 | 2.0 | 0.00 | 0.00 | 0.00 | 82 | 1013.0 |
| 20260906113341 | 57 | 139 | 0.0 | 2.0 | 0.00 | 0.00 | 0.00 | 82 | 1013.0 |
| 20260906113242 | 57 | 139 | 0.0 | 2.0 | 0.00 | 0.00 | 0.00 | 82 | 1013.0 |
| 20260906113118 | 57 | 139 | 0.0 | 2.0 | 0.00 | 0.00 | 0.00 | 82 | 1012.9 |
| 20260906113041 | 57 | 139 | 0.0 | 2.0 | 0.00 | 0.00 | 0.00 | 82 | 1013.0 |
| 20260906112941 | 57 | 139 | 0.0 | 2.0 | 0.00 | 0.00 | 0.00 | 83 | 1013.0 |
| 20260906112841 | 57 | 139 | 0.0 | 2.0 | 0.00 | 0.00 | 0.00 | 83 | 1013.0 |
| 20260906112742 | 57 | 150 | 0.0 | 1.0 | 0.00 | 0.00 | 0.00 | 82 | 1013.0 |
| 20260906112619 | 57 | 148 | 0.0 | 1.0 | 0.00 | 0.00 | 0.00 | 83 | 1013.0 |
| 20260906112541 | 57 | 148 | 0.0 | 1.0 | 0.00 | 0.00 | 0.00 | 83 | 1013.0 |
| 20260906112441 | 57 | 148 | 0.0 | 1.0 | 0.00 | 0.00 | 0.00 | 83 | 1013.0 |
| 20260906112341 | 57 | 149 | 0.0 | 0.0 | 0.00 | 0.00 | 0.00 | 82 | 1013.0 |
| 20260906112238 | 57 | 148 | 0.0 | 0.0 | 0.00 | 0.00 | 0.00 | 82 | 1012.9 |
| 20260906112137 | 57 | 149 | 0.0 | 0.0 | 0.00 | 0.00 | 0.00 | 82 | 1012.9 |
| 20260906112118 | 57 | 150 | 0.0 | 0.0 | 0.00 | 0.00 | 0.00 | 82 | 1012.9 |
| 20260906112037 | 57 | 149 | 0.0 | 1.0 | 0.00 | 0.00 | 0.00 | 82 | 1013.0 |
| 20260906111937 | 57 | 148 | 0.0 | 1.0 | 0.00 | 0.00 | 0.00 | 81 | 1012.9 |
| 20260906111836 | 57 | 149 | 0.0 | 1.0 | 0.00 | 0.00 | 0.00 | 81 | 1012.9 |
| 20260906111738 | 57 | 148 | 0.0 | 1.0 | 0.00 | 0.00 | 0.00 | 81 | 1012.9 |
| 20260906111637 | 57 | 148 | 0.0 | 1.0 | 0.00 | 0.00 | 0.00 | 81 | 1012.9 |
| 20260906111618 | 57 | 149 | 0.0 | 1.0 | 0.00 | 0.00 | 0.00 | 81 | 1012.9 |
| 20260906111537 | 57 | 148 | 0.0 | 1.0 | 0.00 | 0.00 | 0.00 | 81 | 1012.9 |
| 20260906111437 | 57 | 149 | 0.0 | 1.0 | 0.00 | 0.00 | 0.00 | 81 | 1012.9 |
| 20260906111337 | 57 | 149 | 0.0 | 1.0 | 0.00 | 0.00 | 0.00 | 81 | 1012.9 |
| 20260906111238 | 57 | 148 | 0.0 | 1.0 | 0.00 | 0.00 | 0.00 | 81 | 1012.9 |
| 20260906111137 | 57 | 150 | 0.0 | 1.0 | 0.00 | 0.00 | 0.00 | 81 | 1012.9 |
| 20260906111118 | 57 | 148 | 0.0 | 1.0 | 0.00 | 0.00 | 0.00 | 81 | 1012.9 |
| 20260906111037 | 57 | 148 | 0.0 | 1.0 | 0.00 | 0.00 | 0.00 | 81 | 1012.9 |
| 20260906110937 | 57 | 150 | 0.0 | 1.0 | 0.00 | 0.00 | 0.00 | 81 | 1012.9 |
| 20260906110837 | 57 | 148 | 0.0 | 1.0 | 0.00 | 0.00 | 0.00 | 81 | 1012.9 |
| 20260906110737 | 57 | 148 | 0.0 | 1.0 | 0.00 | 0.00 | 0.00 | 80 | 1013.0 |
| 20260906110637 | 57 | 150 | 0.0 | 1.0 | 0.00 | 0.00 | 0.00 | 80 | 1012.9 |
| 20260906110620 | 57 | 149 | 0.0 | 1.0 | 0.00 | 0.00 | 0.00 | 80 | 1012.9 |
| 20260906110537 | 57 | 149 | 0.0 | 1.0 | 0.00 | 0.00 | 0.00 | 80 | 1012.9 |
| 20260906110437 | 57 | 149 | 0.0 | 1.0 | 0.00 | 0.00 | 0.00 | 81 | 1012.9 |
| 20260906110333 | 57 | 149 | 0.0 | 1.0 | 0.00 | 0.00 | 0.00 | 81 | 1012.9 |
| 20260906110234 | 57 | 149 | 0.0 | 1.0 | 0.00 | 0.00 | 0.00 | 81 | 1012.9 |
| 20260906110119 | 57 | 148 | 0.0 | 1.0 | 0.00 | 0.00 | 0.00 | 81 | 1012.9 |
| 20260906110033 | 57 | 148 | 0.0 | 1.0 | 0.00 | 0.00 | 0.00 | 81 | 1012.9 |
| 20260906105933 | 57 | 149 | 0.0 | 1.0 | 0.00 | 0.00 | 0.00 | 81 | 1012.9 |
| 20260906105833 | 57 | 149 | 0.0 | 1.0 | 0.00 | 0.00 | 0.00 | 81 | 1012.9 |
| 20260906105732 | 57 | 150 | 0.0 | 1.0 | 0.00 | 0.00 | 0.00 | 82 | 1012.8 |
| 20260906105631 | 57 | 148 | 0.0 | 1.0 | 0.00 | 0.00 | 0.00 | 81 | 1012.8 |
| 20260906105618 | 57 | 150 | 0.0 | 1.0 | 0.00 | 0.00 | 0.00 | 81 | 1012.8 |
| 20260906105531 | 57 | 149 | 0.0 | 1.0 | 0.00 | 0.00 | 0.00 | 81 | 1012.8 |
| 20260906105431 | 57 | 148 | 0.0 | 1.0 | 0.00 | 0.00 | 0.00 | 81 | 1012.8 |
| 20260906105331 | 57 | 150 | 0.0 | 1.0 | 0.00 | 0.00 | 0.00 | 81 | 1012.8 |
| 20260906105231 | 57 | 149 | 0.0 | 1.0 | 0.00 | 0.00 | 0.00 | 81 | 1012.7 |
| 20260906105118 | 57 | 150 | 0.0 | 1.0 | 0.00 | 0.00 | 0.00 | 81 | 1012.8 |
| 20260906105029 | 57 | 148 | 0.0 | 1.0 | 0.00 | 0.00 | 0.00 | 81 | 1012.8 |
| 20260906104929 | 57 | 149 | 0.0 | 1.0 | 0.00 | 0.00 | 0.00 | 81 | 1012.7 |
| 20260906104829 | 57 | 150 | 0.0 | 1.0 | 0.00 | 0.00 | 0.00 | 81 | 1012.7 |
| 20260906104731 | 57 | 148 | 0.0 | 1.0 | 0.00 | 0.00 | 0.00 | 81 | 1012.8 |
| 20260906104629 | 57 | 149 | 0.0 | 1.0 | 0.00 | 0.00 | 0.00 | 81 | 1012.8 |
| 20260906104618 | 57 | 150 | 0.0 | 1.0 | 0.00 | 0.00 | 0.00 | 81 | 1012.8 |
| 20260906104528 | 57 | 150 | 0.0 | 1.0 | 0.00 | 0.00 | 0.00 | 81 | 1012.8 |
| 20260906104427 | 57 | 149 | 0.0 | 1.0 | 0.00 | 0.00 | 0.00 | 80 | 1012.8 |
| 20260906104342 | 57 | 149 | 0.0 | 1.0 | 0.00 | 0.00 | 0.00 | 81 | 1012.8 |
| 20260906104327 | 57 | 149 | 0.0 | 1.0 | 0.00 | 0.00 | 0.00 | 80 | 1012.7 |
| 20260906104236 | 57 | 150 | 0.0 | 1.0 | 0.00 | 0.00 | 0.00 | 80 | 1012.7 |
| 20260906104228 | 57 | 150 | 0.0 | 1.0 | 0.00 | 0.00 | 0.00 | 81 | 1012.8 |
| 20260906104026 | 57 | 150 | 0.0 | 1.0 | 0.00 | 0.00 | 0.00 | 81 | 1012.8 |
| 20260906103927 | 57 | 150 | 0.0 | 1.0 | 0.00 | 0.00 | 0.00 | 81 | 1012.8 |
| 20260906103828 | 57 | 150 | 0.0 | 1.0 | 0.00 | 0.00 | 0.00 | 81 | 1012.8 |
| 20260906103728 | 57 | 150 | 0.0 | 0.0 | 0.00 | 0.00 | 0.00 | 81 | 1012.8 |
| 20260906103616 | 57 | 149 | 0.0 | 0.0 | 0.00 | 0.00 | 0.00 | 81 | 1012.8 |
| 20260906103527 | 57 | 149 | 0.0 | 0.0 | 0.00 | 0.00 | 0.00 | 81 | 1012.8 |
| 20260906103427 | 57 | 149 | 0.0 | 0.0 | 0.00 | 0.00 | 0.00 | 81 | 1012.8 |
| 20260906103328 | 57 | 150 | 0.0 | 0.0 | 0.00 | 0.00 | 0.00 | 81 | 1012.7 |
| 20260906103228 | 57 | 149 | 0.0 | 0.0 | 0.00 | 0.00 | 0.00 | 81 | 1012.7 |
| 20260906103126 | 57 | 148 | 0.0 | 0.0 | 0.00 | 0.00 | 0.00 | 81 | 1012.8 |
| 20260906103116 | 57 | 148 | 0.0 | 0.0 | 0.00 | 0.00 | 0.00 | 80 | 1012.8 |
| 20260906103027 | 57 | 149 | 0.0 | 0.0 | 0.00 | 0.00 | 0.00 | 80 | 1012.8 |
| 20260906102927 | 57 | 149 | 0.0 | 0.0 | 0.00 | 0.00 | 0.00 | 80 | 1012.7 |
| 20260906102827 | 57 | 148 | 0.0 | 0.0 | 0.00 | 0.00 | 0.00 | 80 | 1012.7 |
| 20260906102729 | 57 | 149 | 0.0 | 0.0 | 0.00 | 0.00 | 0.00 | 80 | 1012.7 |
| 20260906102616 | 57 | 149 | 0.0 | 0.0 | 0.00 | 0.00 | 0.00 | 80 | 1012.7 |
| 20260906102527 | 57 | 150 | 0.0 | 0.0 | 0.00 | 0.00 | 0.00 | 80 | 1012.7 |
| 20260906102425 | 57 | 148 | 0.0 | 0.0 | 0.00 | 0.00 | 0.00 | 80 | 1012.7 |
| 20260906102325 | 58 | 150 | 0.0 | 0.0 | 0.00 | 0.00 | 0.00 | 80 | 1012.7 |
| 20260906102227 | 58 | 149 | 0.0 | 0.0 | 0.00 | 0.00 | 0.00 | 80 | 1012.7 |
| 20260906102125 | 58 | 149 | 0.0 | 0.0 | 0.00 | 0.00 | 0.00 | 80 | 1012.7 |
| 20260906102114 | 58 | 150 | 0.0 | 0.0 | 0.00 | 0.00 | 0.00 | 80 | 1012.7 |
| 20260906102052 | 58 | 150 | 0.0 | 1.0 | 0.00 | 0.00 | 0.00 | 80 | 1012.7 |
| 20260906102025 | 58 | 148 | 0.0 | 0.0 | 0.00 | 0.00 | 0.00 | 80 | 1012.7 |
| 20260906101940 | 58 | 148 | 0.0 | 1.0 | 0.00 | 0.00 | 0.00 | 80 | 1012.7 |
| 20260906101825 | 58 | 150 | 0.0 | 1.0 | 0.00 | 0.00 | 0.00 | 80 | 1012.7 |
| 20260906101736 | 58 | 149 | 0.0 | 1.0 | 0.00 | 0.00 | 0.00 | 80 | 1012.7 |
| 20260906101728 | 58 | 149 | 0.0 | 1.0 | 0.00 | 0.00 | 0.00 | 80 | 1012.7 |
| 20260906101525 | 58 | 149 | 0.0 | 1.0 | 0.00 | 0.00 | 0.00 | 80 | 1012.7 |
| 20260906101425 | 58 | 149 | 0.0 | 1.0 | 0.00 | 0.00 | 0.00 | 80 | 1012.7 |
| 20260906101325 | 58 | 149 | 0.0 | 1.0 | 0.00 | 0.00 | 0.00 | 80 | 1012.6 |
| 20260906101227 | 58 | 150 | 0.0 | 1.0 | 0.00 | 0.00 | 0.00 | 80 | 1012.7 |
| 20260906101114 | 58 | 150 | 0.0 | 1.0 | 0.00 | 0.00 | 0.00 | 80 | 1012.7 |
| 20260906101023 | 58 | 149 | 0.0 | 1.0 | 0.00 | 0.00 | 0.00 | 80 | 1012.7 |
| 20260906100923 | 58 | 149 | 0.0 | 1.0 | 0.00 | 0.00 | 0.00 | 80 | 1012.7 |
| 20260906100841 | 58 | 149 | 0.0 | 1.0 | 0.00 | 0.00 | 0.00 | 80 | 1012.7 |
| 20260906100818 | 58 | 150 | 0.0 | 1.0 | 0.00 | 0.00 | 0.00 | 80 | 1012.7 |
| 20260906100734 | 58 | 150 | 0.0 | 1.0 | 0.00 | 0.00 | 0.00 | 80 | 1012.7 |
| 20260906100723 | 58 | 149 | 0.0 | 1.0 | 0.00 | 0.00 | 0.00 | 80 | 1012.7 |
| 20260906100517 | 58 | 150 | 0.0 | 1.0 | 0.00 | 0.00 | 0.00 | 80 | 1012.7 |
| 20260906100414 | 58 | 150 | 0.0 | 1.0 | 0.00 | 0.00 | 0.00 | 80 | 1012.7 |
| 20260906100312 | 58 | 148 | 0.0 | 1.0 | 0.00 | 0.00 | 0.00 | 80 | 1012.7 |
| 20260906100211 | 58 | 148 | 0.0 | 1.0 | 0.00 | 0.00 | 0.00 | 80 | 1012.7 |
| 20260906100108 | 58 | 150 | 0.0 | 1.0 | 0.00 | 0.00 | 0.00 | 80 | 1012.7 |
| 20260906100010 | 58 | 117 | 0.0 | 1.0 | 0.00 | 0.00 | 0.00 | 80 | 1012.7 |
| 20260906095909 | 58 | 117 | 0.0 | 1.0 | 0.00 | 0.00 | 0.00 | 80 | 1012.7 |
| 20260906095833 | 58 | 117 | 0.0 | 1.0 | 0.00 | 0.00 | 0.00 | 80 | 1012.8 |
| 20260906095809 | 58 | 117 | 0.0 | 1.0 | 0.00 | 0.00 | 0.00 | 80 | 1012.8 |
| 20260906095727 | 58 | 117 | 0.0 | 1.0 | 0.00 | 0.00 | 0.00 | 80 | 1012.8 |
| 20260906095609 | 58 | 117 | 0.0 | 1.0 | 0.00 | 0.00 | 0.00 | 80 | 1012.8 |
| 20260906095509 | 58 | 117 | 0.0 | 1.0 | 0.00 | 0.00 | 0.00 | 80 | 1012.8 |
| 20260906095409 | 58 | 117 | 0.0 | 1.0 | 0.00 | 0.00 | 0.00 | 80 | 1012.8 |
| 20260906095310 | 58 | 110 | 0.0 | 1.0 | 0.00 | 0.00 | 0.00 | 80 | 1012.9 |
| 20260906095209 | 58 | 110 | 0.0 | 1.0 | 0.00 | 0.00 | 0.00 | 80 | 1012.8 |
| 20260906095105 | 58 | 110 | 0.0 | 1.0 | 0.00 | 0.00 | 0.00 | 80 | 1012.9 |
| 20260906095006 | 58 | 110 | 0.0 | 1.0 | 0.00 | 0.00 | 0.00 | 79 | 1012.9 |
| 20260906094905 | 58 | 110 | 0.0 | 1.0 | 0.00 | 0.00 | 0.00 | 79 | 1012.9 |
| 20260906094806 | 58 | 110 | 0.0 | 1.0 | 0.00 | 0.00 | 0.00 | 80 | 1012.9 |
| 20260906094705 | 58 | 110 | 0.0 | 1.0 | 0.00 | 0.00 | 0.00 | 80 | 1012.8 |
| 20260906094609 | 58 | 110 | 0.0 | 1.0 | 0.00 | 0.00 | 0.00 | 79 | 1012.9 |
| 20260906094604 | 58 | 110 | 0.0 | 1.0 | 0.00 | 0.00 | 0.00 | 79 | 1012.9 |
| 20260906094543 | 58 | 110 | 0.0 | 1.0 | 0.00 | 0.00 | 0.00 | 79 | 1012.8 |
| 20260906094504 | 58 | 110 | 0.0 | 1.0 | 0.00 | 0.00 | 0.00 | 79 | 1012.9 |
| 20260906094403 | 58 | 110 | 0.0 | 1.0 | 0.00 | 0.00 | 0.00 | 79 | 1012.9 |
| 20260906094303 | 58 | 110 | 0.0 | 1.0 | 0.00 | 0.00 | 0.00 | 79 | 1012.8 |
| 20260906094219 | 58 | 110 | 0.0 | 1.0 | 0.00 | 0.00 | 0.00 | 79 | 1012.8 |
| 20260906094103 | 58 | 110 | 0.0 | 1.0 | 0.00 | 0.00 | 0.00 | 79 | 1012.8 |
| 20260906094003 | 58 | 110 | 0.0 | 1.0 | 0.00 | 0.00 | 0.00 | 79 | 1012.8 |
| 20260906093859 | 58 | 110 | 0.0 | 1.0 | 0.00 | 0.00 | 0.00 | 79 | 1012.8 |
| 20260906093800 | 58 | 110 | 0.0 | 1.0 | 0.00 | 0.00 | 0.00 | 79 | 1012.9 |
| 20260906093659 | 58 | 110 | 0.0 | 1.0 | 0.00 | 0.00 | 0.00 | 79 | 1012.9 |
| 20260906093609 | 58 | 110 | 0.0 | 1.0 | 0.00 | 0.00 | 0.00 | 80 | 1012.9 |
| 20260906093559 | 58 | 110 | 0.0 | 1.0 | 0.00 | 0.00 | 0.00 | 80 | 1012.9 |
| 20260906093459 | 58 | 110 | 0.0 | 1.0 | 0.00 | 0.00 | 0.00 | 80 | 1012.9 |
| 20260906093359 | 58 | 141 | 0.0 | 1.0 | 0.00 | 0.00 | 0.00 | 80 | 1013.0 |
| 20260906093301 | 58 | 141 | 0.0 | 0.0 | 0.00 | 0.00 | 0.00 | 80 | 1013.0 |
| 20260906093159 | 58 | 141 | 0.0 | 0.0 | 0.00 | 0.00 | 0.00 | 79 | 1012.9 |
| 20260906093108 | 58 | 141 | 0.0 | 0.0 | 0.00 | 0.00 | 0.00 | 79 | 1012.9 |
| 20260906093103 | 58 | 141 | 0.0 | 0.0 | 0.00 | 0.00 | 0.00 | 79 | 1012.9 |
| 20260906092959 | 58 | 141 | 0.0 | 1.0 | 0.00 | 0.00 | 0.00 | 79 | 1013.0 |
| 20260906092859 | 58 | 141 | 0.0 | 1.0 | 0.00 | 0.00 | 0.00 | 79 | 1012.9 |
| 20260906092800 | 58 | 141 | 0.0 | 1.0 | 0.00 | 0.00 | 0.00 | 79 | 1012.9 |
| 20260906092659 | 58 | 141 | 0.0 | 1.0 | 0.00 | 0.00 | 0.00 | 79 | 1012.9 |
| 20260906092608 | 58 | 141 | 0.0 | 1.0 | 0.00 | 0.00 | 0.00 | 79 | 1013.0 |
| 20260906092559 | 58 | 141 | 0.0 | 1.0 | 0.00 | 0.00 | 0.00 | 79 | 1013.0 |
| 20260906092459 | 58 | 141 | 0.0 | 1.0 | 0.00 | 0.00 | 0.00 | 79 | 1013.0 |
| 20260906092359 | 58 | 141 | 0.0 | 1.0 | 0.00 | 0.00 | 0.00 | 79 | 1013.0 |
| 20260906092300 | 58 | 141 | 0.0 | 1.0 | 0.00 | 0.00 | 0.00 | 79 | 1013.0 |
| 20260906092159 | 58 | 141 | 0.0 | 1.0 | 0.00 | 0.00 | 0.00 | 79 | 1013.0 |
| 20260906092108 | 58 | 141 | 0.0 | 1.0 | 0.00 | 0.00 | 0.00 | 78 | 1013.0 |
| 20260906092102 | 58 | 140 | 0.0 | 1.0 | 0.00 | 0.00 | 0.00 | 78 | 1013.0 |
| 20260906091958 | 58 | 141 | 0.0 | 1.0 | 0.00 | 0.00 | 0.00 | 78 | 1013.0 |
| 20260906091857 | 58 | 139 | 0.0 | 0.0 | 0.00 | 0.00 | 0.00 | 78 | 1013.0 |
| 20260906091758 | 58 | 141 | 0.0 | 0.0 | 0.00 | 0.00 | 0.00 | 78 | 1013.1 |
| 20260906091655 | 58 | 141 | 0.0 | 0.0 | 0.00 | 0.00 | 0.00 | 78 | 1013.0 |
| 20260906091605 | 58 | 141 | 0.0 | 0.0 | 0.00 | 0.00 | 0.00 | 78 | 1013.0 |
| 20260906091555 | 58 | 141 | 0.0 | 0.0 | 0.00 | 0.00 | 0.00 | 78 | 1013.0 |
| 20260906091455 | 58 | 141 | 0.0 | 0.0 | 0.00 | 0.00 | 0.00 | 79 | 1013.0 |
| 20260906091355 | 58 | 141 | 0.0 | 0.0 | 0.00 | 0.00 | 0.00 | 79 | 1013.1 |
| 20260906091255 | 58 | 141 | 0.0 | 0.0 | 0.00 | 0.00 | 0.00 | 79 | 1013.0 |
| 20260906091155 | 58 | 141 | 0.0 | 0.0 | 0.00 | 0.00 | 0.00 | 79 | 1013.0 |
| 20260906091103 | 58 | 141 | 0.0 | 0.0 | 0.00 | 0.00 | 0.00 | 79 | 1013.0 |
| 20260906091053 | 58 | 141 | 0.0 | 0.0 | 0.00 | 0.00 | 0.00 | 79 | 1013.0 |
| 20260906090953 | 58 | 141 | 0.0 | 0.0 | 0.00 | 0.00 | 0.00 | 79 | 1013.0 |
| 20260906090851 | 58 | 141 | 0.0 | 0.0 | 0.00 | 0.00 | 0.00 | 79 | 1013.0 |
| 20260906090823 | 58 | 141 | 0.0 | 0.0 | 0.00 | 0.00 | 0.00 | 78 | 1012.9 |
| 20260906090752 | 58 | 141 | 0.0 | 0.0 | 0.00 | 0.00 | 0.00 | 79 | 1012.9 |
| 20260906090714 | 58 | 141 | 0.0 | 0.0 | 0.00 | 0.00 | 0.00 | 78 | 1013.0 |
| 20260906090551 | 59 | 141 | 0.0 | 0.0 | 0.00 | 0.00 | 0.00 | 78 | 1012.9 |
| 20260906090449 | 59 | 141 | 0.0 | 0.0 | 0.00 | 0.00 | 0.00 | 78 | 1013.0 |
| 20260906090349 | 59 | 141 | 0.0 | 0.0 | 0.00 | 0.00 | 0.00 | 78 | 1012.9 |
| 20260906090250 | 59 | 141 | 0.0 | 0.0 | 0.00 | 0.00 | 0.00 | 78 | 1012.9 |
| 20260906090147 | 59 | 141 | 0.0 | 0.0 | 0.00 | 0.00 | 0.00 | 78 | 1013.0 |
| 20260906090106 | 59 | 141 | 0.0 | 0.0 | 0.00 | 0.00 | 0.00 | 78 | 1013.0 |
| 20260906090047 | 59 | 141 | 0.0 | 0.0 | 0.00 | 0.00 | 0.00 | 78 | 1013.0 |
| 20260906085947 | 59 | 141 | 0.0 | 0.0 | 0.00 | 0.00 | 0.00 | 78 | 1013.0 |
| 20260906085847 | 59 | 141 | 0.0 | 0.0 | 0.00 | 0.00 | 0.00 | 78 | 1013.0 |
| 20260906085747 | 59 | 141 | 0.0 | 0.0 | 0.00 | 0.00 | 0.00 | 78 | 1013.0 |
| 20260906085647 | 59 | 141 | 0.0 | 0.0 | 0.00 | 0.00 | 0.00 | 78 | 1013.0 |
| 20260906085605 | 59 | 141 | 0.0 | 0.0 | 0.00 | 0.00 | 0.00 | 78 | 1013.0 |
| 20260906085547 | 59 | 141 | 0.0 | 0.0 | 0.00 | 0.00 | 0.00 | 78 | 1013.0 |
| 20260906085447 | 59 | 141 | 0.0 | 0.0 | 0.00 | 0.00 | 0.00 | 78 | 1013.0 |
| 20260906085347 | 59 | 141 | 0.0 | 0.0 | 0.00 | 0.00 | 0.00 | 78 | 1013.0 |
| 20260906085248 | 59 | 141 | 0.0 | 0.0 | 0.00 | 0.00 | 0.00 | 77 | 1013.0 |
| 20260906085147 | 59 | 141 | 0.0 | 0.0 | 0.00 | 0.00 | 0.00 | 77 | 1013.1 |
| 20260906085104 | 59 | 141 | 0.0 | 0.0 | 0.00 | 0.00 | 0.00 | 77 | 1013.1 |
| 20260906085047 | 59 | 141 | 0.0 | 1.0 | 0.00 | 0.00 | 0.00 | 77 | 1013.1 |
| 20260906084947 | 59 | 141 | 0.0 | 1.0 | 0.00 | 0.00 | 0.00 | 77 | 1013.1 |
| 20260906084848 | 59 | 141 | 0.0 | 1.0 | 0.00 | 0.00 | 0.00 | 77 | 1013.1 |
| 20260906084825 | 59 | 141 | 0.0 | 1.0 | 0.00 | 0.00 | 0.00 | 76 | 1013.1 |
| 20260906084748 | 59 | 141 | 0.0 | 1.0 | 0.00 | 0.00 | 0.00 | 77 | 1013.1 |
| 20260906084716 | 59 | 141 | 0.0 | 1.0 | 0.00 | 0.00 | 0.00 | 77 | 1013.1 |
| 20260906084548 | 59 | 141 | 0.0 | 1.0 | 0.00 | 0.00 | 0.00 | 76 | 1013.1 |
| 20260906084447 | 59 | 141 | 0.0 | 1.0 | 0.00 | 0.00 | 0.00 | 76 | 1013.1 |
| 20260906084347 | 60 | 141 | 0.0 | 1.0 | 0.00 | 0.00 | 0.00 | 76 | 1013.1 |
| 20260906084246 | 60 | 141 | 0.0 | 1.0 | 0.00 | 0.00 | 0.00 | 76 | 1013.1 |
| 20260906084145 | 60 | 141 | 0.0 | 1.0 | 0.00 | 0.00 | 0.00 | 76 | 1013.1 |
| 20260906084102 | 60 | 141 | 0.0 | 1.0 | 0.00 | 0.00 | 0.00 | 76 | 1013.1 |
| 20260906084045 | 60 | 141 | 0.0 | 1.0 | 0.00 | 0.00 | 0.00 | 76 | 1013.1 |
| 20260906083945 | 60 | 141 | 0.0 | 1.0 | 0.00 | 0.00 | 0.00 | 76 | 1013.1 |
| 20260906083843 | 60 | 141 | 0.0 | 1.0 | 0.00 | 0.00 | 0.00 | 76 | 1013.1 |
| 20260906083745 | 60 | 141 | 0.0 | 1.0 | 0.00 | 0.00 | 0.00 | 76 | 1013.1 |
| 20260906083642 | 60 | 141 | 0.0 | 1.0 | 0.00 | 0.00 | 0.00 | 76 | 1013.1 |
| 20260906083543 | 60 | 141 | 0.0 | 2.0 | 0.00 | 0.00 | 0.00 | 76 | 1013.0 |
| 20260906083443 | 60 | 141 | 0.0 | 2.0 | 0.00 | 0.00 | 0.00 | 76 | 1013.1 |
| 20260906083343 | 60 | 110 | 0.0 | 2.0 | 0.00 | 0.00 | 0.00 | 76 | 1013.1 |
| 20260906083244 | 60 | 110 | 1.0 | 2.0 | 0.00 | 0.00 | 0.00 | 76 | 1013.1 |
| 20260906083142 | 60 | 110 | 1.0 | 2.0 | 0.00 | 0.00 | 0.00 | 76 | 1013.1 |
| 20260906083041 | 60 | 110 | 1.0 | 2.0 | 0.00 | 0.00 | 0.00 | 76 | 1013.1 |
| 20260906082941 | 60 | 110 | 1.0 | 2.0 | 0.00 | 0.00 | 0.00 | 76 | 1013.1 |
| 20260906082841 | 60 | 104 | 1.0 | 2.0 | 0.00 | 0.00 | 0.00 | 76 | 1013.1 |
| 20260906082814 | 60 | 107 | 0.0 | 2.0 | 0.00 | 0.00 | 0.00 | 76 | 1013.1 |
| 20260906082740 | 60 | 105 | 1.0 | 2.0 | 0.00 | 0.00 | 0.00 | 76 | 1013.1 |
| 20260906082708 | 60 | 110 | 0.0 | 1.0 | 0.00 | 0.00 | 0.00 | 76 | 1013.2 |
| 20260906082704 | 60 | 105 | 1.0 | 2.0 | 0.00 | 0.00 | 0.00 | 76 | 1013.1 |
| 20260906082529 | 60 | 130 | 0.0 | 2.0 | 0.00 | 0.00 | 0.00 | 76 | 1013.1 |
| 20260906082446 | 60 | 133 | 0.0 | 2.0 | 0.00 | 0.00 | 0.00 | 76 | 1013.1 |
| 20260906082329 | 60 | 89 | 0.0 | 2.0 | 0.00 | 0.00 | 0.00 | 76 | 1013.2 |
| 20260906082231 | 60 | 111 | 0.0 | 2.0 | 0.00 | 0.00 | 0.00 | 76 | 1013.2 |
| 20260906082219 | 60 | 110 | 0.0 | 1.0 | 0.00 | 0.00 | 0.00 | 76 | 1013.2 |
| 20260906082028 | 60 | 110 | 0.0 | 1.0 | 0.00 | 0.00 | 0.00 | 76 | 1013.2 |
| 20260906081927 | 60 | 110 | 0.0 | 1.0 | 0.00 | 0.00 | 0.00 | 76 | 1013.2 |
| 20260906081827 | 60 | 110 | 0.0 | 2.0 | 0.00 | 0.00 | 0.00 | 76 | 1013.2 |
| 20260906081729 | 61 | 110 | 0.0 | 2.0 | 0.00 | 0.00 | 0.00 | 76 | 1013.2 |
| 20260906081627 | 61 | 110 | 0.0 | 2.0 | 0.00 | 0.00 | 0.00 | 76 | 1013.2 |
| 20260906081528 | 61 | 110 | 0.0 | 2.0 | 0.00 | 0.00 | 0.00 | 76 | 1013.2 |
| 20260906081428 | 61 | 110 | 0.0 | 2.0 | 0.00 | 0.00 | 0.00 | 76 | 1013.2 |
| 20260906081331 | 61 | 132 | 0.0 | 2.0 | 0.00 | 0.00 | 0.00 | 76 | 1013.2 |
| 20260906081327 | 61 | 110 | 0.0 | 2.0 | 0.00 | 0.00 | 0.00 | 76 | 1013.2 |
| 20260906081228 | 61 | 132 | 0.0 | 2.0 | 0.00 | 0.00 | 0.00 | 76 | 1013.2 |
| 20260906081216 | 61 | 132 | 0.0 | 2.0 | 0.00 | 0.00 | 0.00 | 75 | 1013.2 |
| 20260906081027 | 61 | 132 | 0.0 | 2.0 | 0.00 | 0.00 | 0.00 | 76 | 1013.2 |
| 20260906080927 | 61 | 136 | 0.0 | 2.0 | 0.00 | 0.00 | 0.00 | 75 | 1013.2 |
| 20260906080827 | 61 | 136 | 0.0 | 2.0 | 0.00 | 0.00 | 0.00 | 75 | 1013.2 |
| 20260906080728 | 61 | 150 | 0.0 | 2.0 | 0.00 | 0.00 | 0.00 | 75 | 1013.2 |
| 20260906080625 | 61 | 150 | 0.0 | 2.0 | 0.00 | 0.00 | 0.00 | 75 | 1013.1 |
| 20260906080525 | 61 | 150 | 0.0 | 2.0 | 0.00 | 0.00 | 0.00 | 75 | 1013.1 |
| 20260906080425 | 61 | 150 | 0.0 | 2.0 | 0.00 | 0.00 | 0.00 | 75 | 1013.1 |
| 20260906080329 | 61 | 172 | 0.0 | 2.0 | 0.00 | 0.00 | 0.00 | 75 | 1013.1 |
| 20260906080325 | 61 | 150 | 0.0 | 2.0 | 0.00 | 0.00 | 0.00 | 75 | 1013.1 |
| 20260906080225 | 61 | 137 | 0.0 | 2.0 | 0.00 | 0.00 | 0.00 | 75 | 1013.0 |
| 20260906080215 | 61 | 172 | 0.0 | 2.0 | 0.00 | 0.00 | 0.00 | 75 | 1013.1 |
| 20260906080024 | 61 | 172 | 0.0 | 2.0 | 0.00 | 0.00 | 0.00 | 75 | 1013.1 |
| 20260906075923 | 61 | 172 | 0.0 | 2.0 | 0.00 | 0.00 | 0.00 | 75 | 1013.1 |
| 20260906075823 | 61 | 172 | 0.0 | 2.0 | 0.00 | 0.00 | 0.00 | 75 | 1013.1 |
| 20260906075726 | 61 | 188 | 0.0 | 2.0 | 0.00 | 0.00 | 0.00 | 74 | 1013.1 |
| 20260906075624 | 61 | 199 | 0.0 | 2.0 | 0.00 | 0.00 | 0.00 | 74 | 1013.1 |
| 20260906075523 | 61 | 199 | 0.0 | 2.0 | 0.00 | 0.00 | 0.00 | 74 | 1013.1 |
| 20260906075423 | 61 | 135 | 0.0 | 2.0 | 0.00 | 0.00 | 0.00 | 74 | 1013.1 |
| 20260906075323 | 61 | 135 | 0.0 | 2.0 | 0.00 | 0.00 | 0.00 | 74 | 1013.1 |
| 20260906075224 | 61 | 136 | 0.0 | 2.0 | 0.00 | 0.00 | 0.00 | 74 | 1013.1 |
| 20260906075123 | 61 | 136 | 0.0 | 2.0 | 0.00 | 0.00 | 0.00 | 74 | 1013.1 |
| 20260906075049 | 61 | 135 | 0.0 | 2.0 | 0.00 | 0.00 | 0.00 | 74 | 1013.1 |
| 20260906075023 | 61 | 136 | 0.0 | 2.0 | 0.00 | 0.00 | 0.00 | 74 | 1013.1 |
| 20260906074921 | 61 | 136 | 0.0 | 2.0 | 0.00 | 0.00 | 0.00 | 73 | 1013.1 |
| 20260906074821 | 61 | 110 | 0.0 | 1.0 | 0.00 | 0.00 | 0.00 | 73 | 1013.1 |
| 20260906074724 | 61 | 110 | 0.0 | 1.0 | 0.00 | 0.00 | 0.00 | 73 | 1013.1 |
| 20260906074621 | 61 | 110 | 0.0 | 1.0 | 0.00 | 0.00 | 0.00 | 73 | 1013.2 |
| 20260906074520 | 61 | 110 | 0.0 | 1.0 | 0.00 | 0.00 | 0.00 | 73 | 1013.1 |
| 20260906074422 | 61 | 110 | 0.0 | 1.0 | 0.00 | 0.00 | 0.00 | 73 | 1013.1 |
| 20260906074321 | 61 | 110 | 0.0 | 1.0 | 0.00 | 0.00 | 0.00 | 73 | 1013.1 |
| 20260906074223 | 61 | 245 | 0.0 | 1.0 | 0.00 | 0.00 | 0.00 | 73 | 1013.1 |
| 20260906074120 | 61 | 245 | 0.0 | 1.0 | 0.00 | 0.00 | 0.00 | 73 | 1013.1 |
| 20260906074021 | 61 | 245 | 0.0 | 1.0 | 0.00 | 0.00 | 0.00 | 72 | 1013.1 |
| 20260906073921 | 61 | 245 | 0.0 | 1.0 | 0.00 | 0.00 | 0.00 | 72 | 1013.1 |
| 20260906073821 | 61 | 245 | 0.0 | 1.0 | 0.00 | 0.00 | 0.00 | 71 | 1013.0 |
| 20260906073725 | 61 | 245 | 0.0 | 1.0 | 0.00 | 0.00 | 0.00 | 71 | 1013.1 |
| 20260906073617 | 61 | 245 | 0.0 | 1.0 | 0.00 | 0.00 | 0.00 | 72 | 1013.0 |
| 20260906073518 | 61 | 245 | 0.0 | 1.0 | 0.00 | 0.00 | 0.00 | 72 | 1013.1 |
| 20260906073417 | 61 | 245 | 0.0 | 0.0 | 0.00 | 0.00 | 0.00 | 71 | 1013.0 |
| 20260906073318 | 61 | 245 | 0.0 | 0.0 | 0.00 | 0.00 | 0.00 | 71 | 1013.0 |
| 20260906073219 | 61 | 245 | 0.0 | 0.0 | 0.00 | 0.00 | 0.00 | 71 | 1013.0 |
| 20260906073117 | 61 | 245 | 0.0 | 3.0 | 0.00 | 0.00 | 0.00 | 71 | 1013.0 |
| 20260906073016 | 61 | 245 | 0.0 | 3.0 | 0.00 | 0.00 | 0.00 | 71 | 1013.0 |
| 20260906072915 | 61 | 245 | 0.0 | 3.0 | 0.00 | 0.00 | 0.00 | 70 | 1013.0 |
| 20260906072815 | 61 | 245 | 0.0 | 3.0 | 0.00 | 0.00 | 0.00 | 70 | 1012.9 |
| 20260906072715 | 61 | 245 | 0.0 | 3.0 | 0.00 | 0.00 | 0.00 | 70 | 1012.9 |
| 20260906072614 | 62 | 245 | 0.0 | 3.0 | 0.00 | 0.00 | 0.00 | 70 | 1012.9 |
| 20260906072515 | 62 | 245 | 0.0 | 3.0 | 0.00 | 0.00 | 0.00 | 70 | 1012.9 |
| 20260906072413 | 62 | 245 | 0.0 | 3.0 | 0.00 | 0.00 | 0.00 | 70 | 1012.9 |
| 20260906072314 | 62 | 245 | 0.0 | 3.0 | 0.00 | 0.00 | 0.00 | 70 | 1012.9 |
| 20260906072213 | 62 | 245 | 0.0 | 3.0 | 0.00 | 0.00 | 0.00 | 70 | 1012.9 |
| 20260906072113 | 62 | 229 | 0.0 | 0.0 | 0.00 | 0.00 | 0.00 | 69 | 1012.8 |
| 20260906072038 | 62 | 229 | 0.0 | 0.0 | 0.00 | 0.00 | 0.00 | 69 | 1012.8 |
| 20260906072013 | 62 | 229 | 0.0 | 0.0 | 0.00 | 0.00 | 0.00 | 69 | 1012.9 |
| 20260906071913 | 62 | 229 | 0.0 | 0.0 | 0.00 | 0.00 | 0.00 | 69 | 1012.9 |
| 20260906071814 | 62 | 229 | 0.0 | 0.0 | 0.00 | 0.00 | 0.00 | 69 | 1012.9 |
| 20260906071713 | 62 | 229 | 0.0 | 0.0 | 0.00 | 0.00 | 0.00 | 68 | 1012.8 |
| 20260906071611 | 62 | 229 | 0.0 | 1.0 | 0.00 | 0.00 | 0.00 | 68 | 1012.8 |
| 20260906071537 | 62 | 229 | 0.0 | 1.0 | 0.00 | 0.00 | 0.00 | 68 | 1012.8 |
| 20260906071511 | 62 | 229 | 0.0 | 1.0 | 0.00 | 0.00 | 0.00 | 68 | 1012.9 |
| 20260906071411 | 62 | 229 | 0.0 | 1.0 | 0.00 | 0.00 | 0.00 | 68 | 1012.9 |
| 20260906071312 | 62 | 229 | 0.0 | 1.0 | 0.00 | 0.00 | 0.00 | 68 | 1012.8 |
| 20260906071207 | 62 | 229 | 0.0 | 1.0 | 0.00 | 0.00 | 0.00 | 67 | 1012.9 |
| 20260906071107 | 62 | 229 | 0.0 | 1.0 | 0.00 | 0.00 | 0.00 | 67 | 1012.9 |
| 20260906071036 | 62 | 229 | 0.0 | 1.0 | 0.00 | 0.00 | 0.00 | 67 | 1012.9 |
| 20260906071007 | 63 | 229 | 0.0 | 1.0 | 0.00 | 0.00 | 0.00 | 67 | 1012.9 |
| 20260906070907 | 63 | 230 | 0.0 | 2.0 | 0.00 | 0.00 | 0.00 | 67 | 1012.9 |
| 20260906070808 | 63 | 229 | 0.0 | 2.0 | 0.00 | 0.00 | 0.00 | 67 | 1012.8 |
| 20260906070706 | 63 | 229 | 0.0 | 2.0 | 0.00 | 0.00 | 0.00 | 67 | 1012.8 |
| 20260906070607 | 63 | 230 | 0.0 | 2.0 | 0.00 | 0.00 | 0.00 | 67 | 1012.8 |
| 20260906070507 | 63 | 229 | 0.0 | 3.0 | 0.00 | 0.00 | 0.00 | 67 | 1012.8 |
| 20260906070407 | 63 | 229 | 0.0 | 3.0 | 0.00 | 0.00 | 0.00 | 67 | 1012.8 |
| 20260906070308 | 63 | 229 | 1.0 | 3.0 | 0.00 | 0.00 | 0.00 | 67 | 1012.8 |
| 20260906070207 | 63 | 229 | 1.0 | 4.0 | 0.00 | 0.00 | 0.00 | 66 | 1012.8 |
| 20260906070108 | 63 | 230 | 1.0 | 5.0 | 0.00 | 0.00 | 0.00 | 66 | 1012.9 |
| 20260906070049 | 63 | 231 | 1.0 | 5.0 | 0.00 | 0.00 | 0.00 | 66 | 1012.9 |
| 20260906070007 | 63 | 231 | 1.0 | 5.0 | 0.00 | 0.00 | 0.00 | 66 | 1012.9 |
| 20260906065907 | 63 | 232 | 1.0 | 5.0 | 0.00 | 0.00 | 0.00 | 66 | 1012.9 |
| 20260906065808 | 63 | 232 | 1.0 | 5.0 | 0.00 | 0.00 | 0.00 | 66 | 1012.9 |
| 20260906065707 | 63 | 232 | 1.0 | 5.0 | 0.00 | 0.00 | 0.00 | 66 | 1012.9 |
| 20260906065606 | 63 | 236 | 1.0 | 5.0 | 0.00 | 0.00 | 0.00 | 66 | 1012.8 |
| 20260906065536 | 63 | 233 | 1.0 | 5.0 | 0.00 | 0.00 | 0.00 | 66 | 1012.8 |
| 20260906065507 | 63 | 248 | 1.0 | 5.0 | 0.00 | 0.00 | 0.00 | 65 | 1012.8 |
| 20260906065406 | 63 | 250 | 1.0 | 5.0 | 0.00 | 0.00 | 0.00 | 65 | 1012.8 |
| 20260906065305 | 63 | 250 | 1.0 | 5.0 | 0.00 | 0.00 | 0.00 | 65 | 1012.8 |
| 20260906065202 | 63 | 235 | 1.0 | 5.0 | 0.00 | 0.00 | 0.00 | 65 | 1012.8 |
| 20260906065101 | 63 | 245 | 1.0 | 3.0 | 0.00 | 0.00 | 0.00 | 65 | 1012.8 |
| 20260906065036 | 63 | 221 | 1.0 | 3.0 | 0.00 | 0.00 | 0.00 | 64 | 1012.8 |
| 20260906065018 | 64 | 225 | 1.0 | 3.0 | 0.00 | 0.00 | 0.00 | 64 | 1012.8 |
| 20260906065000 | 63 | 221 | 1.0 | 3.0 | 0.00 | 0.00 | 0.00 | 64 | 1012.8 |
| 20260906064907 | 63 | 221 | 1.0 | 3.0 | 0.00 | 0.00 | 0.00 | 64 | 1012.8 |
| 20260906064752 | 64 | 221 | 1.0 | 3.0 | 0.00 | 0.00 | 0.00 | 64 | 1012.8 |
| 20260906064652 | 64 | 232 | 1.0 | 3.0 | 0.00 | 0.00 | 0.00 | 64 | 1012.8 |
| 20260906064640 | 64 | 225 | 1.0 | 3.0 | 0.00 | 0.00 | 0.00 | 64 | 1012.8 |
| 20260906064452 | 64 | 225 | 1.0 | 3.0 | 0.00 | 0.00 | 0.00 | 64 | 1012.8 |
| 20260906064353 | 64 | 260 | 1.0 | 3.0 | 0.00 | 0.00 | 0.00 | 64 | 1012.8 |
| 20260906064250 | 64 | 228 | 1.0 | 3.0 | 0.00 | 0.00 | 0.00 | 64 | 1012.8 |
| 20260906064150 | 64 | 219 | 1.0 | 4.0 | 0.00 | 0.00 | 0.00 | 64 | 1012.8 |
| 20260906064024 | 64 | 226 | 1.0 | 4.0 | 0.00 | 0.00 | 0.00 | 63 | 1012.8 |
| 20260906063947 | 64 | 226 | 1.0 | 4.0 | 0.00 | 0.00 | 0.00 | 63 | 1012.9 |
| 20260906063845 | 64 | 226 | 1.0 | 4.0 | 0.00 | 0.00 | 0.00 | 63 | 1012.9 |
| 20260906063745 | 64 | 226 | 1.0 | 4.0 | 0.00 | 0.00 | 0.00 | 63 | 1012.9 |
| 20260906063643 | 64 | 226 | 1.0 | 4.0 | 0.00 | 0.00 | 0.00 | 63 | 1012.9 |
| 20260906063541 | 64 | 226 | 1.0 | 4.0 | 0.00 | 0.00 | 0.00 | 63 | 1012.9 |
| 20260906063519 | 64 | 245 | 1.0 | 4.0 | 0.00 | 0.00 | 0.00 | 63 | 1012.9 |
| 20260906063441 | 64 | 245 | 1.0 | 4.0 | 0.00 | 0.00 | 0.00 | 63 | 1012.9 |
| 20260906063339 | 64 | 243 | 1.0 | 4.0 | 0.00 | 0.00 | 0.00 | 63 | 1012.9 |
| 20260906063239 | 64 | 270 | 1.0 | 6.0 | 0.00 | 0.00 | 0.00 | 62 | 1012.9 |
| 20260906063235 | 64 | 248 | 1.0 | 4.0 | 0.00 | 0.00 | 0.00 | 62 | 1012.9 |
| 20260906063134 | 64 | 226 | 1.0 | 4.0 | 0.00 | 0.00 | 0.00 | 62 | 1012.9 |
| 20260906063122 | 64 | 242 | 1.0 | 6.0 | 0.00 | 0.00 | 0.00 | 62 | 1012.9 |
| 20260906062933 | 64 | 242 | 1.0 | 6.0 | 0.00 | 0.00 | 0.00 | 62 | 1012.9 |
| 20260906062833 | 64 | 238 | 1.0 | 6.0 | 0.00 | 0.00 | 0.00 | 62 | 1012.9 |
| 20260906062734 | 64 | 266 | 1.0 | 6.0 | 0.00 | 0.00 | 0.00 | 62 | 1012.9 |
| 20260906062631 | 64 | 221 | 1.0 | 6.0 | 0.00 | 0.00 | 0.00 | 61 | 1012.9 |
| 20260906062531 | 64 | 222 | 1.0 | 6.0 | 0.00 | 0.00 | 0.00 | 61 | 1012.9 |
| 20260906062506 | 64 | 239 | 1.0 | 6.0 | 0.00 | 0.00 | 0.00 | 61 | 1012.9 |
| 20260906062430 | 64 | 235 | 1.0 | 6.0 | 0.00 | 0.00 | 0.00 | 61 | 1012.9 |
| 20260906062327 | 64 | 216 | 1.0 | 6.0 | 0.00 | 0.00 | 0.00 | 61 | 1012.9 |
| 20260906062227 | 65 | 228 | 1.0 | 6.0 | 0.00 | 0.00 | 0.00 | 61 | 1012.9 |
| 20260906062125 | 65 | 216 | 1.0 | 6.0 | 0.00 | 0.00 | 0.00 | 61 | 1012.9 |
| 20260906062023 | 65 | 259 | 1.0 | 6.0 | 0.00 | 0.00 | 0.00 | 60 | 1012.9 |
| 20260906062000 | 65 | 242 | 1.0 | 6.0 | 0.00 | 0.00 | 0.00 | 60 | 1012.9 |
| 20260906061924 | 65 | 236 | 1.0 | 6.0 | 0.00 | 0.00 | 0.00 | 60 | 1012.9 |
| 20260906061821 | 65 | 236 | 1.0 | 6.0 | 0.00 | 0.00 | 0.00 | 60 | 1012.9 |
| 20260906061718 | 65 | 228 | 1.0 | 6.0 | 0.00 | 0.00 | 0.00 | 60 | 1012.8 |
| 20260906061615 | 65 | 257 | 1.0 | 4.0 | 0.00 | 0.00 | 0.00 | 60 | 1012.8 |
| 20260906061517 | 65 | 284 | 1.0 | 4.0 | 0.00 | 0.00 | 0.00 | 60 | 1012.8 |
| 20260906061507 | 65 | 226 | 1.0 | 4.0 | 0.00 | 0.00 | 0.00 | 60 | 1012.8 |
| 20260906061415 | 65 | 235 | 1.0 | 5.0 | 0.00 | 0.00 | 0.00 | 60 | 1012.8 |
| 20260906061316 | 65 | 250 | 1.0 | 5.0 | 0.00 | 0.00 | 0.00 | 59 | 1012.8 |
| 20260906061210 | 65 | 240 | 1.0 | 5.0 | 0.00 | 0.00 | 0.00 | 59 | 1012.8 |
| 20260906061110 | 65 | 240 | 1.0 | 5.0 | 0.00 | 0.00 | 0.00 | 59 | 1012.8 |
| 20260906061010 | 65 | 208 | 0.0 | 5.0 | 0.00 | 0.00 | 0.00 | 59 | 1012.8 |
| 20260906060949 | 65 | 215 | 0.0 | 5.0 | 0.00 | 0.00 | 0.00 | 59 | 1012.8 |
| 20260906060910 | 65 | 250 | 0.0 | 5.0 | 0.00 | 0.00 | 0.00 | 59 | 1012.8 |
| 20260906060810 | 65 | 250 | 0.0 | 5.0 | 0.00 | 0.00 | 0.00 | 58 | 1012.8 |
| 20260906060710 | 65 | 221 | 0.0 | 5.0 | 0.00 | 0.00 | 0.00 | 58 | 1012.7 |
| 20260906060702 | 65 | 228 | 0.0 | 5.0 | 0.00 | 0.00 | 0.00 | 58 | 1012.8 |
| 20260906060607 | 65 | 226 | 0.0 | 5.0 | 0.00 | 0.00 | 0.00 | 58 | 1012.7 |
| 20260906060554 | 65 | 228 | 0.0 | 5.0 | 0.00 | 0.00 | 0.00 | 58 | 1012.8 |
| 20260906060406 | 65 | 278 | 0.0 | 4.0 | 0.00 | 0.00 | 0.00 | 58 | 1012.8 |
| 20260906060304 | 65 | 229 | 0.0 | 4.0 | 0.00 | 0.00 | 0.00 | 57 | 1012.8 |
| 20260906060204 | 66 | 229 | 1.0 | 4.0 | 0.00 | 0.00 | 0.00 | 57 | 1012.8 |
| 20260906060002 | 66 | 222 | 1.0 | 4.0 | 0.00 | 0.00 | 0.00 | 57 | 1012.8 |
| 20260906055936 | 66 | 222 | 1.0 | 4.0 | 0.00 | 0.00 | 0.00 | 56 | 1012.8 |
| 20260906055859 | 66 | 222 | 1.0 | 4.0 | 0.00 | 0.00 | 0.00 | 56 | 1012.8 |
| 20260906055758 | 66 | 242 | 1.0 | 4.0 | 0.00 | 0.00 | 0.00 | 56 | 1012.8 |
| 20260906055651 | 66 | 241 | 1.0 | 4.0 | 0.00 | 0.00 | 0.00 | 56 | 1012.8 |
| 20260906055552 | 66 | 248 | 1.0 | 4.0 | 0.00 | 0.00 | 0.00 | 56 | 1012.9 |
| 20260906055451 | 66 | 233 | 1.0 | 3.0 | 0.00 | 0.00 | 0.00 | 55 | 1012.9 |
| 20260906055431 | 66 | 239 | 1.0 | 3.0 | 0.00 | 0.00 | 0.00 | 55 | 1012.9 |
| 20260906055351 | 66 | 241 | 1.0 | 3.0 | 0.00 | 0.00 | 0.00 | 55 | 1012.9 |
| 20260906055253 | 66 | 267 | 1.0 | 3.0 | 0.00 | 0.00 | 0.00 | 55 | 1012.9 |
| 20260906055147 | 66 | 238 | 1.0 | 3.0 | 0.00 | 0.00 | 0.00 | 55 | 1012.9 |
| 20260906055049 | 66 | 218 | 1.0 | 3.0 | 0.00 | 0.00 | 0.00 | 56 | 1012.9 |
| 20260906054924 | 66 | 218 | 1.0 | 3.0 | 0.00 | 0.00 | 0.00 | 54 | 1012.9 |
| 20260906054846 | 67 | 226 | 1.0 | 3.0 | 0.00 | 0.00 | 0.00 | 54 | 1012.9 |
| 20260906054746 | 67 | 235 | 1.0 | 3.0 | 0.00 | 0.00 | 0.00 | 54 | 1012.9 |
| 20260906054639 | 67 | 222 | 1.0 | 4.0 | 0.00 | 0.00 | 0.00 | 54 | 1012.9 |
| 20260906054540 | 67 | 235 | 1.0 | 4.0 | 0.00 | 0.00 | 0.00 | 54 | 1012.9 |
| 20260906054418 | 67 | 235 | 1.0 | 4.0 | 0.00 | 0.00 | 0.00 | 53 | 1012.9 |
| 20260906054339 | 67 | 245 | 1.0 | 4.0 | 0.00 | 0.00 | 0.00 | 53 | 1012.9 |
| 20260906054241 | 67 | 232 | 1.0 | 5.0 | 0.00 | 0.00 | 0.00 | 53 | 1012.9 |
| 20260906054137 | 67 | 240 | 1.0 | 5.0 | 0.00 | 0.00 | 0.00 | 53 | 1012.9 |
| 20260906054036 | 67 | 218 | 1.0 | 5.0 | 0.00 | 0.00 | 0.00 | 53 | 1012.9 |
| 20260906053935 | 67 | 252 | 1.0 | 5.0 | 0.00 | 0.00 | 0.00 | 53 | 1012.9 |
| 20260906053913 | 67 | 250 | 1.0 | 5.0 | 0.00 | 0.00 | 0.00 | 53 | 1012.9 |
| 20260906053835 | 67 | 219 | 1.0 | 5.0 | 0.00 | 0.00 | 0.00 | 52 | 1012.9 |
| 20260906053734 | 67 | 235 | 1.0 | 7.0 | 0.00 | 0.00 | 0.00 | 52 | 1012.9 |
| 20260906053627 | 67 | 220 | 1.0 | 7.0 | 0.00 | 0.00 | 0.00 | 52 | 1012.9 |
| 20260906053527 | 67 | 219 | 1.0 | 7.0 | 0.00 | 0.00 | 0.00 | 52 | 1012.9 |
| 20260906053427 | 67 | 231 | 1.0 | 7.0 | 0.00 | 0.00 | 0.00 | 52 | 1012.8 |
| 20260906053406 | 67 | 230 | 1.0 | 7.0 | 0.00 | 0.00 | 0.00 | 52 | 1012.9 |
| 20260906053328 | 67 | 250 | 1.0 | 7.0 | 0.00 | 0.00 | 0.00 | 52 | 1012.9 |
| 20260906053228 | 67 | 219 | 1.0 | 7.0 | 0.00 | 0.00 | 0.00 | 52 | 1012.9 |
| 20260906053123 | 67 | 266 | 2.0 | 7.0 | 0.00 | 0.00 | 0.00 | 51 | 1012.9 |
| 20260906053022 | 67 | 221 | 2.0 | 7.0 | 0.00 | 0.00 | 0.00 | 51 | 1012.9 |
| 20260906052921 | 68 | 221 | 2.0 | 7.0 | 0.00 | 0.00 | 0.00 | 51 | 1012.9 |
| 20260906052901 | 68 | 252 | 2.0 | 7.0 | 0.00 | 0.00 | 0.00 | 51 | 1012.9 |
| 20260906052822 | 68 | 242 | 2.0 | 7.0 | 0.00 | 0.00 | 0.00 | 51 | 1012.9 |
| 20260906052723 | 68 | 221 | 2.0 | 6.0 | 0.00 | 0.00 | 0.00 | 51 | 1012.9 |
| 20260906052615 | 68 | 263 | 2.0 | 5.0 | 0.00 | 0.00 | 0.00 | 51 | 1012.9 |
| 20260906052516 | 68 | 239 | 2.0 | 5.0 | 0.00 | 0.00 | 0.00 | 51 | 1012.8 |
| 20260906052417 | 68 | 248 | 2.0 | 5.0 | 0.00 | 0.00 | 0.00 | 51 | 1012.9 |
| 20260906052407 | 68 | 208 | 2.0 | 5.0 | 0.00 | 0.00 | 0.00 | 51 | 1012.9 |
| 20260906052316 | 68 | 240 | 2.0 | 5.0 | 0.00 | 0.00 | 0.00 | 50 | 1012.9 |
| 20260906052220 | 68 | 233 | 1.0 | 5.0 | 0.00 | 0.00 | 0.00 | 50 | 1012.9 |
| 20260906052114 | 68 | 242 | 1.0 | 5.0 | 0.00 | 0.00 | 0.00 | 50 | 1012.9 |
| 20260906052014 | 68 | 229 | 1.0 | 5.0 | 0.00 | 0.00 | 0.00 | 50 | 1012.9 |
| 20260906051914 | 68 | 229 | 1.0 | 5.0 | 0.00 | 0.00 | 0.00 | 50 | 1012.9 |
| 20260906051848 | 68 | 229 | 1.0 | 5.0 | 0.00 | 0.00 | 0.00 | 50 | 1012.9 |
| 20260906051812 | 68 | 238 | 1.0 | 5.0 | 0.00 | 0.00 | 0.00 | 49 | 1012.9 |
| 20260906051709 | 68 | 250 | 1.0 | 5.0 | 0.00 | 0.00 | 0.00 | 49 | 1012.9 |
| 20260906051615 | 68 | 260 | 1.0 | 5.0 | 0.00 | 0.00 | 0.00 | 49 | 1012.9 |
| 20260906051610 | 68 | 230 | 1.0 | 5.0 | 0.00 | 0.00 | 0.00 | 49 | 1012.9 |
| 20260906051508 | 68 | 257 | 1.0 | 5.0 | 0.00 | 0.00 | 0.00 | 49 | 1012.9 |
| 20260906051408 | 68 | 248 | 1.0 | 5.0 | 0.00 | 0.00 | 0.00 | 49 | 1012.9 |
| 20260906051306 | 68 | 217 | 1.0 | 5.0 | 0.00 | 0.00 | 0.00 | 49 | 1012.9 |
| 20260906051204 | 68 | 243 | 1.0 | 5.0 | 0.00 | 0.00 | 0.00 | 49 | 1012.9 |
| 20260906051104 | 68 | 271 | 1.0 | 5.0 | 0.00 | 0.00 | 0.00 | 49 | 1012.9 |
| 20260906051002 | 68 | 259 | 1.0 | 5.0 | 0.00 | 0.00 | 0.00 | 49 | 1012.9 |
| 20260906050838 | 68 | 252 | 1.0 | 5.0 | 0.00 | 0.00 | 0.00 | 49 | 1012.9 |
| 20260906050801 | 68 | 252 | 1.0 | 5.0 | 0.00 | 0.00 | 0.00 | 49 | 1013.0 |
| 20260906050658 | 68 | 235 | 1.0 | 4.0 | 0.00 | 0.00 | 0.00 | 49 | 1012.9 |
| 20260906050556 | 69 | 228 | 1.0 | 4.0 | 0.00 | 0.00 | 0.00 | 49 | 1012.9 |
| 20260906050457 | 69 | 214 | 1.0 | 4.0 | 0.00 | 0.00 | 0.00 | 49 | 1012.9 |
| 20260906050353 | 69 | 186 | 1.0 | 4.0 | 0.00 | 0.00 | 0.00 | 48 | 1012.9 |
| 20260906050339 | 69 | 250 | 1.0 | 4.0 | 0.00 | 0.00 | 0.00 | 48 | 1012.9 |
| 20260906050254 | 69 | 243 | 1.0 | 4.0 | 0.00 | 0.00 | 0.00 | 49 | 1012.9 |
| 20260906050151 | 69 | 243 | 1.0 | 4.0 | 0.00 | 0.00 | 0.00 | 48 | 1012.9 |
| 20260906050045 | 69 | 250 | 1.0 | 4.0 | 0.00 | 0.00 | 0.00 | 49 | 1012.9 |
| 20260906045945 | 69 | 248 | 1.0 | 4.0 | 0.00 | 0.00 | 0.00 | 48 | 1012.9 |
| 20260906045850 | 69 | 219 | 1.0 | 6.0 | 0.00 | 0.00 | 0.00 | 48 | 1012.9 |
| 20260906045839 | 69 | 239 | 1.0 | 6.0 | 0.00 | 0.00 | 0.00 | 48 | 1012.9 |
| 20260906045746 | 69 | 224 | 2.0 | 6.0 | 0.00 | 0.00 | 0.00 | 48 | 1012.8 |
| 20260906045645 | 69 | 231 | 2.0 | 6.0 | 0.00 | 0.00 | 0.00 | 48 | 1012.9 |
| 20260906045545 | 69 | 248 | 2.0 | 7.0 | 0.00 | 0.00 | 0.00 | 48 | 1012.8 |
| 20260906045443 | 69 | 250 | 2.0 | 7.0 | 0.00 | 0.00 | 0.00 | 48 | 1012.8 |
| 20260906045343 | 69 | 238 | 2.0 | 7.0 | 0.00 | 0.00 | 0.00 | 48 | 1012.8 |
| 20260906045242 | 69 | 245 | 2.0 | 7.0 | 0.00 | 0.00 | 0.00 | 48 | 1012.8 |
| 20260906045139 | 69 | 238 | 2.0 | 7.0 | 0.00 | 0.00 | 0.00 | 48 | 1012.7 |
| 20260906045035 | 69 | 242 | 2.0 | 7.0 | 0.00 | 0.00 | 0.00 | 48 | 1012.8 |
| 20260906044933 | 69 | 290 | 2.0 | 10.0 | 0.00 | 0.00 | 0.00 | 48 | 1012.8 |
| 20260906044839 | 69 | 248 | 2.0 | 10.0 | 0.00 | 0.00 | 0.00 | 49 | 1012.8 |
| 20260906044833 | 69 | 262 | 2.0 | 10.0 | 0.00 | 0.00 | 0.00 | 49 | 1012.8 |
| 20260906044733 | 69 | 248 | 2.0 | 10.0 | 0.00 | 0.00 | 0.00 | 49 | 1012.8 |
| 20260906044633 | 69 | 245 | 2.0 | 10.0 | 0.00 | 0.00 | 0.00 | 49 | 1012.8 |
| 20260906044529 | 69 | 217 | 2.0 | 10.0 | 0.00 | 0.00 | 0.00 | 49 | 1012.8 |
| 20260906044427 | 69 | 238 | 2.0 | 10.0 | 0.00 | 0.00 | 0.00 | 49 | 1012.7 |
| 20260906044329 | 69 | 235 | 2.0 | 10.0 | 0.00 | 0.00 | 0.00 | 49 | 1012.8 |
| 20260906044229 | 69 | 242 | 1.0 | 10.0 | 0.00 | 0.00 | 0.00 | 49 | 1012.8 |
| 20260906044127 | 69 | 221 | 1.0 | 10.0 | 0.00 | 0.00 | 0.00 | 49 | 1012.8 |
| 20260906044023 | 69 | 263 | 1.0 | 7.0 | 0.00 | 0.00 | 0.00 | 50 | 1012.8 |
| 20260906043924 | 69 | 242 | 1.0 | 7.0 | 0.00 | 0.00 | 0.00 | 51 | 1012.8 |
| 20260906043836 | 69 | 262 | 1.0 | 7.0 | 0.00 | 0.00 | 0.00 | 51 | 1012.8 |
| 20260906043826 | 69 | 214 | 1.0 | 7.0 | 0.00 | 0.00 | 0.00 | 51 | 1012.8 |
| 20260906043725 | 69 | 236 | 0.0 | 4.0 | 0.00 | 0.00 | 0.00 | 51 | 1012.8 |
| 20260906043621 | 69 | 235 | 0.0 | 2.0 | 0.00 | 0.00 | 0.00 | 51 | 1012.9 |
| 20260906043515 | 69 | 233 | 0.0 | 2.0 | 0.00 | 0.00 | 0.00 | 51 | 1012.9 |
| 20260906043415 | 69 | 238 | 0.0 | 2.0 | 0.00 | 0.00 | 0.00 | 51 | 1012.8 |
| 20260906043336 | 69 | 239 | 0.0 | 2.0 | 0.00 | 0.00 | 0.00 | 51 | 1012.8 |
| 20260906043316 | 69 | 239 | 0.0 | 2.0 | 0.00 | 0.00 | 0.00 | 51 | 1012.9 |
| 20260906043219 | 69 | 239 | 0.0 | 2.0 | 0.00 | 0.00 | 0.00 | 51 | 1012.9 |
| 20260906043116 | 70 | 238 | 0.0 | 2.0 | 0.00 | 0.00 | 0.00 | 51 | 1012.9 |
| 20260906043012 | 70 | 239 | 0.0 | 2.0 | 0.00 | 0.00 | 0.00 | 51 | 1012.8 |
| 20260906042911 | 70 | 239 | 0.0 | 2.0 | 0.00 | 0.00 | 0.00 | 51 | 1012.9 |
| 20260906042836 | 70 | 238 | 0.0 | 2.0 | 0.00 | 0.00 | 0.00 | 50 | 1012.9 |
| 20260906042812 | 70 | 239 | 0.0 | 3.0 | 0.00 | 0.00 | 0.00 | 50 | 1012.9 |
| 20260906042712 | 70 | 239 | 0.0 | 3.0 | 0.00 | 0.00 | 0.00 | 50 | 1012.9 |
| 20260906042610 | 70 | 239 | 1.0 | 3.0 | 0.00 | 0.00 | 0.00 | 50 | 1012.9 |
| 20260906042507 | 70 | 224 | 1.0 | 3.0 | 0.00 | 0.00 | 0.00 | 50 | 1012.9 |
| 20260906042407 | 70 | 248 | 0.0 | 3.0 | 0.00 | 0.00 | 0.00 | 50 | 1012.8 |
| 20260906042337 | 70 | 238 | 0.0 | 3.0 | 0.00 | 0.00 | 0.00 | 50 | 1012.8 |
| 20260906042308 | 70 | 242 | 0.0 | 3.0 | 0.00 | 0.00 | 0.00 | 50 | 1012.8 |
| 20260906042205 | 70 | 235 | 0.0 | 3.0 | 0.00 | 0.00 | 0.00 | 51 | 1012.7 |
| 20260906042109 | 70 | 236 | 1.0 | 3.0 | 0.00 | 0.00 | 0.00 | 50 | 1012.8 |
| 20260906042100 | 71 | 239 | 0.0 | 3.0 | 0.00 | 0.00 | 0.00 | 50 | 1012.7 |
| 20260906042006 | 71 | 235 | 1.0 | 3.0 | 0.00 | 0.00 | 0.00 | 50 | 1012.7 |
| 20260906041947 | 71 | 234 | 0.0 | 3.0 | 0.00 | 0.00 | 0.00 | 50 | 1012.7 |
| 20260906041807 | 71 | 195 | 1.0 | 3.0 | 0.00 | 0.00 | 0.00 | 50 | 1012.7 |
| 20260906041703 | 71 | 262 | 1.0 | 3.0 | 0.00 | 0.00 | 0.00 | 50 | 1012.6 |
| 20260906041604 | 71 | 238 | 1.0 | 3.0 | 0.00 | 0.00 | 0.00 | 50 | 1012.6 |
| 20260906041501 | 71 | 235 | 1.0 | 3.0 | 0.00 | 0.00 | 0.00 | 50 | 1012.6 |
| 20260906041350 | 71 | 235 | 1.0 | 3.0 | 0.00 | 0.00 | 0.00 | 50 | 1012.6 |
| 20260906041300 | 71 | 238 | 1.0 | 3.0 | 0.00 | 0.00 | 0.00 | 50 | 1012.5 |
| 20260906041157 | 71 | 233 | 1.0 | 3.0 | 0.00 | 0.00 | 0.00 | 50 | 1012.5 |
| 20260906041055 | 71 | 233 | 1.0 | 4.0 | 0.00 | 0.00 | 0.00 | 50 | 1012.5 |
| 20260906040955 | 71 | 231 | 1.0 | 4.0 | 0.00 | 0.00 | 0.00 | 50 | 1012.5 |
| 20260906040901 | 71 | 231 | 1.0 | 4.0 | 0.00 | 0.00 | 0.00 | 50 | 1012.5 |
| 20260906040850 | 71 | 228 | 1.0 | 4.0 | 0.00 | 0.00 | 0.00 | 50 | 1012.5 |
| 20260906040754 | 71 | 235 | 1.0 | 4.0 | 0.00 | 0.00 | 0.00 | 49 | 1012.5 |
| 20260906040651 | 71 | 232 | 1.0 | 4.0 | 0.00 | 0.00 | 0.00 | 49 | 1012.5 |
| 20260906040549 | 71 | 238 | 1.0 | 6.0 | 0.00 | 0.00 | 0.00 | 49 | 1012.5 |
| 20260906040450 | 71 | 236 | 1.0 | 6.0 | 0.00 | 0.00 | 0.00 | 49 | 1012.5 |
| 20260906040401 | 71 | 240 | 2.0 | 6.0 | 0.00 | 0.00 | 0.00 | 49 | 1012.4 |
| 20260906040350 | 71 | 241 | 2.0 | 6.0 | 0.00 | 0.00 | 0.00 | 49 | 1012.4 |
| 20260906040251 | 72 | 241 | 2.0 | 6.0 | 0.00 | 0.00 | 0.00 | 49 | 1012.5 |
| 20260906040149 | 72 | 239 | 2.0 | 6.0 | 0.00 | 0.00 | 0.00 | 49 | 1012.4 |
| 20260906040050 | 72 | 224 | 2.0 | 6.0 | 0.00 | 0.00 | 0.00 | 49 | 1012.5 |
| 20260906035947 | 72 | 259 | 2.0 | 6.0 | 0.00 | 0.00 | 0.00 | 49 | 1012.5 |
| 20260906035846 | 72 | 241 | 2.0 | 6.0 | 0.00 | 0.00 | 0.00 | 48 | 1012.4 |
| 20260906035836 | 72 | 239 | 2.0 | 6.0 | 0.00 | 0.00 | 0.00 | 48 | 1012.4 |
| 20260906035746 | 72 | 240 | 2.0 | 6.0 | 0.00 | 0.00 | 0.00 | 48 | 1012.5 |
| 20260906035643 | 72 | 256 | 2.0 | 6.0 | 0.00 | 0.00 | 0.00 | 48 | 1012.5 |
| 20260906035542 | 72 | 236 | 2.0 | 6.0 | 0.00 | 0.00 | 0.00 | 48 | 1012.5 |
| 20260906035443 | 72 | 248 | 2.0 | 6.0 | 0.00 | 0.00 | 0.00 | 48 | 1012.5 |
| 20260906035340 | 72 | 229 | 1.0 | 6.0 | 0.00 | 0.00 | 0.00 | 48 | 1012.5 |
| 20260906035239 | 72 | 240 | 1.0 | 6.0 | 0.00 | 0.00 | 0.00 | 48 | 1012.4 |
| 20260906035137 | 72 | 239 | 1.0 | 9.0 | 0.00 | 0.00 | 0.00 | 48 | 1012.4 |
| 20260906035041 | 72 | 233 | 1.0 | 9.0 | 0.00 | 0.00 | 0.00 | 48 | 1012.4 |
| 20260906034937 | 72 | 233 | 2.0 | 9.0 | 0.00 | 0.00 | 0.00 | 48 | 1012.4 |
| 20260906034839 | 72 | 231 | 2.0 | 9.0 | 0.00 | 0.00 | 0.00 | 48 | 1012.4 |
| 20260906034735 | 72 | 277 | 2.0 | 9.0 | 0.00 | 0.00 | 0.00 | 48 | 1012.4 |
| 20260906034631 | 72 | 245 | 2.0 | 9.0 | 0.00 | 0.00 | 0.00 | 48 | 1012.4 |
| 20260906034556 | 72 | 233 | 2.0 | 9.0 | 0.00 | 0.00 | 0.00 | 48 | 1012.3 |
| 20260906034531 | 72 | 226 | 2.0 | 9.0 | 0.00 | 0.00 | 0.00 | 48 | 1012.3 |
| 20260906034447 | 72 | 233 | 2.0 | 9.0 | 0.00 | 0.00 | 0.00 | 48 | 1012.4 |
| 20260906034437 | 72 | 233 | 2.0 | 9.0 | 0.00 | 0.00 | 0.00 | 48 | 1012.3 |
| 20260906034226 | 72 | 239 | 3.0 | 9.0 | 0.00 | 0.00 | 0.00 | 47 | 1012.4 |
| 20260906034125 | 72 | 246 | 3.0 | 9.0 | 0.00 | 0.00 | 0.00 | 47 | 1012.4 |
| 20260906034025 | 72 | 245 | 2.0 | 9.0 | 0.00 | 0.00 | 0.00 | 47 | 1012.3 |
| 20260906033925 | 73 | 232 | 3.0 | 9.0 | 0.00 | 0.00 | 0.00 | 47 | 1012.3 |
| 20260906033827 | 73 | 253 | 2.0 | 9.0 | 0.00 | 0.00 | 0.00 | 47 | 1012.3 |
| 20260906033723 | 73 | 233 | 2.0 | 9.0 | 0.00 | 0.00 | 0.00 | 47 | 1012.3 |
| 20260906033621 | 73 | 219 | 3.0 | 9.0 | 0.00 | 0.00 | 0.00 | 47 | 1012.3 |
| 20260906033522 | 73 | 211 | 2.0 | 9.0 | 0.00 | 0.00 | 0.00 | 47 | 1012.3 |
| 20260906033422 | 73 | 259 | 2.0 | 9.0 | 0.00 | 0.00 | 0.00 | 47 | 1012.3 |
| 20260906033320 | 73 | 219 | 2.0 | 9.0 | 0.00 | 0.00 | 0.00 | 47 | 1012.3 |
| 20260906033216 | 73 | 229 | 2.0 | 5.0 | 0.00 | 0.00 | 0.00 | 47 | 1012.3 |
| 20260906033114 | 73 | 267 | 2.0 | 5.0 | 0.00 | 0.00 | 0.00 | 47 | 1012.2 |
| 20260906033014 | 73 | 224 | 2.0 | 5.0 | 0.00 | 0.00 | 0.00 | 47 | 1012.3 |
| 20260906032913 | 73 | 216 | 2.0 | 6.0 | 0.00 | 0.00 | 0.00 | 47 | 1012.2 |
| 20260906032816 | 73 | 263 | 1.0 | 6.0 | 0.00 | 0.00 | 0.00 | 48 | 1012.2 |
| 20260906032715 | 73 | 238 | 1.0 | 6.0 | 0.00 | 0.00 | 0.00 | 47 | 1012.2 |
| 20260906032611 | 73 | 273 | 1.0 | 6.0 | 0.00 | 0.00 | 0.00 | 48 | 1012.2 |
| 20260906032512 | 73 | 226 | 1.0 | 6.0 | 0.00 | 0.00 | 0.00 | 48 | 1012.2 |
| 20260906032409 | 73 | 287 | 1.0 | 6.0 | 0.00 | 0.00 | 0.00 | 48 | 1012.2 |
| 20260906032310 | 73 | 246 | 1.0 | 6.0 | 0.00 | 0.00 | 0.00 | 48 | 1012.1 |
| 20260906032205 | 73 | 245 | 1.0 | 6.0 | 0.00 | 0.00 | 0.00 | 48 | 1012.2 |
| 20260906032105 | 73 | 245 | 1.0 | 6.0 | 0.00 | 0.00 | 0.00 | 48 | 1012.2 |
| 20260906032007 | 73 | 236 | 0.0 | 6.0 | 0.00 | 0.00 | 0.00 | 48 | 1012.2 |
| 20260906031903 | 73 | 236 | 1.0 | 6.0 | 0.00 | 0.00 | 0.00 | 49 | 1012.2 |
| 20260906031804 | 73 | 203 | 1.0 | 6.0 | 0.00 | 0.00 | 0.00 | 49 | 1012.2 |
| 20260906031658 | 73 | 285 | 1.0 | 6.0 | 0.00 | 0.00 | 0.00 | 49 | 1012.2 |
| 20260906031557 | 73 | 285 | 0.0 | 6.0 | 0.00 | 0.00 | 0.00 | 49 | 1012.2 |
| 20260906031456 | 73 | 241 | 0.0 | 3.0 | 0.00 | 0.00 | 0.00 | 49 | 1012.2 |
| 20260906031356 | 73 | 233 | 0.0 | 3.0 | 0.00 | 0.00 | 0.00 | 49 | 1012.2 |
| 20260906031257 | 73 | 233 | 0.0 | 3.0 | 0.00 | 0.00 | 0.00 | 49 | 1012.2 |
| 20260906031155 | 73 | 233 | 0.0 | 3.0 | 0.00 | 0.00 | 0.00 | 49 | 1012.1 |
| 20260906031053 | 73 | 231 | 0.0 | 2.0 | 0.00 | 0.00 | 0.00 | 49 | 1012.2 |
| 20260906030954 | 73 | 219 | 0.0 | 2.0 | 0.00 | 0.00 | 0.00 | 50 | 1012.1 |
| 20260906030852 | 73 | 219 | 0.0 | 2.0 | 0.00 | 0.00 | 0.00 | 50 | 1012.1 |
| 20260906030751 | 73 | 222 | 0.0 | 1.0 | 0.00 | 0.00 | 0.00 | 49 | 1012.1 |
| 20260906030648 | 73 | 222 | 0.0 | 1.0 | 0.00 | 0.00 | 0.00 | 49 | 1012.1 |
| 20260906030547 | 74 | 222 | 0.0 | 1.0 | 0.00 | 0.00 | 0.00 | 49 | 1012.1 |
| 20260906030447 | 74 | 222 | 0.0 | 2.0 | 0.00 | 0.00 | 0.00 | 49 | 1012.1 |
| 20260906030345 | 74 | 222 | 0.0 | 2.0 | 0.00 | 0.00 | 0.00 | 49 | 1012.1 |
| 20260906030245 | 74 | 222 | 0.0 | 4.0 | 0.00 | 0.00 | 0.00 | 49 | 1012.1 |
| 20260906030137 | 74 | 223 | 0.0 | 4.0 | 0.00 | 0.00 | 0.00 | 48 | 1012.1 |
| 20260906030043 | 74 | 222 | 0.0 | 4.0 | 0.00 | 0.00 | 0.00 | 48 | 1012.1 |
| 20260906025937 | 74 | 222 | 0.0 | 4.0 | 0.00 | 0.00 | 0.00 | 48 | 1012.1 |
| 20260906025838 | 74 | 223 | 0.0 | 4.0 | 0.00 | 0.00 | 0.00 | 48 | 1012.1 |
| 20260906025740 | 74 | 222 | 0.0 | 4.0 | 0.00 | 0.00 | 0.00 | 48 | 1012.1 |
| 20260906025632 | 74 | 222 | 0.0 | 4.0 | 0.00 | 0.00 | 0.00 | 48 | 1012.1 |
| 20260906025532 | 74 | 219 | 1.0 | 4.0 | 0.00 | 0.00 | 0.00 | 47 | 1012.1 |
| 20260906025432 | 74 | 220 | 1.0 | 6.0 | 0.00 | 0.00 | 0.00 | 48 | 1012.0 |
| 20260906025331 | 74 | 219 | 1.0 | 6.0 | 0.00 | 0.00 | 0.00 | 48 | 1012.0 |
| 20260906025234 | 74 | 223 | 1.0 | 6.0 | 0.00 | 0.00 | 0.00 | 47 | 1012.0 |
| 20260906025129 | 75 | 222 | 1.0 | 6.0 | 0.00 | 0.00 | 0.00 | 47 | 1011.9 |
| 20260906025030 | 75 | 223 | 1.0 | 6.0 | 0.00 | 0.00 | 0.00 | 47 | 1012.0 |
| 20260906024952 | 75 | 222 | 2.0 | 6.0 | 0.00 | 0.00 | 0.00 | 47 | 1011.9 |
| 20260906024927 | 75 | 222 | 1.0 | 6.0 | 0.00 | 0.00 | 0.00 | 47 | 1012.0 |
| 20260906024842 | 75 | 222 | 1.0 | 6.0 | 0.00 | 0.00 | 0.00 | 47 | 1012.0 |
| 20260906024832 | 75 | 222 | 2.0 | 6.0 | 0.00 | 0.00 | 0.00 | 47 | 1011.9 |
| 20260906024620 | 75 | 236 | 2.0 | 6.0 | 0.00 | 0.00 | 0.00 | 46 | 1012.0 |
| 20260906024520 | 75 | 219 | 2.0 | 6.0 | 0.00 | 0.00 | 0.00 | 46 | 1012.0 |
| 20260906024419 | 75 | 241 | 2.0 | 6.0 | 0.00 | 0.00 | 0.00 | 46 | 1012.0 |
| 20260906024319 | 75 | 228 | 2.0 | 6.0 | 0.00 | 0.00 | 0.00 | 46 | 1012.0 |
| 20260906024222 | 75 | 228 | 2.0 | 6.0 | 0.00 | 0.00 | 0.00 | 46 | 1011.9 |
| 20260906024113 | 75 | 291 | 2.0 | 7.0 | 0.00 | 0.00 | 0.00 | 46 | 1012.0 |
| 20260906024013 | 75 | 211 | 2.0 | 7.0 | 0.00 | 0.00 | 0.00 | 46 | 1012.0 |
| 20260906023913 | 75 | 300 | 3.0 | 12.0 | 0.00 | 0.00 | 0.00 | 45 | 1012.0 |
| 20260906023814 | 76 | 250 | 3.0 | 12.0 | 0.00 | 0.00 | 0.00 | 45 | 1012.0 |
| 20260906023718 | 76 | 264 | 3.0 | 12.0 | 0.00 | 0.00 | 0.00 | 45 | 1011.9 |
| 20260906023607 | 76 | 199 | 3.0 | 12.0 | 0.00 | 0.00 | 0.00 | 45 | 1011.9 |
| 20260906023508 | 76 | 238 | 3.0 | 12.0 | 0.00 | 0.00 | 0.00 | 45 | 1011.9 |
| 20260906023407 | 76 | 268 | 3.0 | 12.0 | 0.00 | 0.00 | 0.00 | 45 | 1011.9 |
| 20260906023307 | 76 | 246 | 3.0 | 12.0 | 0.00 | 0.00 | 0.00 | 45 | 1011.9 |
| 20260906023209 | 76 | 230 | 3.0 | 12.0 | 0.00 | 0.00 | 0.00 | 45 | 1011.9 |
| 20260906023104 | 76 | 235 | 3.0 | 12.0 | 0.00 | 0.00 | 0.00 | 45 | 1011.9 |
| 20260906023001 | 76 | 256 | 2.0 | 12.0 | 0.00 | 0.00 | 0.00 | 44 | 1011.9 |
| 20260906022901 | 76 | 245 | 2.0 | 7.0 | 0.00 | 0.00 | 0.00 | 45 | 1011.9 |
| 20260906022802 | 76 | 204 | 2.0 | 7.0 | 0.00 | 0.00 | 0.00 | 44 | 1011.9 |
| 20260906022702 | 76 | 218 | 1.0 | 7.0 | 0.00 | 0.00 | 0.00 | 44 | 1011.9 |
| 20260906022602 | 76 | 239 | 1.0 | 6.0 | 0.00 | 0.00 | 0.00 | 44 | 1011.9 |
| 20260906022459 | 76 | 228 | 2.0 | 6.0 | 0.00 | 0.00 | 0.00 | 44 | 1011.9 |
| 20260906022357 | 76 | 228 | 2.0 | 6.0 | 0.00 | 0.00 | 0.00 | 44 | 1011.9 |
| 20260906022258 | 76 | 229 | 2.0 | 6.0 | 0.00 | 0.00 | 0.00 | 44 | 1011.9 |
| 20260906022157 | 76 | 236 | 1.0 | 6.0 | 0.00 | 0.00 | 0.00 | 44 | 1011.9 |
| 20260906022054 | 76 | 211 | 1.0 | 7.0 | 0.00 | 0.00 | 0.00 | 44 | 1011.9 |
| 20260906021953 | 77 | 232 | 2.0 | 7.0 | 0.00 | 0.00 | 0.00 | 44 | 1011.9 |
| 20260906021854 | 77 | 219 | 2.0 | 7.0 | 0.00 | 0.00 | 0.00 | 44 | 1011.9 |
| 20260906021753 | 77 | 226 | 2.0 | 7.0 | 0.00 | 0.00 | 0.00 | 44 | 1011.9 |
| 20260906021650 | 77 | 238 | 2.0 | 7.0 | 0.00 | 0.00 | 0.00 | 44 | 1011.8 |
| 20260906021546 | 77 | 270 | 2.0 | 7.0 | 0.00 | 0.00 | 0.00 | 43 | 1011.9 |
| 20260906021444 | 77 | 210 | 3.0 | 9.0 | 0.00 | 0.00 | 0.00 | 44 | 1011.9 |
| 20260906021343 | 77 | 235 | 3.0 | 9.0 | 0.00 | 0.00 | 0.00 | 44 | 1011.9 |
| 20260906021245 | 77 | 143 | 3.0 | 9.0 | 0.00 | 0.00 | 0.00 | 44 | 1011.9 |
| 20260906021145 | 77 | 240 | 4.0 | 10.0 | 0.00 | 0.00 | 0.00 | 44 | 1012.0 |
| 20260906021040 | 77 | 241 | 4.0 | 10.0 | 0.00 | 0.00 | 0.00 | 43 | 1011.9 |
| 20260906020939 | 77 | 198 | 4.0 | 10.0 | 0.00 | 0.00 | 0.00 | 43 | 1011.9 |
| 20260906020839 | 77 | 243 | 4.0 | 10.0 | 0.00 | 0.00 | 0.00 | 43 | 1011.9 |
| 20260906020740 | 77 | 257 | 4.0 | 10.0 | 0.00 | 0.00 | 0.00 | 43 | 1011.9 |
| 20260906020638 | 77 | 238 | 4.0 | 10.0 | 0.00 | 0.00 | 0.00 | 43 | 1012.0 |
| 20260906020533 | 77 | 246 | 4.0 | 10.0 | 0.00 | 0.00 | 0.00 | 43 | 1012.0 |
| 20260906020432 | 77 | 225 | 4.0 | 11.0 | 0.00 | 0.00 | 0.00 | 43 | 1012.0 |
| 20260906020331 | 78 | 259 | 4.0 | 11.0 | 0.00 | 0.00 | 0.00 | 43 | 1012.0 |
| 20260906020232 | 78 | 224 | 4.0 | 11.0 | 0.00 | 0.00 | 0.00 | 43 | 1012.0 |
| 20260906020133 | 78 | 245 | 4.0 | 11.0 | 0.00 | 0.00 | 0.00 | 43 | 1012.0 |
| 20260906020027 | 78 | 271 | 4.0 | 11.0 | 0.00 | 0.00 | 0.00 | 44 | 1012.0 |
| 20260906015925 | 78 | 222 | 4.0 | 11.0 | 0.00 | 0.00 | 0.00 | 43 | 1012.0 |
| 20260906015825 | 78 | 211 | 4.0 | 11.0 | 0.00 | 0.00 | 0.00 | 43 | 1012.0 |
| 20260906015727 | 78 | 226 | 3.0 | 11.0 | 0.00 | 0.00 | 0.00 | 43 | 1012.1 |
| 20260906015627 | 78 | 276 | 3.0 | 11.0 | 0.00 | 0.00 | 0.00 | 43 | 1012.1 |
| 20260906015521 | 78 | 239 | 3.0 | 9.0 | 0.00 | 0.00 | 0.00 | 43 | 1012.0 |
| 20260906015420 | 78 | 231 | 3.0 | 9.0 | 0.00 | 0.00 | 0.00 | 43 | 1012.0 |
| 20260906015319 | 78 | 231 | 3.0 | 8.0 | 0.00 | 0.00 | 0.00 | 43 | 1012.0 |
| 20260906015221 | 78 | 217 | 2.0 | 8.0 | 0.00 | 0.00 | 0.00 | 43 | 1012.0 |
| 20260906015120 | 78 | 268 | 2.0 | 8.0 | 0.00 | 0.00 | 0.00 | 43 | 1012.0 |
| 20260906015013 | 78 | 226 | 2.0 | 8.0 | 0.00 | 0.00 | 0.00 | 42 | 1012.0 |
| 20260906014913 | 78 | 274 | 2.0 | 8.0 | 0.00 | 0.00 | 0.00 | 42 | 1012.0 |
| 20260906014813 | 78 | 232 | 2.0 | 8.0 | 0.00 | 0.00 | 0.00 | 42 | 1012.0 |
| 20260906014717 | 79 | 253 | 2.0 | 8.0 | 0.00 | 0.00 | 0.00 | 42 | 1011.9 |
| 20260906014614 | 79 | 235 | 2.0 | 8.0 | 0.00 | 0.00 | 0.00 | 42 | 1011.9 |
| 20260906014508 | 79 | 257 | 2.0 | 8.0 | 0.00 | 0.00 | 0.00 | 41 | 1011.9 |
| 20260906014407 | 79 | 236 | 2.0 | 8.0 | 0.00 | 0.00 | 0.00 | 40 | 1012.0 |
| 20260906014308 | 79 | 259 | 3.0 | 8.0 | 0.00 | 0.00 | 0.00 | 39 | 1011.9 |
| 20260906014208 | 79 | 238 | 3.0 | 9.0 | 0.00 | 0.00 | 0.00 | 39 | 1011.9 |
| 20260906014108 | 79 | 226 | 3.0 | 9.0 | 0.00 | 0.00 | 0.00 | 39 | 1011.9 |
| 20260906014005 | 79 | 228 | 3.0 | 9.0 | 0.00 | 0.00 | 0.00 | 38 | 1011.9 |
| 20260906013905 | 79 | 243 | 2.0 | 9.0 | 0.00 | 0.00 | 0.00 | 37 | 1011.9 |
| 20260906013804 | 79 | 250 | 2.0 | 9.0 | 0.00 | 0.00 | 0.00 | 36 | 1011.9 |
| 20260906013703 | 79 | 248 | 2.0 | 9.0 | 0.00 | 0.00 | 0.00 | 36 | 1011.9 |
| 20260906013602 | 79 | 242 | 2.0 | 9.0 | 0.00 | 0.00 | 0.00 | 35 | 1011.9 |
| 20260906013456 | 79 | 245 | 2.0 | 9.0 | 0.00 | 0.00 | 0.00 | 35 | 1011.9 |
| 20260906013355 | 79 | 249 | 2.0 | 9.0 | 0.00 | 0.00 | 0.00 | 34 | 1011.9 |
| 20260906013256 | 79 | 224 | 2.0 | 9.0 | 0.00 | 0.00 | 0.00 | 33 | 1011.9 |
| 20260906013155 | 79 | 250 | 2.0 | 6.0 | 0.00 | 0.00 | 0.00 | 34 | 1011.9 |
| 20260906013057 | 79 | 218 | 2.0 | 6.0 | 0.00 | 0.00 | 0.00 | 34 | 1011.9 |
| 20260906012952 | 79 | 263 | 2.0 | 6.0 | 0.00 | 0.00 | 0.00 | 34 | 1011.9 |
| 20260906012849 | 79 | 243 | 2.0 | 6.0 | 0.00 | 0.00 | 0.00 | 33 | 1011.9 |
| 20260906012751 | 79 | 273 | 2.0 | 6.0 | 0.00 | 0.00 | 0.00 | 34 | 1011.9 |
| 20260906012649 | 79 | 231 | 2.0 | 6.0 | 0.00 | 0.00 | 0.00 | 34 | 1011.9 |
| 20260906012551 | 79 | 231 | 2.0 | 6.0 | 0.00 | 0.00 | 0.00 | 34 | 1011.9 |
| 20260906012449 | 79 | 232 | 2.0 | 6.0 | 0.00 | 0.00 | 0.00 | 34 | 1011.9 |
| 20260906012347 | 79 | 236 | 2.0 | 7.0 | 0.00 | 0.00 | 0.00 | 34 | 1011.9 |
| 20260906012246 | 79 | 226 | 2.0 | 7.0 | 0.00 | 0.00 | 0.00 | 34 | 1011.9 |
| 20260906012145 | 79 | 295 | 2.0 | 7.0 | 0.00 | 0.00 | 0.00 | 34 | 1011.9 |
| 20260906012046 | 79 | 224 | 2.0 | 7.0 | 0.00 | 0.00 | 0.00 | 34 | 1011.9 |
| 20260906011942 | 80 | 260 | 2.0 | 7.0 | 0.00 | 0.00 | 0.00 | 35 | 1011.9 |
| 20260906011842 | 80 | 260 | 2.0 | 7.0 | 0.00 | 0.00 | 0.00 | 34 | 1012.0 |
| 20260906011740 | 80 | 219 | 2.0 | 7.0 | 0.00 | 0.00 | 0.00 | 34 | 1011.9 |
| 20260906011639 | 80 | 240 | 2.0 | 7.0 | 0.00 | 0.00 | 0.00 | 35 | 1012.0 |
| 20260906011538 | 80 | 208 | 2.0 | 7.0 | 0.00 | 0.00 | 0.00 | 35 | 1011.9 |
| 20260906011431 | 80 | 200 | 2.0 | 7.0 | 0.00 | 0.00 | 0.00 | 35 | 1012.0 |
| 20260906011332 | 80 | 214 | 2.0 | 6.0 | 0.00 | 0.00 | 0.00 | 35 | 1011.9 |
| 20260906011232 | 80 | 218 | 2.0 | 6.0 | 0.00 | 0.00 | 0.00 | 35 | 1011.9 |
| 20260906011132 | 80 | 231 | 2.0 | 6.0 | 0.00 | 0.00 | 0.00 | 35 | 1012.0 |
| 20260906011037 | 80 | 232 | 3.0 | 6.0 | 0.00 | 0.00 | 0.00 | 35 | 1012.0 |
| 20260906010928 | 80 | 222 | 3.0 | 7.0 | 0.00 | 0.00 | 0.00 | 35 | 1012.0 |
| 20260906010827 | 80 | 241 | 3.0 | 7.0 | 0.00 | 0.00 | 0.00 | 35 | 1011.9 |
| 20260906010728 | 80 | 212 | 2.0 | 7.0 | 0.00 | 0.00 | 0.00 | 35 | 1011.9 |
| 20260906010627 | 80 | 246 | 2.0 | 7.0 | 0.00 | 0.00 | 0.00 | 35 | 1011.9 |
| 20260906010531 | 80 | 259 | 2.0 | 7.0 | 0.00 | 0.00 | 0.00 | 35 | 1011.9 |
| 20260906010526 | 80 | 257 | 2.0 | 7.0 | 0.00 | 0.00 | 0.00 | 35 | 1011.9 |
| 20260906010422 | 80 | 231 | 2.0 | 7.0 | 0.00 | 0.00 | 0.00 | 35 | 1011.9 |
| 20260906010319 | 80 | 96 | 2.0 | 7.0 | 0.00 | 0.00 | 0.00 | 36 | 1011.9 |
| 20260906010220 | 80 | 224 | 2.0 | 7.0 | 0.00 | 0.00 | 0.00 | 35 | 1011.9 |
| 20260906010120 | 80 | 257 | 2.0 | 7.0 | 0.00 | 0.00 | 0.00 | 35 | 1011.9 |
| 20260906010049 | 80 | 225 | 2.0 | 7.0 | 0.00 | 0.00 | 0.00 | 35 | 1011.9 |
| 20260906010019 | 80 | 226 | 1.0 | 7.0 | 0.00 | 0.00 | 0.00 | 35 | 1012.0 |
| 20260906005913 | 80 | 224 | 1.0 | 7.0 | 0.00 | 0.00 | 0.00 | 35 | 1011.9 |
| 20260906005813 | 80 | 245 | 1.0 | 6.0 | 0.00 | 0.00 | 0.00 | 36 | 1011.9 |
| 20260906005716 | 80 | 211 | 1.0 | 6.0 | 0.00 | 0.00 | 0.00 | 36 | 1011.9 |
| 20260906005613 | 80 | 245 | 1.0 | 6.0 | 0.00 | 0.00 | 0.00 | 35 | 1011.9 |
| 20260906005528 | 80 | 246 | 1.0 | 6.0 | 0.00 | 0.00 | 0.00 | 35 | 1011.9 |
| 20260906005513 | 80 | 238 | 1.0 | 6.0 | 0.00 | 0.00 | 0.00 | 35 | 1011.8 |
| 20260906005414 | 80 | 243 | 1.0 | 6.0 | 0.00 | 0.00 | 0.00 | 35 | 1011.9 |
| 20260906005313 | 80 | 245 | 1.0 | 6.0 | 0.00 | 0.00 | 0.00 | 36 | 1011.9 |
| 20260906005216 | 80 | 233 | 1.0 | 6.0 | 0.00 | 0.00 | 0.00 | 36 | 1011.9 |
| 20260906005113 | 80 | 238 | 1.0 | 6.0 | 0.00 | 0.00 | 0.00 | 35 | 1011.8 |
| 20260906005036 | 80 | 198 | 1.0 | 8.0 | 0.00 | 0.00 | 0.00 | 35 | 1011.8 |
| 20260906005013 | 80 | 242 | 1.0 | 8.0 | 0.00 | 0.00 | 0.00 | 36 | 1011.8 |
| 20260906004911 | 80 | 249 | 1.0 | 8.0 | 0.00 | 0.00 | 0.00 | 35 | 1011.9 |
| 20260906004810 | 80 | 226 | 1.0 | 8.0 | 0.00 | 0.00 | 0.00 | 36 | 1011.9 |
| 20260906004710 | 80 | 226 | 2.0 | 8.0 | 0.00 | 0.00 | 0.00 | 36 | 1011.9 |
| 20260906004607 | 80 | 226 | 2.0 | 8.0 | 0.00 | 0.00 | 0.00 | 36 | 1011.8 |
| 20260906004508 | 80 | 226 | 2.0 | 8.0 | 0.00 | 0.00 | 0.00 | 36 | 1011.8 |
| 20260906004405 | 80 | 243 | 2.0 | 8.0 | 0.00 | 0.00 | 0.00 | 35 | 1011.9 |
| 20260906004304 | 80 | 240 | 2.0 | 8.0 | 0.00 | 0.00 | 0.00 | 35 | 1011.9 |
| 20260906004203 | 80 | 225 | 2.0 | 8.0 | 0.00 | 0.00 | 0.00 | 35 | 1011.9 |
| 20260906004101 | 80 | 271 | 2.0 | 8.0 | 0.00 | 0.00 | 0.00 | 35 | 1011.9 |
| 20260906004032 | 80 | 193 | 2.0 | 7.0 | 0.00 | 0.00 | 0.00 | 35 | 1011.9 |
| 20260906004002 | 80 | 235 | 2.0 | 7.0 | 0.00 | 0.00 | 0.00 | 35 | 1011.9 |
| 20260906003901 | 80 | 232 | 2.0 | 7.0 | 0.00 | 0.00 | 0.00 | 35 | 1011.9 |
| 20260906003803 | 80 | 246 | 2.0 | 7.0 | 0.00 | 0.00 | 0.00 | 34 | 1011.9 |
| 20260906003702 | 80 | 228 | 2.0 | 6.0 | 0.00 | 0.00 | 0.00 | 35 | 1011.9 |
| 20260906003559 | 80 | 203 | 1.0 | 6.0 | 0.00 | 0.00 | 0.00 | 35 | 1011.9 |
| 20260906003526 | 80 | 243 | 1.0 | 6.0 | 0.00 | 0.00 | 0.00 | 35 | 1011.9 |
| 20260906003459 | 80 | 243 | 1.0 | 6.0 | 0.00 | 0.00 | 0.00 | 35 | 1011.9 |
| 20260906003359 | 80 | 241 | 1.0 | 6.0 | 0.00 | 0.00 | 0.00 | 35 | 1011.9 |
| 20260906003300 | 80 | 278 | 1.0 | 5.0 | 0.00 | 0.00 | 0.00 | 35 | 1011.8 |
| 20260906003159 | 80 | 236 | 1.0 | 4.0 | 0.00 | 0.00 | 0.00 | 35 | 1011.9 |
| 20260906003058 | 80 | 226 | 1.0 | 4.0 | 0.00 | 0.00 | 0.00 | 35 | 1011.9 |
| 20260906003037 | 80 | 181 | 1.0 | 4.0 | 0.00 | 0.00 | 0.00 | 36 | 1011.9 |
| 20260906002957 | 80 | 225 | 1.0 | 6.0 | 0.00 | 0.00 | 0.00 | 35 | 1011.8 |
| 20260906002855 | 80 | 187 | 2.0 | 11.0 | 0.00 | 0.00 | 0.00 | 36 | 1011.8 |
| 20260906002755 | 80 | 187 | 3.0 | 11.0 | 0.00 | 0.00 | 0.00 | 36 | 1011.8 |
| 20260906002654 | 80 | 187 | 3.0 | 11.0 | 0.00 | 0.00 | 0.00 | 35 | 1011.8 |
| 20260906002551 | 81 | 239 | 4.0 | 12.0 | 0.00 | 0.00 | 0.00 | 36 | 1011.9 |
| 20260906002526 | 81 | 239 | 4.0 | 14.0 | 0.00 | 0.00 | 0.00 | 35 | 1011.9 |
| 20260906002452 | 81 | 238 | 5.0 | 14.0 | 0.00 | 0.00 | 0.00 | 35 | 1011.8 |
| 20260906002349 | 81 | 239 | 5.0 | 14.0 | 0.00 | 0.00 | 0.00 | 35 | 1011.8 |
| 20260906002248 | 81 | 233 | 6.0 | 14.0 | 0.00 | 0.00 | 0.00 | 35 | 1011.8 |
| 20260906002148 | 81 | 239 | 6.0 | 14.0 | 0.00 | 0.00 | 0.00 | 34 | 1011.8 |
| 20260906002050 | 81 | 239 | 7.0 | 14.0 | 0.00 | 0.00 | 0.00 | 34 | 1011.8 |
| 20260906002040 | 81 | 249 | 7.0 | 14.0 | 0.00 | 0.00 | 0.00 | 34 | 1011.8 |
| 20260906001948 | 81 | 240 | 6.0 | 14.0 | 0.00 | 0.00 | 0.00 | 34 | 1011.7 |
| 20260906001847 | 81 | 253 | 6.0 | 14.0 | 0.00 | 0.00 | 0.00 | 35 | 1011.8 |
| 20260906001747 | 81 | 242 | 6.0 | 14.0 | 0.00 | 0.00 | 0.00 | 34 | 1011.8 |
| 20260906001642 | 81 | 217 | 5.0 | 14.0 | 0.00 | 0.00 | 0.00 | 34 | 1011.8 |
| 20260906001542 | 81 | 243 | 4.0 | 10.0 | 0.00 | 0.00 | 0.00 | 34 | 1011.8 |
| 20260906001527 | 81 | 239 | 4.0 | 10.0 | 0.00 | 0.00 | 0.00 | 34 | 1011.8 |
| 20260906001442 | 81 | 245 | 4.0 | 10.0 | 0.00 | 0.00 | 0.00 | 34 | 1011.8 |
| 20260906001341 | 81 | 243 | 3.0 | 10.0 | 0.00 | 0.00 | 0.00 | 34 | 1011.8 |
| 20260906001242 | 81 | 241 | 3.0 | 10.0 | 0.00 | 0.00 | 0.00 | 35 | 1011.8 |
| 20260906001138 | 81 | 170 | 3.0 | 11.0 | 0.00 | 0.00 | 0.00 | 35 | 1011.8 |
| 20260906001040 | 81 | 232 | 3.0 | 11.0 | 0.00 | 0.00 | 0.00 | 35 | 1011.8 |
| 20260906001030 | 81 | 240 | 3.0 | 11.0 | 0.00 | 0.00 | 0.00 | 35 | 1011.8 |
| 20260906000938 | 81 | 151 | 3.0 | 11.0 | 0.00 | 0.00 | 0.00 | 35 | 1011.9 |
| 20260906000837 | 81 | 293 | 3.0 | 11.0 | 0.00 | 0.00 | 0.00 | 36 | 1011.8 |
| 20260906000736 | 81 | 11 | 3.0 | 13.0 | 0.00 | 0.00 | 0.00 | 37 | 1011.8 |
| 20260906000636 | 81 | 225 | 4.0 | 13.0 | 0.00 | 0.00 | 0.00 | 35 | 1011.8 |
| 20260906000526 | 81 | 210 | 4.0 | 13.0 | 0.00 | 0.00 | 0.00 | 35 | 1011.8 |
| 20260906000433 | 81 | 267 | 4.0 | 13.0 | 0.00 | 0.00 | 0.00 | 36 | 1011.9 |
| 20260906000333 | 81 | 255 | 4.0 | 13.0 | 0.00 | 0.00 | 0.00 | 35 | 1011.9 |
| 20260906000233 | 81 | 205 | 4.0 | 13.0 | 0.00 | 0.00 | 0.00 | 35 | 1011.9 |
| 20260906000131 | 81 | 210 | 3.0 | 13.0 | 0.00 | 0.00 | 0.00 | 35 | 1011.8 |
| 20260906000100 | 81 | 203 | 3.0 | 13.0 | 0.00 | 0.00 | 0.00 | 35 | 1011.8 |
| 20260906000050 | 81 | 211 | 3.0 | 13.0 | 0.00 | 0.00 | 0.00 | 35 | 1011.8 |
| 20260905235931 | 81 | 193 | 3.0 | 13.0 | 0.00 | 0.00 | 0.00 | 35 | 1011.8 |
| 20260905235832 | 81 | 222 | 3.0 | 13.0 | 0.00 | 0.00 | 0.00 | 35 | 1011.8 |
| 20260905235732 | 81 | 238 | 3.0 | 10.0 | 0.00 | 0.00 | 0.00 | 35 | 1011.8 |
| 20260905235629 | 81 | 239 | 3.0 | 10.0 | 0.00 | 0.00 | 0.00 | 35 | 1011.8 |